Date StartTime U_cm/s V_cm/s W_cm/s Ustd_cm/s Vstd_cm/s Wstd_cm/s Uvar_(cm/s)^2 Vvar_(cm/s)^2 Wvar_(cm/s)^2 KE_(m/s)^2 TurbulentKE_(m/s)^2 HorizWindSpeed_cm/s FrictionSpeec_cm/s DragCoef SpeedOfSound_m/s SonicTemperature_C Pressure_mb 
05/22/2014  00:00:00       17.432      124.289      -20.844       15.338       16.547        8.102      235.258      273.789       65.640        0.838        0.029      125.505        7.375        0.003      338.834       11.753      860.505
05/22/2014  00:01:00       15.176      118.428      -22.792       21.810       15.523        8.836      475.685      240.950       78.083        0.778        0.040      119.397        7.611        0.004      338.839       11.763      860.504
05/22/2014  00:02:00       -8.226      126.971      -27.825       28.678       26.926       10.940      822.440      724.995      119.694        0.931        0.083      127.237       10.337        0.007      338.833       11.752      860.508
05/22/2014  00:03:00        4.590      162.563      -29.488       25.545       22.884       10.590      652.551      523.670      112.140        1.430        0.064      162.627        8.949        0.003      338.849       11.778      860.521
05/22/2014  00:04:00      -19.239      128.694      -23.429       27.192       27.871       14.616      739.429      776.813      213.635        0.961        0.086      130.125       11.830        0.008      338.898       11.862      860.526
05/22/2014  00:05:00        5.169      107.927      -19.443       25.872       22.876       11.495      669.359      523.300      132.133        0.669        0.066      108.050        8.935        0.007      338.949       11.948      860.530
05/22/2014  00:06:00        4.410      115.472      -23.393       16.910       20.360       10.364      285.953      414.542      107.415        0.735        0.040      115.556       10.548        0.008      338.935       11.924      860.531
05/22/2014  00:07:00        9.623      102.341      -22.833       21.603       27.735       12.302      466.678      769.231      151.339        0.624        0.069      102.792       13.097        0.016      338.913       11.889      860.530
05/22/2014  00:08:00        4.821       95.475      -18.086       16.136       12.935        8.810      260.367      167.316       77.617        0.499        0.025       95.596        6.843        0.005      338.912       11.886      860.537
05/22/2014  00:09:00        4.958       87.275      -14.142       13.682       16.077        8.475      187.210      258.457       71.833        0.418        0.026       87.416        7.951        0.008      338.902       11.867      860.553
05/22/2014  00:10:00       21.876       46.637       -9.305       18.040       31.795       15.134      325.425     1010.943      229.033        0.215        0.078       51.513       18.548        0.130      338.920       11.900      860.562
05/22/2014  00:11:00       34.886       30.576        2.248       21.117       23.645       25.722      445.948      559.077      661.632        0.191        0.083       46.389       18.265        0.155      338.903       11.870      860.550
05/22/2014  00:12:00       40.299       45.136        1.384       26.571       30.229       27.518      706.033      913.816      757.254        0.302        0.119       60.508       21.957        0.132      338.882       11.834      860.509
05/22/2014  00:13:00       94.504       50.109        8.436       41.893       29.721       29.682     1754.997      883.337      880.994        0.752        0.176      106.967       13.835        0.017      338.861       11.801      860.447
05/22/2014  00:14:00       99.861       83.852       10.453       26.960       25.403       25.217      726.861      645.296      635.889        0.956        0.100      130.397       11.906        0.008      338.821       11.734      860.392
05/22/2014  00:15:00       76.559       92.573       69.189       57.377       36.347       30.986     3292.125     1321.135      960.156        1.239        0.279      120.129       25.543        0.045      338.865       11.807      860.374
05/22/2014  00:16:00       74.411       48.244       35.743       43.498       40.859       35.584     1892.094     1669.450     1266.239        0.698        0.241       88.682       24.892        0.079      338.784       11.670      860.423
05/22/2014  00:17:00       76.410       50.695       28.126       31.712       27.989       23.047     1005.671      783.402      531.150        0.576        0.116       91.697       14.480        0.025      338.699       11.526      860.483
05/22/2014  00:18:00       68.384       54.077        8.579       37.497       37.348       30.347     1405.990     1394.876      920.923        0.570        0.186       87.182       23.671        0.074      338.677       11.492      860.539
05/22/2014  00:19:00       27.091       51.969       -0.273       32.967       41.024       25.567     1086.790     1682.975      653.687        0.343        0.171       58.606       27.000        0.212      338.695       11.520      860.577
05/22/2014  00:20:00       29.706       93.713      -11.207       27.644       43.164       27.646      764.200     1863.096      764.326        0.659        0.170       98.309       26.882        0.075      338.747       11.609      860.602
05/22/2014  00:21:00       38.465       93.522      -12.255       28.917       57.989       28.124      836.219     3362.710      790.973        0.768        0.249      101.123       27.414        0.073      338.747       11.607      860.626
05/22/2014  00:22:00       52.523       54.998        3.414       35.007       43.808       31.868     1225.502     1919.102     1015.587        0.498        0.208       76.049       29.497        0.150      338.747       11.608      860.644
05/22/2014  00:23:00       32.808       41.053       -3.925       28.794       34.010       24.241      829.083     1156.689      587.614        0.267        0.129       52.553       24.909        0.225      338.750       11.612      860.664
05/22/2014  00:24:00        8.308       40.006       -3.206       29.149       30.436       20.559      849.688      926.342      422.679        0.194        0.110       40.860       17.878        0.191      338.756       11.623      860.673
05/22/2014  00:25:00       31.147       46.285       -8.372       21.811       37.882       17.707      475.712     1435.021      313.522        0.270        0.111       55.789       21.025        0.142      338.792       11.685      860.689
05/22/2014  00:26:00       38.148       75.640       -9.265       31.413       49.491       32.759      986.799     2449.310     1073.160        0.589        0.225       84.716       27.928        0.109      338.810       11.713      860.716
05/22/2014  00:27:00       27.108       46.346        4.582       30.724       34.927       28.919      943.975     1219.902      836.309        0.295        0.150       53.692       25.047        0.218      338.823       11.734      860.741
05/22/2014  00:28:00       29.237       48.806       -2.712       26.837       24.835       22.284      720.242      616.763      496.559        0.254        0.092       56.893       19.890        0.122      338.802       11.700      860.766
05/22/2014  00:29:00       31.482       36.273       -4.583       24.176       22.096       20.311      584.498      488.233      412.550        0.191        0.074       48.030       14.525        0.091      338.805       11.704      860.776
05/22/2014  00:30:00       20.829       65.488       -6.099       34.095       42.143       28.751     1162.476     1775.993      826.621        0.426        0.188       68.721       27.870        0.164      338.828       11.743      860.776
05/22/2014  00:31:00       49.250       71.156       -1.900       29.911       46.523       34.895      894.657     2164.366     1217.635        0.588        0.214       86.538       33.690        0.152      338.839       11.761      860.762
05/22/2014  00:32:00       77.577       45.528        2.948       40.193       29.272       25.616     1615.476      856.858      656.161        0.561        0.156       89.950       18.800        0.044      338.847       11.775      860.754
05/22/2014  00:33:00       55.747       58.643        5.162       56.103       35.204       27.784     3147.567     1239.353      771.947        0.587        0.258       80.912       16.244        0.040      338.892       11.854      860.752
05/22/2014  00:34:00       67.222       92.478       -7.257       66.266       30.672       26.383     4391.240      940.770      696.050        0.957        0.301      114.329       24.397        0.046      338.872       11.819      860.776
05/22/2014  00:35:00       54.753       36.990       -4.261       33.068       26.032       25.070     1093.475      677.689      628.505        0.339        0.120       66.077       11.635        0.031      338.842       11.768      860.802
05/22/2014  00:36:00       49.944       43.224        6.683       39.508       33.840       30.463     1560.886     1145.149      927.990        0.402        0.182       66.051       17.325        0.069      338.862       11.802      860.814
05/22/2014  00:37:00       61.780       63.468        1.674       46.765       40.325       30.911     2187.008     1626.081      955.485        0.631        0.238       88.572       24.247        0.075      338.858       11.798      860.819
05/22/2014  00:38:00       46.101       81.562       -9.021       31.041       49.112       31.129      963.571     2411.977      969.000        0.660        0.217       93.689       29.915        0.102      338.867       11.812      860.813
05/22/2014  00:39:00       56.117       29.653        4.600       28.282       20.320       22.070      799.890      412.892      487.082        0.287        0.085       63.470       12.305        0.038      338.860       11.801      860.813
05/22/2014  00:40:00       24.011       41.320       -5.270       23.240       31.253       16.068      540.118      976.749      258.186        0.204        0.089       47.790       17.552        0.135      338.893       11.855      860.812
05/22/2014  00:41:00       51.857       31.817       12.004       19.636       19.173       17.250      385.587      367.609      297.550        0.245        0.053       60.840        7.905        0.017      338.877       11.827      860.805
05/22/2014  00:42:00       20.225       19.126        2.939       18.897       20.016       15.724      357.085      400.631      247.247        0.089        0.050       27.836       11.900        0.183      338.887       11.842      860.793
05/22/2014  00:43:00       58.540       35.545       16.178       35.014       26.892       13.730     1226.004      723.199      188.503        0.354        0.107       68.486       12.647        0.034      338.884       11.838      860.783
05/22/2014  00:44:00       69.893       59.012       34.705       36.565       26.003       31.141     1336.984      676.160      969.785        0.628        0.149       91.473       26.618        0.085      338.889       11.845      860.796
05/22/2014  00:45:00       63.475       11.501       18.387       63.575       35.360       33.242     4041.806     1250.298     1105.030        0.545        0.320       64.508       34.909        0.293      338.892       11.852      860.820
05/22/2014  00:46:00       89.297       32.272       -0.720       57.711       38.058       27.400     3330.514     1448.425      750.735        0.727        0.276       94.949       19.587        0.043      338.882       11.833      860.850
05/22/2014  00:47:00       66.945       32.473        8.340       25.915       24.245       21.151      671.587      587.802      447.371        0.366        0.085       74.406        7.955        0.011      338.857       11.792      860.870
05/22/2014  00:48:00       71.094       61.994        8.413       44.383       37.212       27.284     1969.858     1384.768      744.425        0.653        0.205       94.328       17.850        0.036      338.891       11.849      860.873
05/22/2014  00:49:00       60.671       40.171       12.693       29.402       28.140       23.741      864.462      791.835      563.655        0.384        0.111       72.765        8.976        0.015      338.882       11.833      860.869
05/22/2014  00:50:00       52.097       31.721        7.491       30.557       18.904       16.020      933.756      357.380      256.639        0.266        0.077       60.995       15.617        0.066      338.851       11.784      860.863
05/22/2014  00:51:00       38.236       25.203       15.968       18.830       13.539       17.824      354.563      183.298      317.707        0.160        0.043       45.794        6.332        0.019      338.844       11.773      860.878
05/22/2014  00:52:00       53.339       35.289        8.067       11.503       16.661       10.588      132.311      277.587      112.099        0.234        0.026       63.956        3.267        0.003      338.855       11.790      860.899
05/22/2014  00:53:00       47.621        2.732       -5.456       10.896       11.146       12.753      118.721      124.226      162.643        0.136        0.020       47.699        4.607        0.009      338.926       11.912      860.925
05/22/2014  00:54:00       27.523       12.915       -0.793       10.560        8.722       14.404      111.506       76.077      207.489        0.066        0.020       30.403        3.483        0.013      338.939       11.933      860.937
05/22/2014  00:55:00        8.948       20.358       -9.162        9.298        8.816        5.962       86.444       77.722       35.546        0.039        0.010       22.238        3.342        0.023      338.904       11.871      860.937
05/22/2014  00:56:00       10.480       18.129       -9.817        9.948        9.193        8.240       98.968       84.518       67.905        0.039        0.013       20.940        5.964        0.081      338.937       11.931      860.939
05/22/2014  00:57:00       11.333       19.475       -4.710        9.103        8.504        8.874       82.861       72.323       78.751        0.038        0.012       22.533        2.343        0.011      338.965       11.975      860.935
05/22/2014  00:58:00       15.726       43.065       -7.560       11.140       17.040        7.130      124.097      290.365       50.830        0.131        0.023       45.847        7.835        0.029      338.948       11.948      860.924
05/22/2014  00:59:00        0.337       42.685       -9.601        9.186       12.094        6.891       84.383      146.258       47.487        0.110        0.014       42.686        5.963        0.020      338.979       11.999      860.919
05/22/2014  01:00:00       -2.008       13.135       -8.401        7.403       20.936        6.988       54.802      438.335       48.828        0.039        0.027       13.287        6.216        0.219      338.986       12.012      860.914
05/22/2014  01:01:00       -1.399       -6.756      -12.331       13.040        7.442        9.785      170.051       55.382       95.747        0.026        0.016        6.899        3.310        0.230      339.042       12.102      860.921
05/22/2014  01:02:00       -9.931      -13.152       -5.069       11.438       11.880        7.296      130.831      141.139       53.229        0.031        0.016       16.480        5.573        0.114      339.065       12.145      860.922
05/22/2014  01:03:00      -22.984        3.700       -8.640       13.037       14.953       15.063      169.963      223.599      226.882        0.062        0.031       23.279       11.110        0.228      339.128       12.250      860.924
05/22/2014  01:04:00      -45.184        2.322        1.937       36.501       21.851       13.648     1332.316      477.464      186.281        0.202        0.100       45.243       15.162        0.112      339.299       12.538      860.918
05/22/2014  01:05:00      -78.149       -3.979       -2.563       36.303       24.106       19.203     1317.920      581.091      368.774        0.420        0.113       78.250       18.360        0.055      339.408       12.719      860.903
05/22/2014  01:06:00     -111.208      -34.837      -12.690       26.201       21.467       14.296      686.476      460.847      204.387        0.755        0.068      116.537       11.779        0.010      339.156       12.297      860.886
05/22/2014  01:07:00     -113.186      -46.253       -8.295       15.117       19.213       14.493      228.538      369.154      210.061        0.791        0.040      122.272       10.575        0.007      339.009       12.047      860.881
05/22/2014  01:08:00     -101.796      -45.482       -8.841       22.802       16.505       14.718      519.938      272.407      216.608        0.676        0.050      111.495        7.496        0.005      338.989       12.016      860.891
05/22/2014  01:09:00      -83.511      -26.340       -6.022       26.997       20.674       15.886      728.832      427.429      252.351        0.456        0.070       87.567       13.123        0.022      338.998       12.031      860.901
05/22/2014  01:10:00      -55.420      -39.291       -9.363       27.466       13.426        9.728      754.355      180.266       94.635        0.287        0.051       67.935        4.460        0.004      339.023       12.073      860.899
05/22/2014  01:11:00      -29.638      -25.851       -4.503       24.996       17.544       16.425      624.785      307.803      269.783        0.138        0.060       39.327       18.262        0.216      339.070       12.150      860.891
05/22/2014  01:12:00      -38.533      -42.460       -1.195       20.756       17.715       11.702      430.801      313.834      136.946        0.209        0.044       57.338       10.017        0.031      339.040       12.102      860.873
05/22/2014  01:13:00      -54.324      -42.313       -5.117       10.374       11.890        9.667      107.611      141.383       93.450        0.255        0.017       68.858        6.786        0.010      338.992       12.020      860.855
05/22/2014  01:14:00      -68.752      -32.794       -8.416        8.082       10.225        6.360       65.326      104.554       40.452        0.304        0.011       76.173        3.362        0.002      338.974       11.987      860.842
05/22/2014  01:15:00      -66.516      -41.257        0.422       18.390       19.601        9.538      338.195      384.190       90.973        0.347        0.041       78.272        7.354        0.009      338.990       12.018      860.823
05/22/2014  01:16:00      -69.328      -58.150        2.410       35.934       17.937       20.184     1291.279      321.742      407.386        0.511        0.101       90.486       16.472        0.033      339.043       12.106      860.792
05/22/2014  01:17:00     -110.597      -60.942        0.232       34.911       28.417       19.497     1218.747      807.508      380.147        0.918        0.120      126.276       21.077        0.028      338.921       11.900      860.751
05/22/2014  01:18:00     -104.387      -31.818       -5.429       35.909       24.419       14.729     1289.435      596.276      216.942        0.702        0.105      109.129       15.820        0.021      338.915       11.890      860.708
05/22/2014  01:19:00      -94.446      -62.268        2.672       50.152       27.846       16.567     2515.208      775.377      274.465        0.818        0.178      113.125       21.311        0.035      338.951       11.951      860.689
05/22/2014  01:20:00     -102.030      -70.520        0.359       48.966       30.498       22.764     2397.700      930.102      518.220        0.961        0.192      124.029       25.412        0.042      338.920       11.899      860.684
05/22/2014  01:21:00     -131.840      -44.652        0.430       34.979       25.138       20.524     1223.520      631.896      421.221        1.083        0.114      139.196       22.399        0.026      338.874       11.821      860.693
05/22/2014  01:22:00      -73.455      -48.472       -1.863       39.576       34.792       21.702     1566.285     1210.459      470.975        0.550        0.162       88.007       18.395        0.044      338.914       11.890      860.689
05/22/2014  01:23:00      -84.070      -49.223       -4.224       47.361       25.158       16.203     2243.057      632.934      262.548        0.632        0.157       97.421       17.879        0.034      338.935       11.922      860.696
05/22/2014  01:24:00     -107.899      -67.555       -4.971       46.596       22.154       20.543     2171.160      490.800      422.033        0.966        0.154      127.303       19.485        0.023      338.936       11.926      860.691
05/22/2014  01:25:00      -81.230      -39.901       -4.591       37.624       23.802       19.859     1415.559      566.523      394.375        0.529        0.119       90.501       15.186        0.028      338.881       11.831      860.664
05/22/2014  01:26:00      -69.693      -41.380        1.723       32.549       23.295       17.818     1059.412      542.650      317.486        0.425        0.096       81.052       15.215        0.035      338.929       11.913      860.676
05/22/2014  01:27:00      -74.868      -45.026       -0.378       31.099       27.328       20.375      967.119      746.834      415.125        0.488        0.106       87.364       19.704        0.051      338.946       11.944      860.701
05/22/2014  01:28:00     -119.159      -62.688       -0.367       27.431       24.218       13.836      752.481      586.492      191.428        0.983        0.077      134.642       12.687        0.009      338.908       11.881      860.705
05/22/2014  01:29:00     -120.614      -61.303       -3.421       44.743       26.877       19.926     2001.923      722.385      397.056        1.072        0.156      135.299       20.335        0.023      338.880       11.831      860.684
05/22/2014  01:30:00     -104.686      -64.921        4.150       47.923       33.463       24.366     2296.594     1119.765      593.689        0.960        0.201      123.182       26.316        0.046      338.904       11.872      860.679
05/22/2014  01:31:00      -99.575      -57.098       -1.658       19.481       23.056       17.610      379.500      531.589      310.101        0.720        0.061      114.784       12.843        0.013      338.870       11.814      860.708
05/22/2014  01:32:00      -67.223      -42.178       -0.492       37.976       21.620       15.971     1442.210      467.438      255.078        0.423        0.108       79.360       20.138        0.064      338.887       11.843      860.712
05/22/2014  01:33:00      -83.747      -39.315       -0.784       44.751       28.873       25.803     2002.676      833.667      665.770        0.603        0.175       92.517       26.892        0.084      338.820       11.730      860.686
05/22/2014  01:34:00      -56.439      -78.172        8.487       45.652       50.805       27.407     2084.101     2581.159      751.159        0.739        0.271       96.417       27.448        0.081      338.907       11.877      860.645
05/22/2014  01:35:00      -90.482      -70.962       10.650       68.686       54.710       30.937     4717.768     2993.173      957.100        1.100        0.433      114.990       32.051        0.078      338.868       11.812      860.621
05/22/2014  01:36:00     -149.174     -103.692       -2.955       58.539       44.441       29.682     3426.805     1975.035      881.013        1.965        0.314      181.672       32.232        0.031      338.830       11.746      860.595
05/22/2014  01:37:00     -178.406     -122.489       -5.577       54.235       73.445       30.585     2941.479     5394.154      935.445        2.807        0.464      216.407       31.582        0.021      338.775       11.653      860.560
05/22/2014  01:38:00     -179.755      -90.636       -0.014       72.074       53.757       38.412     5194.649     2889.808     1475.444        2.504        0.478      201.312       35.384        0.031      338.751       11.613      860.554
05/22/2014  01:39:00      -98.339      -56.376        3.043       67.446       57.228       34.222     4548.962     3275.081     1171.163        1.092        0.450      113.352       34.244        0.091      338.755       11.622      860.582
05/22/2014  01:40:00     -100.094      -98.212       -7.634       55.907       28.847       27.848     3125.642      832.161      775.520        1.223        0.237      140.230       31.871        0.052      338.716       11.558      860.612
05/22/2014  01:41:00      -76.439      -57.646       -5.859       48.548       26.810       22.502     2356.868      718.759      506.353        0.639        0.179       95.739       18.942        0.039      338.743       11.600      860.625
05/22/2014  01:42:00      -35.113      -47.714        4.714       28.387       21.756       18.186      805.842      473.309      330.748        0.257        0.080       59.242       12.158        0.042      338.789       11.679      860.604
05/22/2014  01:43:00      -43.791     -121.672        0.330       38.415       46.571       20.731     1475.706     2168.822      429.784        1.040        0.204      129.312       18.139        0.020      338.754       11.620      860.590
05/22/2014  01:44:00     -103.536     -114.522       -2.425       67.181       57.877       31.556     4513.258     3349.694      995.757        1.635        0.443      154.386       39.989        0.067      338.708       11.543      860.586
05/22/2014  01:45:00      -58.496      -81.929        5.132       46.297       89.404       26.672     2143.385     7993.027      711.403        1.050        0.542      100.668       40.849        0.165      338.706       11.541      860.588
05/22/2014  01:46:00      -32.452      -21.519       14.337       49.499       35.701       26.048     2450.173     1274.538      678.481        0.306        0.220       38.938       25.638        0.434      338.756       11.625      860.606
05/22/2014  01:47:00      -69.860      -29.568        0.138       37.389       31.130       22.430     1397.901      969.083      503.104        0.431        0.144       75.860       14.866        0.038      338.749       11.611      860.611
05/22/2014  01:48:00      -22.373      -11.641       10.035       25.318       20.395       18.423      641.005      415.950      339.402        0.107        0.070       25.220       12.199        0.234      338.841       11.766      860.611
05/22/2014  01:49:00      -33.815      -21.436        0.107       19.918       20.776       16.152      396.717      431.638      260.896        0.135        0.054       40.037       13.368        0.111      338.808       11.710      860.629
05/22/2014  01:50:00       -2.856       23.662       -3.464       30.838       19.826       15.485      950.972      393.072      239.779        0.108        0.079       23.833        4.179        0.031      338.751       11.613      860.646
05/22/2014  01:51:00       10.713       24.166        0.856       19.477       24.536       12.673      379.346      602.039      160.601        0.092        0.057       26.434       12.193        0.213      338.730       11.581      860.668
05/22/2014  01:52:00        5.418       31.117        1.251       17.912       22.270       13.421      320.830      495.947      180.117        0.100        0.050       31.585       10.621        0.113      338.715       11.553      860.694
05/22/2014  01:53:00       28.897       42.755       -7.815       19.260       18.074       14.704      370.963      326.677      216.215        0.182        0.046       51.604       10.311        0.040      338.694       11.520      860.715
05/22/2014  01:54:00       13.407        0.835       14.659       15.745       12.642       11.573      247.917      159.821      133.936        0.047        0.027       13.433        5.975        0.198      338.708       11.542      860.730
05/22/2014  01:55:00      -50.554      -11.761      -13.146       15.903       12.127        5.480      252.900      147.065       30.032        0.165        0.021       51.904        4.699        0.008      338.698       11.528      860.728
05/22/2014  01:56:00      -60.348      -29.458       -9.495       10.310       13.514        9.964      106.305      182.640       99.287        0.249        0.019       67.154        4.652        0.005      338.724       11.571      860.729
05/22/2014  01:57:00      -51.740      -26.846       -5.082       24.680        8.760       11.269      609.115       76.744      126.987        0.212        0.041       58.290       14.925        0.066      338.672       11.483      860.761
05/22/2014  01:58:00      -16.823        3.841       -0.762        4.635       10.658        5.689       21.487      113.586       32.360        0.023        0.008       17.256        2.862        0.028      338.720       11.562      860.799
05/22/2014  01:59:00      -12.455       17.441       -3.816       10.580        8.494       15.965      111.939       72.150      254.896        0.046        0.022       21.432        9.111        0.181      338.756       11.624      860.804
05/22/2014  02:00:00       24.232       24.069        7.257       12.156       13.862       13.356      147.765      192.148      178.383        0.087        0.026       34.154        8.450        0.061      338.756       11.624      860.785
05/22/2014  02:01:00        3.792       24.890       30.914       10.763       15.127       12.682      115.835      228.812      160.822        0.105        0.025       25.178        7.702        0.094      338.763       11.637      860.751
05/22/2014  02:02:00       25.689       31.516       12.898       16.492        8.594       14.647      271.975       73.862      214.533        0.119        0.028       40.659       12.034        0.088      338.666       11.472      860.748
05/22/2014  02:03:00       13.827       26.153       -5.775       12.036        8.711        4.288      144.869       75.886       18.383        0.057        0.012       29.583        1.760        0.004      338.669       11.475      860.754
05/22/2014  02:04:00      -17.960        7.064       -0.025       22.757       17.157        8.606      517.872      294.347       74.068        0.063        0.044       19.300        7.875        0.166      338.721       11.565      860.747
05/22/2014  02:05:00      -69.231        3.993       -5.210       27.212       29.738       14.630      740.490      884.342      214.052        0.334        0.092       69.346       10.895        0.025      338.930       11.917      860.718
05/22/2014  02:06:00     -111.582      -14.125      -11.411       26.686       20.398       20.082      712.121      416.092      403.298        0.716        0.077      112.472       18.859        0.028      338.836       11.758      860.700
05/22/2014  02:07:00     -119.210      -34.562      -12.969       21.660       20.724       12.246      469.160      429.486      149.964        0.831        0.052      124.119        9.139        0.005      338.659       11.462      860.678
05/22/2014  02:08:00      -86.507       -2.458       -3.247       45.312       36.449       21.648     2053.160     1328.537      468.622        0.567        0.193       86.542       22.033        0.065      338.797       11.693      860.663
05/22/2014  02:09:00     -120.581       -3.995      -14.376       36.903       27.213       17.038     1361.841      740.540      290.298        0.858        0.120      120.647       16.180        0.018      338.756       11.625      860.646
05/22/2014  02:10:00      -73.761      -25.011        0.299       33.591       35.425       24.244     1128.337     1254.960      587.776        0.452        0.149       77.886       21.825        0.079      338.688       11.510      860.639
05/22/2014  02:11:00     -113.559      -25.131      -13.404       26.372       31.531       18.307      695.503      994.189      335.139        0.787        0.101      116.307       13.112        0.013      338.573       11.316      860.650
05/22/2014  02:12:00      -64.111      -37.341       -5.203       37.192       22.177       14.715     1383.224      491.834      216.541        0.381        0.105       74.193       14.961        0.041      338.633       11.417      860.659
05/22/2014  02:13:00      -63.418      -63.931        0.541       48.266       24.531       26.525     2329.653      601.778      703.553        0.587        0.182       90.050       29.682        0.109      338.559       11.293      860.662
05/22/2014  02:14:00      -69.512      -28.397       -1.533       26.841       25.109       20.307      720.437      630.474      412.385        0.370        0.088       75.089       18.301        0.059      338.533       11.249      860.680
05/22/2014  02:15:00      -20.084      -38.312       -4.291       23.762       16.003        9.487      564.619      256.088       90.011        0.140        0.046       43.258        9.611        0.049      338.618       11.391      860.706
05/22/2014  02:16:00      -36.728      -13.237       -3.370       29.500       30.140       12.386      870.268      908.405      153.402        0.173        0.097       39.040       13.304        0.116      338.642       11.432      860.728
05/22/2014  02:17:00      -70.952       -9.463      -11.140       40.461       28.457       19.761     1637.065      809.781      390.500        0.404        0.142       71.580       24.533        0.117      338.758       11.626      860.719
05/22/2014  02:18:00      -80.132      -10.414       -9.061       30.957       23.982       23.738      958.366      575.114      563.475        0.435        0.105       80.806       21.738        0.072      338.706       11.539      860.709
05/22/2014  02:19:00      -81.296       -7.116      -12.091       21.894       15.249       11.080      479.348      232.520      122.772        0.382        0.042       81.607        9.090        0.012      338.616       11.390      860.730
05/22/2014  02:20:00      -32.105       37.828       -6.026       15.702       22.512       12.155      246.555      506.772      147.749        0.170        0.045       49.616        9.920        0.040      338.591       11.346      860.775
05/22/2014  02:21:00       23.054      119.953      -21.085       19.820       28.464       10.171      392.836      810.176      103.457        0.834        0.065      122.148       12.236        0.010      338.527       11.241      860.839
05/22/2014  02:22:00       30.350       94.338      -20.351       28.005       36.143       20.592      784.293     1306.286      424.050        0.637        0.126       99.100       14.407        0.021      338.529       11.242      860.884
05/22/2014  02:23:00       43.913       56.414       -9.873       38.311       44.084       27.266     1467.734     1943.362      743.443        0.468        0.208       71.491       24.313        0.116      338.532       11.246      860.882
05/22/2014  02:24:00       31.600       61.714       -7.799       24.060       42.342       22.521      578.884     1792.867      507.192        0.387        0.144       69.334       26.436        0.145      338.518       11.227      860.850
05/22/2014  02:25:00      -24.832       76.264      -15.028       47.432       32.506       14.564     2249.756     1056.627      212.112        0.509        0.176       80.205        9.031        0.013      338.654       11.452      860.801
05/22/2014  02:26:00     -101.958        4.807      -13.186       26.381       26.439       18.341      695.944      699.040      336.374        0.616        0.087      102.071       10.971        0.012      338.772       11.651      860.771
05/22/2014  02:27:00     -115.065      -23.335      -11.730       30.060       27.428       15.236      903.584      752.314      232.145        0.790        0.094      117.407       14.810        0.016      338.719       11.562      860.778
05/22/2014  02:28:00     -111.100      -24.293      -10.787       31.643       31.279       19.098     1001.307      978.380      364.735        0.770        0.117      113.725       16.129        0.020      338.681       11.498      860.787
05/22/2014  02:29:00      -90.873      -16.420       -8.342       25.982       21.437       13.264      675.084      459.555      175.939        0.495        0.066       92.344        9.796        0.011      338.749       11.611      860.792
05/22/2014  02:30:00     -113.734      -31.973      -24.431       17.630       24.956       16.352      310.824      622.820      267.392        0.788        0.060      118.143       10.022        0.007      338.661       11.465      860.769
05/22/2014  02:31:00      -88.847      -39.170       -9.280       35.208       28.256       20.428     1239.623      798.392      417.300        0.598        0.123       97.098       13.812        0.020      338.666       11.473      860.738
05/22/2014  02:32:00      -69.415      -18.237       -4.177       53.663       26.368       22.580     2879.697      695.264      509.868        0.463        0.204       71.770       25.958        0.131      338.657       11.457      860.727
05/22/2014  02:33:00      -59.112      -35.161       -5.245       56.531       32.044       22.771     3195.718     1026.795      518.508        0.475        0.237       68.778       29.234        0.181      338.652       11.449      860.718
05/22/2014  02:34:00      -46.119      -27.626        5.323       44.726       29.056       16.084     2000.421      844.228      258.689        0.301        0.155       53.760       19.313        0.129      338.687       11.507      860.718
05/22/2014  02:35:00       -0.588      -12.033       -6.039       29.470       28.202       15.642      868.472      795.336      244.659        0.104        0.095       12.047       13.963        1.343      338.681       11.497      860.721
05/22/2014  02:36:00        8.417      -29.800        7.403       26.017       17.295       13.750      676.880      299.112      189.063        0.109        0.058       30.966       13.364        0.186      338.792       11.683      860.736
05/22/2014  02:37:00       -7.506      -23.447       13.112       17.432       16.014        8.525      303.863      256.456       72.667        0.071        0.032       24.619        6.738        0.075      338.778       11.661      860.743
05/22/2014  02:38:00       -5.374        5.678       14.131        6.793       13.807        7.763       46.146      190.629       60.259        0.028        0.015        7.818        3.439        0.194      338.768       11.643      860.747
05/22/2014  02:39:00       12.496       23.408       24.338       19.636       12.753       12.459      385.585      162.634      155.231        0.100        0.035       26.535        6.649        0.063      338.727       11.576      860.749
05/22/2014  02:40:00       36.155       46.643       24.161       27.920       20.575       19.708      779.521      423.349      388.414        0.283        0.080       59.015        7.490        0.016      338.705       11.538      860.768
05/22/2014  02:41:00       25.412       29.366       39.963       40.160       21.678       22.833     1612.788      469.941      521.356        0.285        0.130       38.835       19.277        0.246      338.661       11.464      860.794
05/22/2014  02:42:00       52.628       26.720       27.804       38.429       26.661       27.146     1476.809      710.833      736.927        0.359        0.146       59.023       22.857        0.150      338.564       11.302      860.822
05/22/2014  02:43:00       84.277       46.159        9.191       26.959       24.991       19.240      726.810      624.557      370.187        0.552        0.086       96.090        8.903        0.009      338.472       11.146      860.836
05/22/2014  02:44:00       59.032       25.466        9.823       31.020       20.270       17.187      962.262      410.870      295.408        0.295        0.083       64.290       15.903        0.061      338.478       11.157      860.825
05/22/2014  02:45:00       28.306       24.584       23.036       25.702       13.437       15.242      660.594      180.551      232.329        0.150        0.054       37.491       14.982        0.160      338.569       11.309      860.791
05/22/2014  02:46:00        1.487       14.013       26.386        9.660       12.179        8.029       93.311      148.337       64.468        0.060        0.015       14.092        8.491        0.363      338.639       11.426      860.772
05/22/2014  02:47:00        1.898       16.058       23.067        5.797       11.296        3.718       33.604      127.604       13.823        0.048        0.009       16.170        5.266        0.106      338.663       11.466      860.780
05/22/2014  02:48:00       -8.264        7.068       14.792        7.466        7.388        7.784       55.748       54.577       60.591        0.025        0.009       10.874        1.666        0.023      338.722       11.567      860.804
05/22/2014  02:49:00      -20.780       -3.276       -0.363       10.989       15.912        9.501      120.748      253.180       90.266        0.045        0.023       21.036        6.246        0.088      338.781       11.665      860.832
05/22/2014  02:50:00      -46.518       -2.284       -1.082       14.214       13.629        9.685      202.027      185.756       93.805        0.133        0.024       46.574        8.931        0.037      338.740       11.596      860.854
05/22/2014  02:51:00       -2.597      -13.486       14.166       17.927       11.341        9.763      321.362      128.610       95.311        0.047        0.027       13.734       11.039        0.646      338.824       11.736      860.879
05/22/2014  02:52:00      -32.114      -11.992        1.323       18.747        9.330        9.446      351.459       87.048       89.230        0.085        0.026       34.280       11.803        0.119      338.790       11.681      860.899
05/22/2014  02:53:00      -46.511      -26.720       -5.437        8.180       12.520        8.898       66.910      156.749       79.170        0.160        0.015       53.640        5.516        0.011      338.731       11.582      860.915
05/22/2014  02:54:00      -68.907      -14.224       -9.601       19.794       14.854       14.346      391.813      220.638      205.801        0.293        0.041       70.360       11.148        0.025      338.913       11.888      860.929
05/22/2014  02:55:00      -99.090      -24.606       -1.127       29.595       27.269       15.429      875.870      743.587      238.052        0.614        0.093      102.099       16.205        0.025      338.841       11.765      860.923
05/22/2014  02:56:00     -137.825      -63.644       -3.993       29.569       16.227       12.781      874.353      263.320      163.355        1.218        0.065      151.810       12.734        0.007      338.748       11.609      860.893
05/22/2014  02:57:00     -131.836      -51.028        4.920       42.720       31.721       22.667     1824.957     1006.231      513.811        1.168        0.167      141.367       22.681        0.026      338.755       11.623      860.858
05/22/2014  02:58:00      -92.404      -34.960        1.052       29.384       29.777       21.587      863.420      886.681      466.018        0.599        0.111       98.796       14.086        0.020      338.782       11.667      860.848
05/22/2014  02:59:00      -79.250      -27.213        2.349       48.477       33.350       21.641     2350.044     1112.195      468.313        0.548        0.197       83.793       23.195        0.077      338.863       11.803      860.861
05/22/2014  03:00:00     -124.266      -35.552       -4.092       52.852       32.883       24.299     2793.322     1081.293      590.440        1.059        0.223      129.252       27.716        0.046      338.805       11.707      860.866
05/22/2014  03:01:00     -121.414      -38.463       -2.346       51.389       32.484       22.145     2640.797     1055.208      490.389        1.021        0.209      127.361       17.002        0.018      338.734       11.587      860.867
05/22/2014  03:02:00     -147.513      -60.829        5.678       41.866       30.857       21.800     1752.775      952.134      475.233        1.434        0.159      159.562       22.241        0.019      338.715       11.554      860.851
05/22/2014  03:03:00     -137.375      -50.389        2.662       38.680       24.081       19.407     1496.108      579.912      376.640        1.193        0.123      146.325       18.675        0.016      338.705       11.538      860.849
05/22/2014  03:04:00     -116.800      -37.416       -3.082       35.483       27.549       23.175     1259.039      758.955      537.087        0.880        0.128      122.646       20.981        0.029      338.705       11.537      860.866
05/22/2014  03:05:00      -72.442      -38.340       -2.135       32.306       22.312       13.715     1043.682      497.835      188.098        0.423        0.086       81.962       14.388        0.031      338.743       11.602      860.876
05/22/2014  03:06:00      -40.516      -26.814        2.960       26.602       26.219       19.800      707.650      687.462      392.059        0.208        0.089       48.585       19.371        0.159      338.818       11.727      860.881
05/22/2014  03:07:00      -44.906      -36.857       -3.580       24.107       21.147       15.300      581.157      447.190      234.087        0.232        0.063       58.095       13.356        0.053      338.855       11.790      860.884
05/22/2014  03:08:00      -53.350      -24.706       -4.379       25.016       12.239        8.069      625.784      149.781       65.113        0.216        0.042       58.793        8.287        0.020      338.772       11.648      860.898
05/22/2014  03:09:00      -48.673      -38.295       -7.384       16.422       16.523       14.231      269.669      272.998      202.534        0.232        0.037       61.932        7.823        0.016      338.864       11.804      860.906
05/22/2014  03:10:00      -81.963      -35.198       -4.420       12.569       14.029       10.138      157.971      196.823      102.784        0.422        0.023       89.201        4.627        0.003      338.825       11.740      860.914
05/22/2014  03:11:00      -64.275      -45.708        2.471       26.772       17.202       15.870      716.754      295.908      251.856        0.375        0.063       78.870       16.304        0.043      338.800       11.698      860.905
05/22/2014  03:12:00      -83.272      -37.327       -3.023       25.189       17.389       14.966      634.465      302.377      223.989        0.475        0.058       91.255       15.835        0.030      338.767       11.642      860.906
05/22/2014  03:13:00      -66.607      -29.899        0.352       31.645       21.656       17.249     1001.402      468.970      297.540        0.355        0.088       73.010       18.400        0.064      338.785       11.672      860.923
05/22/2014  03:14:00      -88.391      -18.670       -6.003       23.401       23.691       12.257      547.602      561.258      150.236        0.473        0.063       90.341        9.181        0.010      338.798       11.694      860.942
05/22/2014  03:15:00     -100.494      -31.548       -5.186       34.367       25.576       15.553     1181.057      654.124      241.910        0.660        0.104      105.330        8.257        0.006      338.780       11.664      860.942
05/22/2014  03:16:00      -97.805      -30.362        2.009       39.778       24.420       16.226     1582.277      596.341      263.282        0.647        0.122      102.409       17.805        0.030      338.724       11.570      860.927
05/22/2014  03:17:00      -74.692       -1.937       -6.705       35.239       30.029       19.427     1241.799      901.716      377.399        0.407        0.126       74.717       19.649        0.069      338.828       11.745      860.936
05/22/2014  03:18:00      -42.767       -5.122        4.503       29.898       19.478       16.695      893.865      379.385      278.727        0.171        0.078       43.072       16.312        0.143      338.818       11.728      860.951
05/22/2014  03:19:00      -81.736      -22.412       -8.390       15.805       18.391       12.785      249.813      338.234      163.447        0.400        0.038       84.754        3.794        0.002      338.722       11.566      860.948
05/22/2014  03:20:00      -58.872      -13.409       -2.551       22.373       19.110       14.233      500.557      365.180      202.568        0.236        0.053       60.380       11.655        0.037      338.914       11.890      860.938
05/22/2014  03:21:00     -110.513       21.297      -21.592       20.845       19.483       11.247      434.501      379.599      126.492        0.704        0.047      112.547        8.229        0.005      338.644       11.436      860.921
05/22/2014  03:22:00      -62.702       -6.654        0.882       30.281       21.206       15.633      916.935      449.675      244.402        0.279        0.081       63.054       11.634        0.034      338.578       11.326      860.916
05/22/2014  03:23:00      -70.434      -11.227       -6.340       37.040       23.521       15.039     1371.944      553.257      226.185        0.364        0.108       71.323       17.708        0.062      338.743       11.602      860.915
05/22/2014  03:24:00      -86.297       16.893       -1.845       34.321       27.524       20.834     1177.942      757.594      434.046        0.505        0.118       87.935       19.015        0.047      339.022       12.072      860.918
05/22/2014  03:25:00     -116.139      -10.824      -14.722       16.546       20.196       15.445      273.784      407.859      238.556        0.737        0.046      116.643        9.879        0.007      338.677       11.489      860.912
05/22/2014  03:26:00      -91.041      -18.846       -3.099       32.968       21.388       14.578     1086.869      457.428      212.508        0.520        0.088       92.971       14.259        0.024      338.673       11.484      860.911
05/22/2014  03:27:00      -94.270      -35.986       -9.724       19.386       19.075       13.694      375.824      363.838      187.539        0.560        0.046      100.905        8.481        0.007      338.655       11.456      860.909
05/22/2014  03:28:00      -67.826      -38.736       -0.474       26.375       19.642       14.608      695.614      385.793      213.380        0.370        0.065       78.108       13.061        0.028      338.678       11.493      860.910
05/22/2014  03:29:00      -14.456      -34.760        5.909       17.225       15.931        9.601      296.696      253.801       92.183        0.105        0.032       37.646        7.984        0.045      338.782       11.667      860.902
05/22/2014  03:30:00       -4.863      -16.057       14.852        9.093       15.248        9.197       82.679      232.512       84.578        0.045        0.020       16.778        7.109        0.180      338.836       11.756      860.889
05/22/2014  03:31:00      -43.024      -17.282       -3.005       27.308       14.155       14.259      745.709      200.364      203.313        0.165        0.057       46.366       15.656        0.114      338.802       11.701      860.895
05/22/2014  03:32:00      -58.287      -17.341       -4.973       16.437       11.712       11.084      270.166      137.163      122.858        0.213        0.027       60.812        5.429        0.008      338.759       11.628      860.902
05/22/2014  03:33:00      -85.097      -14.946      -11.644       13.652       12.029        8.610      186.377      144.698       74.132        0.400        0.020       86.400        4.863        0.003      338.733       11.585      860.910
05/22/2014  03:34:00      -77.754      -10.283       -5.935       24.753       18.336       15.990      612.728      336.206      255.688        0.370        0.060       78.431       16.435        0.044      338.838       11.762      860.911
05/22/2014  03:35:00      -92.865      -19.102       -6.470       15.889       16.307       14.222      252.466      265.915      202.259        0.488        0.036       94.809        8.568        0.008      338.719       11.562      860.913
05/22/2014  03:36:00      -69.623      -28.592      -12.627       19.111       23.985       12.763      365.244      575.263      162.882        0.346        0.055       75.265        8.707        0.013      338.760       11.631      860.910
05/22/2014  03:37:00      -65.994      -11.561       -2.384       20.038       15.566        9.770      401.519      242.293       95.460        0.262        0.037       66.999        7.276        0.012      338.754       11.621      860.919
05/22/2014  03:38:00      -40.083      -30.073       -0.575       21.503       13.984       12.536      462.400      195.551      157.147        0.166        0.041       50.110        4.658        0.009      338.837       11.761      860.937
05/22/2014  03:39:00      -17.344      -53.757       -4.626        9.350       12.729        9.444       87.414      162.038       89.195        0.178        0.017       56.486        4.829        0.007      338.850       11.780      860.947
05/22/2014  03:40:00       -8.089      -45.665        1.968       19.936       15.765       14.003      397.431      248.535      196.078        0.150        0.042       46.376        6.329        0.019      338.872       11.817      860.957
05/22/2014  03:41:00      -44.556      -13.478       -6.884       22.320        7.439        7.627      498.170       55.336       58.172        0.141        0.031       46.550        6.720        0.021      338.815       11.720      860.957
05/22/2014  03:42:00      -66.060      -33.141       -3.304       19.503       21.499       14.641      380.374      462.192      214.370        0.326        0.053       73.907       13.075        0.031      338.845       11.773      860.949
05/22/2014  03:43:00      -19.082      -35.125        4.928       28.863       22.788       18.865      833.047      519.301      355.871        0.166        0.085       39.973       19.582        0.240      338.887       11.844      860.952
05/22/2014  03:44:00      -19.407      -22.203       10.497       30.667       18.040       14.796      940.466      325.439      218.935        0.123        0.074       29.489       16.181        0.301      338.895       11.857      860.956
05/22/2014  03:45:00      -56.539      -40.585        1.210       37.464       21.582       17.806     1403.544      465.797      317.068        0.352        0.109       69.597       17.771        0.065      338.858       11.795      860.966
05/22/2014  03:46:00      -90.288      -35.287       -6.510       28.042       22.397       16.801      786.346      501.641      282.281        0.550        0.079       96.939       16.930        0.031      338.816       11.725      860.971
05/22/2014  03:47:00      -86.690      -21.429       -0.493       35.140       23.920       19.893     1234.826      572.155      395.717        0.509        0.110       89.299       21.392        0.057      338.799       11.695      860.971
05/22/2014  03:48:00     -116.723      -11.954        2.483       55.660       35.782       24.877     3098.081     1280.323      618.864        0.938        0.250      117.333       24.580        0.044      338.659       11.460      860.975
05/22/2014  03:49:00     -149.540      -35.835       -5.148       54.198       26.422       22.235     2937.372      698.106      494.409        1.390        0.206      153.774       26.302        0.029      338.602       11.365      860.989
05/22/2014  03:50:00     -120.272      -58.255       -0.481       40.265       37.106       24.959     1621.291     1376.841      622.942        1.074        0.181      133.638       20.676        0.024      338.577       11.323      860.995
05/22/2014  03:51:00     -143.498      -49.649       -4.008       42.821       32.413       20.270     1833.642     1050.577      410.858        1.318        0.165      151.844       18.070        0.014      338.601       11.364      861.010
05/22/2014  03:52:00     -124.598      -31.685       -1.226       46.910       31.065       21.389     2200.556      965.038      457.469        1.008        0.181      128.564       22.582        0.031      338.583       11.334      861.016
05/22/2014  03:53:00     -124.012      -66.463        0.295       33.853       38.981       23.823     1146.058     1519.531      567.527        1.151        0.162      140.700       15.687        0.012      338.588       11.342      861.003
05/22/2014  03:54:00      -94.022      -38.506        9.704       61.925       38.427       26.181     3834.703     1476.649      685.434        0.821        0.300      101.601       28.521        0.079      338.608       11.375      860.982
05/22/2014  03:55:00      -52.455      -30.543        1.750       37.700       24.383       14.360     1421.294      594.549      206.220        0.295        0.111       60.700       16.137        0.071      338.693       11.517      861.002
05/22/2014  03:56:00      -93.853        1.883      -10.644       31.409       20.953       12.310      986.496      439.030      151.532        0.525        0.079       93.872       10.925        0.014      338.604       11.367      861.020
05/22/2014  03:57:00      -90.763      -18.907       -8.937       39.256       27.197       18.679     1541.051      739.679      348.910        0.565        0.131       92.711       20.011        0.047      338.645       11.437      861.025
05/22/2014  03:58:00      -65.931      -40.284       -2.513       24.493       20.108       12.254      599.924      404.343      150.164        0.357        0.058       77.264        7.786        0.010      338.665       11.470      861.014
05/22/2014  03:59:00      -27.890      -18.685        2.485       25.451       19.224       16.588      647.730      369.560      275.177        0.121        0.065       33.571        9.575        0.081      338.722       11.567      861.004
05/22/2014  04:00:00      -49.087      -33.106        1.995       31.184       25.862       16.050      972.424      668.860      257.596        0.270        0.095       59.208       18.742        0.100      338.717       11.558      860.997
05/22/2014  04:01:00      -73.911       -6.778       -5.958       14.343       21.790       11.589      205.727      474.813      134.315        0.318        0.041       74.221        4.967        0.004      338.720       11.564      860.998
05/22/2014  04:02:00      -78.441      -18.520       -8.767       15.471       19.299       10.822      239.348      372.445      117.107        0.365        0.036       80.598        6.286        0.006      338.759       11.628      860.998
05/22/2014  04:03:00      -51.702      -38.363       -5.081       14.433       15.604       10.643      208.304      243.478      113.278        0.237        0.028       64.380        7.815        0.015      338.773       11.653      860.990
05/22/2014  04:04:00      -45.340      -10.360       -8.354       16.672       10.588        8.222      277.971      112.112       67.596        0.135        0.023       46.509        4.894        0.011      338.786       11.674      860.991
05/22/2014  04:05:00       -0.410      -20.918       10.054        7.511        9.083        9.171       56.417       82.497       84.105        0.038        0.011       20.922        3.012        0.021      338.921       11.901      860.998
05/22/2014  04:06:00      -20.432        2.409        3.095       13.497       11.240        8.011      182.159      126.338       64.180        0.040        0.019       20.573        7.034        0.117      338.886       11.843      861.016
05/22/2014  04:07:00      -25.948       12.917        0.616        9.847        8.060       10.561       96.973       64.970      111.526        0.056        0.014       28.985        6.649        0.053      338.800       11.697      861.041
05/22/2014  04:08:00      -59.207       51.091      -13.167       18.015       23.839       13.112      324.533      568.298      171.923        0.368        0.053       78.203       14.707        0.035      338.721       11.565      861.052
05/22/2014  04:09:00      -74.850       75.898      -25.106       15.718       23.655       10.383      247.061      559.552      107.807        0.645        0.046      106.597        9.729        0.008      338.675       11.486      861.058
05/22/2014  04:10:00      -17.674       64.257      -10.985       29.338       20.955       14.150      860.694      439.112      200.209        0.303        0.075       66.643       14.552        0.048      338.848       11.779      861.057
05/22/2014  04:11:00       13.282       51.685       -4.842       13.703       12.436       12.069      187.766      154.660      145.670        0.168        0.024       53.364        7.122        0.018      338.808       11.712      861.050
05/22/2014  04:12:00      -14.310       19.188        7.278       18.817       16.749       13.244      354.066      280.516      175.398        0.072        0.040       23.936       12.995        0.295      338.817       11.726      861.047
05/22/2014  04:13:00        7.305       60.714      -10.244       17.001       29.797        7.712      289.042      887.859       59.481        0.254        0.062       61.152       10.942        0.032      338.707       11.541      861.054
05/22/2014  04:14:00       14.135      128.767      -21.171        9.136       23.021        7.282       83.469      529.943       53.025        0.895        0.033      129.540       10.180        0.006      338.664       11.470      861.055
05/22/2014  04:15:00       -4.483      133.886      -21.130       10.422       16.014        6.733      108.609      256.434       45.333        0.940        0.021      133.961        7.208        0.003      338.656       11.456      861.051
05/22/2014  04:16:00       -5.940       83.476      -12.863        5.301       19.750        6.801       28.097      390.055       46.248        0.382        0.023       83.687        6.380        0.006      338.767       11.644      861.030
05/22/2014  04:17:00      -28.261       36.146       -1.319       29.275       13.744       12.416      857.016      188.909      154.161        0.165        0.060       45.883       12.611        0.076      338.831       11.750      861.025
05/22/2014  04:18:00      -14.491       19.678        9.305       19.195       12.664       10.625      368.435      160.377      112.895        0.066        0.032       24.438       10.299        0.178      338.838       11.761      861.038
05/22/2014  04:19:00       -1.366       70.938       -3.596       16.919       14.180       10.846      286.246      201.066      117.646        0.283        0.030       70.951        6.924        0.010      338.854       11.788      861.053
05/22/2014  04:20:00       -7.888       54.780        2.469       14.739       19.713       11.437      217.233      388.592      130.802        0.190        0.037       55.345        6.421        0.013      338.894       11.856      861.062
05/22/2014  04:21:00      -58.269       26.042      -10.111       19.806       13.179        8.305      392.294      173.692       68.981        0.241        0.032       63.824        6.717        0.011      338.817       11.727      861.067
05/22/2014  04:22:00      -37.605       29.333       -6.498       26.636       18.907       10.934      709.451      357.492      119.563        0.175        0.059       47.692       11.119        0.054      338.926       11.909      861.063
05/22/2014  04:23:00       -3.534       67.145       -5.183       29.056       32.664       19.231      844.278     1066.928      369.841        0.341        0.114       67.238       11.046        0.027      338.914       11.890      861.056
05/22/2014  04:24:00      -11.935      111.217      -19.769       22.448       35.369       16.161      503.911     1250.953      261.165        0.746        0.101      111.855       17.716        0.025      338.962       11.971      861.055
05/22/2014  04:25:00       25.660       72.316       -5.542       21.952       25.608       21.293      481.887      655.748      453.391        0.375        0.080       76.733       17.360        0.051      338.855       11.791      861.058
05/22/2014  04:26:00       48.163       31.845        2.131       22.516       16.953       13.468      506.988      287.404      181.376        0.216        0.049       57.739        8.399        0.021      338.758       11.628      861.046
05/22/2014  04:27:00       95.546       59.632        6.797       57.318       32.286       27.143     3285.322     1042.406      736.747        0.890        0.253      112.628       24.121        0.046      338.698       11.525      861.050
05/22/2014  04:28:00       51.704       65.417       41.564       72.667       37.786       28.040     5280.482     1427.767      786.232        0.809        0.375       83.383       35.621        0.182      338.582       11.332      861.044
05/22/2014  04:29:00       57.753       47.591       25.297       34.123       29.975       27.884     1164.408      898.523      777.532        0.454        0.142       74.836        8.619        0.013      338.502       11.196      861.035
05/22/2014  04:30:00       91.166       58.080       19.915       19.827       14.046       16.954      393.105      197.296      287.446        0.648        0.044      108.095       10.868        0.010      338.465       11.132      861.051
05/22/2014  04:31:00       68.795       23.515        2.720       24.289       18.953       19.885      589.946      359.228      395.425        0.332        0.067       72.703       11.475        0.025      338.490       11.178      861.057
05/22/2014  04:32:00       89.013       42.949       16.781       35.140       29.287       35.585     1234.829      857.757     1266.276        0.670        0.168       98.833       27.078        0.075      338.622       11.399      861.056
05/22/2014  04:33:00       28.539       48.039        8.723       40.378       44.975       24.151     1630.406     2022.755      583.275        0.372        0.212       55.876       19.215        0.118      338.785       11.672      861.058
05/22/2014  04:34:00       99.328       46.463        7.083       28.986       23.904       19.957      840.182      571.383      398.280        0.694        0.090      109.658        7.703        0.005      338.642       11.433      861.091
05/22/2014  04:35:00      122.391       72.117       11.839       30.824       25.789       21.725      950.091      665.073      471.970        1.120        0.104      142.058        6.380        0.002      338.473       11.148      861.129
05/22/2014  04:36:00      106.388       51.076        7.659       36.764       23.622       22.542     1351.561      557.976      508.122        0.820        0.121      118.014       12.466        0.011      338.418       11.056      861.149
05/22/2014  04:37:00      109.823       51.742       25.535       61.274       38.984       36.574     3754.470     1519.721     1337.681        1.100        0.331      121.402       25.326        0.044      338.396       11.020      861.158
05/22/2014  04:38:00       77.002       39.104       26.926       45.685       24.742       28.916     2087.111      612.183      836.156        0.586        0.177       86.362       28.763        0.111      338.437       11.087      861.160
05/22/2014  04:39:00       33.612       37.380       41.442       36.655       25.643       20.256     1343.595      657.563      410.299        0.333        0.121       50.269       19.541        0.151      338.457       11.121      861.156
05/22/2014  04:40:00      102.742       49.564       30.241       38.689       33.162       28.207     1496.805     1099.724      795.608        0.866        0.170      114.073       19.208        0.028      338.456       11.119      861.152
05/22/2014  04:41:00       48.274       22.357        5.500       31.057       25.694       14.039      964.546      660.162      197.094        0.234        0.091       53.200        9.230        0.030      338.438       11.089      861.141
05/22/2014  04:42:00       21.685        5.432       31.205       18.985       17.506       17.715      360.436      306.456      313.839        0.123        0.049       22.355       12.907        0.333      338.507       11.206      861.120
05/22/2014  04:43:00       19.900      -55.536        6.080       39.857       45.015       29.317     1588.618     2026.342      859.483        0.399        0.224       58.994       31.264        0.281      338.678       11.492      861.114
05/22/2014  04:44:00       10.761       22.949       30.578       26.505       23.817       21.877      702.504      567.259      478.602        0.166        0.087       25.347       17.255        0.463      338.605       11.371      861.131
05/22/2014  04:45:00      -24.032       94.005       -2.772       51.006       53.174       27.649     2601.567     2827.454      764.442        0.781        0.310       97.028       24.627        0.064      338.647       11.441      861.160
05/22/2014  04:46:00       10.989       87.436       -7.947       42.612       28.604       21.021     1815.805      818.181      441.878        0.545        0.154       88.124       16.011        0.033      338.621       11.397      861.175
05/22/2014  04:47:00       63.106       58.540        6.662       23.670       26.432       26.189      560.251      698.628      685.875        0.470        0.097       86.077       19.658        0.052      338.615       11.384      861.188
05/22/2014  04:48:00       79.800       33.092        7.183       29.350       23.803       19.353      861.428      566.569      374.520        0.466        0.090       86.389       15.131        0.031      338.589       11.345      861.183
05/22/2014  04:49:00       31.147       34.472        7.508       37.951       23.504       12.428     1440.305      552.458      154.446        0.218        0.107       46.459       13.386        0.083      338.615       11.386      861.171
05/22/2014  04:50:00       42.315       25.031        4.441       31.063       18.649       14.201      964.929      347.790      201.659        0.198        0.076       49.164        8.983        0.033      338.593       11.350      861.167
05/22/2014  04:51:00       91.120       53.423       21.146       25.974       21.990       24.677      674.623      483.569      608.948        0.669        0.088      105.627        4.501        0.002      338.664       11.469      861.169
05/22/2014  04:52:00       71.419       47.637       25.684       33.840       21.549       23.677     1145.160      464.348      560.623        0.510        0.109       85.849       22.911        0.071      338.612       11.382      861.169
05/22/2014  04:53:00       83.110       37.422        4.922       15.666       20.672       16.501      245.424      427.352      272.299        0.464        0.047       91.147        7.183        0.006      338.554       11.284      861.164
05/22/2014  04:54:00       74.366       39.821        6.754       26.443       18.319       17.653      699.243      335.588      311.621        0.425        0.067       84.357       15.167        0.032      338.595       11.353      861.147
05/22/2014  04:55:00       79.848       56.638       14.024       28.789       20.551       15.152      828.812      422.360      229.597        0.563        0.074       97.895        8.169        0.007      338.539       11.257      861.152
05/22/2014  04:56:00      137.297       62.138       17.446       22.917       23.468       18.416      525.203      550.766      339.167        1.222        0.071      150.704       15.974        0.011      338.574       11.318      861.169
05/22/2014  04:57:00      102.416       42.813        9.972       38.251       30.672       23.866     1463.144      940.795      569.601        0.770        0.149      111.004       16.981        0.023      338.575       11.320      861.188
05/22/2014  04:58:00       53.684       34.081       22.641       40.853       26.511       22.785     1668.970      702.818      519.175        0.372        0.145       63.588       22.867        0.129      338.531       11.245      861.208
05/22/2014  04:59:00       85.021       50.922        9.518       16.795       16.612       18.370      282.083      275.953      337.469        0.540        0.045       99.104       10.086        0.010      338.497       11.190      861.217
05/22/2014  05:00:00       87.718       43.264       -1.279       30.763       21.220       13.851      946.368      450.268      191.837        0.558        0.079       97.807        7.511        0.006      338.492       11.181      861.221
05/22/2014  05:01:00      116.358       65.993        2.092       30.866       26.025       24.586      952.687      677.277      604.482        1.007        0.112      133.769       14.291        0.011      338.486       11.170      861.226
05/22/2014  05:02:00      137.613       92.581       14.579       29.925       29.763       32.077      895.514      885.846     1028.950        1.527        0.141      165.857        9.975        0.004      338.496       11.187      861.231
05/22/2014  05:03:00      139.312      104.747       47.883       43.093       28.552       39.973     1856.996      815.228     1597.810        1.847        0.214      174.298       26.209        0.023      338.492       11.180      861.239
05/22/2014  05:04:00      151.105      105.626       42.552       49.373       43.084       40.046     2437.738     1856.250     1603.702        2.085        0.295      184.362       26.701        0.021      338.518       11.223      861.244
05/22/2014  05:05:00      146.524       87.560       61.339       58.530       40.124       39.428     3425.770     1609.921     1554.550        1.974        0.330      170.693       31.039        0.033      338.507       11.204      861.250
05/22/2014  05:06:00      150.721      109.640       41.882       53.967       45.931       42.705     2912.423     2109.668     1823.720        2.167        0.342      186.380       30.030        0.026      338.510       11.208      861.264
05/22/2014  05:07:00      149.661       74.737       33.302       96.421       69.947       51.500     9296.978     4892.651     2652.252        2.296        0.842      167.284       34.080        0.042      338.498       11.189      861.273
05/22/2014  05:08:00       70.772      107.809      119.592      107.881       88.421       63.746    11638.380     7818.351     4063.519        2.722        1.176      128.963       54.459        0.178      338.565       11.301      861.277
05/22/2014  05:09:00       20.424       67.860      104.932       67.130       70.048       35.227     4506.403     4906.786     1240.911        1.334        0.533       70.867       39.815        0.316      338.574       11.318      861.280
05/22/2014  05:10:00       20.345       19.497       66.526       38.032       84.932       45.269     1446.420     7213.429     2049.320        0.796        0.535       28.178       38.428        1.860      338.575       11.320      861.300
05/22/2014  05:11:00       54.039       61.303       75.938       81.539       55.397       38.033     6648.540     3068.789     1446.521        1.180        0.558       81.721       27.071        0.110      338.540       11.261      861.328
05/22/2014  05:12:00       54.276       52.171       95.983       92.045      128.489       76.326     8472.205    16509.423     5825.619        2.284        1.540       75.284       84.251        1.252      338.532       11.246      861.342
05/22/2014  05:13:00       77.476        0.111       31.268       77.025       72.741       39.835     5932.795     5291.295     1586.828        0.989        0.641       77.476       20.863        0.073      338.542       11.263      861.355
05/22/2014  05:14:00       76.959       77.243       91.919       95.096       51.530       48.375     9043.173     2655.339     2340.166        1.719        0.702      109.037       38.130        0.122      338.533       11.249      861.366
05/22/2014  05:15:00      149.579      106.887       82.920       73.714       44.630       50.715     5433.795     1991.797     2572.002        2.533        0.500      183.844       43.514        0.056      338.468       11.136      861.376
05/22/2014  05:16:00       74.486       80.286       91.333       75.763       66.994       47.489     5740.040     4488.218     2255.203        1.641        0.624      109.517       41.231        0.142      338.489       11.174      861.382
05/22/2014  05:17:00       88.715      -34.105       60.166      101.623      103.591       60.721    10327.171    10731.032     3686.984        1.869        1.237       95.044       61.953        0.425      338.500       11.193      861.384
05/22/2014  05:18:00       39.990       58.083       52.866       67.489       62.442       54.700     4554.775     3898.973     2992.066        0.960        0.572       70.518       38.007        0.290      338.469       11.141      861.408
05/22/2014  05:19:00       68.316       32.297       83.940       71.776       91.381       50.597     5151.818     8350.410     2560.039        1.441        0.803       75.566       37.181        0.242      338.438       11.088      861.411
05/22/2014  05:20:00       52.660       75.362       78.524       53.993       52.088       43.199     2915.268     2713.147     1866.138        1.106        0.375       91.938       31.012        0.114      338.399       11.024      861.401
05/22/2014  05:21:00       22.168       37.006       40.292       52.044       39.048       27.783     2708.587     1524.765      771.910        0.424        0.250       43.138       23.598        0.299      338.407       11.036      861.386
05/22/2014  05:22:00       18.912       27.263       36.010       33.692       43.063       26.661     1135.120     1854.388      710.786        0.305        0.185       33.181       24.090        0.527      338.391       11.011      861.365
05/22/2014  05:23:00      -11.091      -42.180       11.304       31.188       63.308       27.898      972.708     4007.853      778.318        0.389        0.288       43.614       18.601        0.182      338.444       11.099      861.357
05/22/2014  05:24:00       -5.443        9.028       20.376       19.943       21.988       24.590      397.720      483.462      604.665        0.101        0.074       10.542       14.368        1.858      338.430       11.075      861.359
05/22/2014  05:25:00       16.669       24.766        4.888       39.667       33.189       28.287     1573.437     1101.511      800.160        0.219        0.174       29.853        8.918        0.089      338.359       10.958      861.360
05/22/2014  05:26:00       84.941       79.912       60.461       37.834       37.815       32.626     1431.433     1429.972     1064.488        1.059        0.196      116.623       19.925        0.029      338.339       10.922      861.360
05/22/2014  05:27:00       74.625       57.101       34.886       43.988       35.029       21.480     1934.977     1227.052      461.373        0.683        0.181       93.965       11.535        0.015      338.333       10.914      861.368
05/22/2014  05:28:00       84.834       61.516        7.002       34.668       21.165       16.041     1201.895      447.977      257.304        0.647        0.095      104.790       10.314        0.010      338.281       10.828      861.386
05/22/2014  05:29:00       87.932       60.752        2.423       25.077       23.067       19.316      628.858      532.107      373.127        0.648        0.077      106.878       11.082        0.011      338.266       10.801      861.413
05/22/2014  05:30:00       74.985       47.670       13.264       40.854       29.786       21.577     1669.051      887.223      465.563        0.555        0.151       88.855       14.534        0.027      338.255       10.781      861.439
05/22/2014  05:31:00       77.850       39.422        5.752       29.071       23.275       23.696      845.123      541.709      561.492        0.480        0.097       87.263       18.844        0.047      338.245       10.765      861.461
05/22/2014  05:32:00       62.466       34.488       13.791       29.171       25.254       22.448      850.963      637.782      503.921        0.364        0.100       71.355       11.643        0.027      338.244       10.764      861.469
05/22/2014  05:33:00       95.152       70.674        7.321       36.422       22.638       19.435     1326.564      512.483      377.722        0.816        0.111      118.528       14.039        0.014      338.185       10.664      861.480
05/22/2014  05:34:00      118.259       78.916       11.799       27.056       24.341       18.028      732.031      592.468      325.009        1.100        0.082      142.172       14.353        0.010      338.174       10.645      861.495
05/22/2014  05:35:00       67.258       61.646       -0.291       36.638       24.234       20.508     1342.323      587.297      420.561        0.534        0.118       91.236       15.527        0.029      338.140       10.589      861.510
05/22/2014  05:36:00       51.155       83.402        3.256       34.687       42.541       33.236     1203.154     1809.777     1104.631        0.685        0.206       97.840       31.918        0.106      338.111       10.542      861.520
05/22/2014  05:37:00       64.004       82.463       -0.950       43.281       48.934       35.260     1873.239     2394.488     1243.275        0.820        0.276      104.387       27.507        0.069      338.070       10.473      861.521
05/22/2014  05:38:00       55.764       80.332        0.258       29.075       41.078       31.698      845.341     1687.381     1004.767        0.655        0.177       97.790       28.554        0.085      338.038       10.417      861.537
05/22/2014  05:39:00       69.016       99.304       -0.595       36.598       49.290       37.869     1339.409     2429.512     1434.045        0.991        0.260      120.932       34.996        0.084      338.047       10.432      861.549
05/22/2014  05:40:00       59.354       92.810       -4.545       35.904       46.002       34.050     1289.114     2116.187     1159.405        0.836        0.228      110.166       29.566        0.072      338.024       10.394      861.556
05/22/2014  05:41:00       63.401      104.136        0.945       43.943       42.485       33.839     1931.027     1804.954     1145.051        0.987        0.244      121.918       30.961        0.064      338.015       10.381      861.562
05/22/2014  05:42:00       79.084       66.407       17.711       42.041       31.786       28.950     1767.481     1010.345      838.121        0.730        0.181      103.268       18.171        0.031      337.979       10.320      861.572
05/22/2014  05:43:00      117.219       58.031       -3.202       24.792       37.855       15.845      614.626     1433.018      251.067        0.971        0.115      130.797       10.680        0.007      337.995       10.345      861.584
05/22/2014  05:44:00       94.795       62.326        1.179       35.881       40.214       24.016     1287.464     1617.183      576.763        0.818        0.174      113.449       14.655        0.017      337.953       10.277      861.602
05/22/2014  05:45:00       87.660       79.186        8.970       38.405       32.887       32.479     1474.906     1081.522     1054.895        0.882        0.181      118.131       23.537        0.040      337.956       10.282      861.621
05/22/2014  05:46:00      115.085       62.858       14.727       34.491       26.866       23.463     1189.606      721.762      550.504        0.994        0.123      131.132       15.170        0.013      337.899       10.184      861.635
05/22/2014  05:47:00      132.578       85.440        6.327       40.708       23.791       21.443     1657.167      566.026      459.786        1.380        0.134      157.724       13.302        0.007      337.912       10.206      861.648
05/22/2014  05:48:00      131.709       56.682        8.681       32.474       26.491       25.456     1054.546      701.748      648.025        1.152        0.120      143.388       16.768        0.014      337.913       10.209      861.666
05/22/2014  05:49:00      113.451       53.178       11.105       46.399       24.616       31.270     2152.894      605.934      977.832        0.978        0.187      125.296       24.766        0.039      337.912       10.206      861.689
05/22/2014  05:50:00      119.440       72.937       15.801       29.488       23.689       25.103      869.558      561.192      630.175        1.095        0.103      139.949       17.781        0.016      337.883       10.158      861.709
05/22/2014  05:51:00      119.166       77.032       38.751       34.171       26.569       40.935     1167.634      705.889     1675.685        1.259        0.177      141.896       19.963        0.020      337.916       10.214      861.736
05/22/2014  05:52:00      155.853       84.039       19.041       33.544       31.703       25.100     1125.218     1005.075      630.032        1.724        0.138      177.066       14.316        0.007      337.926       10.230      861.753
05/22/2014  05:53:00      136.289       88.879       43.419       46.517       31.580       30.765     2163.868      997.266      946.484        1.623        0.205      162.708       22.660        0.019      337.927       10.230      861.768
05/22/2014  05:54:00      121.174       78.446       42.353       41.137       22.058       29.710     1692.290      486.542      882.703        1.285        0.153      144.350       27.464        0.036      337.939       10.253      861.780
05/22/2014  05:55:00      134.999       88.887       30.777       33.238       24.429       26.667     1104.777      596.780      711.115        1.474        0.121      161.634       18.846        0.014      337.945       10.261      861.797
05/22/2014  05:56:00      126.276       92.439       42.183       31.639       21.175       25.434     1001.042      448.371      646.886        1.418        0.105      156.495        9.602        0.004      337.967       10.301      861.809
05/22/2014  05:57:00      145.525       98.925       43.107       47.573       32.063       38.414     2263.151     1028.010     1475.625        1.879        0.238      175.965       25.532        0.021      337.988       10.335      861.806
05/22/2014  05:58:00      104.098       89.068       58.509       30.547       20.716       25.820      933.136      429.149      666.663        1.211        0.101      137.002       15.717        0.013      337.951       10.274      861.805
05/22/2014  05:59:00       68.284       55.478       41.293       33.018       28.972       21.258     1090.206      839.396      451.893        0.591        0.119       87.980       19.544        0.049      337.938       10.250      861.810
05/22/2014  06:00:00       59.153       54.179       48.925       44.520       32.150       18.811     1982.003     1033.605      353.870        0.610        0.168       80.215       20.852        0.068      337.948       10.268      861.806
05/22/2014  06:01:00       60.731       54.117       50.773       34.567       25.937       20.708     1194.871      672.719      428.805        0.575        0.115       81.345        8.183        0.010      337.953       10.277      861.809
05/22/2014  06:02:00       84.575       64.793       57.173       23.598       22.365       18.480      556.874      500.214      341.499        0.801        0.070      106.541        3.265        0.001      337.925       10.226      861.816
05/22/2014  06:03:00       98.725       78.305       60.555       29.100       25.016       20.172      846.799      625.783      406.910        1.071        0.094      126.009        9.204        0.005      337.946       10.264      861.819
05/22/2014  06:04:00      106.298       78.408       37.660       32.034       22.372       21.461     1026.189      500.490      460.562        1.043        0.099      132.088       15.881        0.014      337.928       10.234      861.827
05/22/2014  06:05:00      104.881       69.609       13.730       19.519       23.533       24.955      381.000      553.782      622.745        0.880        0.078      125.879       11.635        0.009      337.903       10.191      861.849
05/22/2014  06:06:00      112.244       73.400       13.924       18.150       17.755       16.217      329.414      315.234      263.006        0.954        0.045      134.113        9.860        0.005      337.857       10.114      861.863
05/22/2014  06:07:00       84.507       61.660       21.083       22.743       17.579       22.280      517.227      309.024      496.392        0.635        0.066      104.610        6.657        0.004      337.828       10.065      861.873
05/22/2014  06:08:00       71.772       64.772        8.906       29.055       24.635       19.226      844.187      606.875      369.645        0.562        0.091       96.678       16.160        0.028      337.851       10.103      861.875
05/22/2014  06:09:00       84.138       69.682       29.940       23.958       17.119       19.115      573.984      293.047      365.365        0.703        0.062      109.246       12.186        0.012      337.844       10.091      861.888
05/22/2014  06:10:00       84.241       63.065        5.998       21.190       16.453       15.475      448.998      270.695      239.479        0.603        0.048      105.232        5.275        0.003      337.848       10.098      861.904
05/22/2014  06:11:00       77.032       51.951       -7.895       22.865       25.863       19.110      522.827      668.870      365.194        0.513        0.078       92.913        9.779        0.011      337.877       10.147      861.922
05/22/2014  06:12:00       89.440       64.591       11.592       27.615       18.735       22.093      762.567      351.004      488.109        0.695        0.080      110.324       11.908        0.012      337.901       10.188      861.939
05/22/2014  06:13:00       64.547       49.873       14.471       29.003       17.903       22.610      841.185      320.516      511.232        0.427        0.084       81.570       12.450        0.023      337.931       10.239      861.957
05/22/2014  06:14:00       81.019       65.969        2.798       31.223       22.695       21.376      974.892      515.054      456.948        0.643        0.097      104.480       14.893        0.020      337.927       10.231      861.972
05/22/2014  06:15:00       46.680       56.067        2.645       28.652       27.654       23.926      820.960      764.770      572.443        0.374        0.108       72.956       17.675        0.059      337.952       10.275      861.989
05/22/2014  06:16:00       71.628       52.810        9.356       31.505       22.219       20.743      992.582      493.681      430.284        0.496        0.096       88.991       15.767        0.031      337.954       10.278      862.006
05/22/2014  06:17:00       73.966       44.376       -0.307       20.549       20.385       17.445      422.244      415.530      304.331        0.429        0.057       86.257        9.974        0.013      337.949       10.271      862.014
05/22/2014  06:18:00       60.164       28.393       11.004       19.994       17.030       23.715      399.764      290.020      562.423        0.290        0.063       66.527        9.932        0.022      338.007       10.366      862.035
05/22/2014  06:19:00       80.318       54.162        0.159       16.184       17.427       18.459      261.907      303.704      340.723        0.515        0.045       96.874        6.465        0.004      337.988       10.334      862.059
05/22/2014  06:20:00       51.066       60.647       31.037       24.588       14.273       24.428      604.555      203.730      596.746        0.433        0.070       79.283       19.824        0.063      338.008       10.367      862.063
05/22/2014  06:21:00       59.657       43.587       10.602       17.270       16.471       15.301      298.240      271.307      234.116        0.319        0.040       73.884        8.419        0.013      338.034       10.411      862.082
05/22/2014  06:22:00       46.331       42.747        5.849       22.262       19.048       20.444      495.599      362.818      417.977        0.264        0.064       63.039       13.689        0.047      338.070       10.472      862.094
05/22/2014  06:23:00       59.294       29.172       12.878       26.910       15.843       20.165      724.166      250.986      406.632        0.296        0.069       66.082       15.646        0.056      338.088       10.502      862.096
05/22/2014  06:24:00       72.634       49.997        9.315       20.593       19.760       19.776      424.063      390.474      391.096        0.453        0.060       88.178       11.357        0.017      338.025       10.397      862.116
05/22/2014  06:25:00       80.709       52.739       16.203       16.752       18.266       19.839      280.631      333.634      393.598        0.528        0.050       96.412        9.239        0.009      338.042       10.425      862.125
05/22/2014  06:26:00       48.265       32.229       11.653       21.490       20.159       17.030      461.818      406.365      290.022        0.233        0.058       58.037       15.370        0.070      338.093       10.511      862.125
05/22/2014  06:27:00       61.756       60.454       16.934       23.380       30.855       24.319      546.629      952.048      591.407        0.492        0.105       86.420       15.204        0.031      338.124       10.563      862.135
05/22/2014  06:28:00       63.278       64.129       19.097       26.463       35.085       32.881      700.299     1230.949     1081.163        0.575        0.151       90.092       15.804        0.031      338.101       10.526      862.132
05/22/2014  06:29:00       42.514       75.638        2.226       24.663       30.850       25.582      608.257      951.704      654.463        0.487        0.111       86.767       20.723        0.057      338.137       10.584      862.131
05/22/2014  06:30:00       56.752       28.491        8.670       26.584       26.461       17.027      706.705      700.201      289.920        0.290        0.085       63.502        7.123        0.013      338.149       10.604      862.138
05/22/2014  06:31:00       66.450       56.590       13.951       25.687       23.044       22.946      659.816      531.044      526.510        0.476        0.086       87.281       10.095        0.013      338.177       10.650      862.130
05/22/2014  06:32:00       20.085       63.271        1.084       26.605       30.832       20.886      707.819      950.584      436.215        0.325        0.105       66.383       19.061        0.082      338.204       10.697      862.140
05/22/2014  06:33:00       14.581       95.316       -6.354       16.985       20.264       16.826      288.495      410.616      283.108        0.516        0.049       96.425       14.203        0.022      338.148       10.603      862.141
05/22/2014  06:34:00       27.221       86.013       -5.838       29.539       31.057       23.506      872.562      964.511      552.522        0.528        0.119       90.218       18.570        0.042      338.219       10.722      862.146
05/22/2014  06:35:00       77.677       69.451       -2.846       31.308       27.433       20.510      980.219      752.548      420.655        0.651        0.108      104.198       13.108        0.016      338.113       10.546      862.149
05/22/2014  06:36:00       81.713       56.588        7.159       28.452       34.116       23.099      809.511     1163.925      533.547        0.622        0.125       99.394       20.135        0.041      338.182       10.660      862.148
05/22/2014  06:37:00       77.976       70.919       14.329       32.278       21.984       26.765     1041.873      483.288      716.349        0.678        0.112      105.403        8.523        0.007      338.206       10.700      862.150
05/22/2014  06:38:00      110.790       61.161        9.475       35.671       27.654       25.965     1272.448      764.735      674.166        0.941        0.136      126.550       17.103        0.018      338.227       10.736      862.147
05/22/2014  06:39:00      117.568       92.265        3.400       39.761       27.804       24.937     1580.919      773.087      621.867        1.266        0.149      149.450       17.538        0.014      338.170       10.640      862.143
05/22/2014  06:40:00      127.285       96.511        7.515       36.063       40.194       34.852     1300.523     1615.537     1214.692        1.485        0.207      159.737       23.281        0.021      338.144       10.597      862.140
05/22/2014  06:41:00      124.111       71.824       22.788       59.720       55.290       33.664     3566.498     3056.992     1133.244        1.442        0.388      143.395       32.725        0.052      338.257       10.785      862.152
05/22/2014  06:42:00      136.794       86.183       18.215       40.705       33.366       31.428     1656.905     1113.314      987.745        1.511        0.188      161.679       19.401        0.014      338.176       10.650      862.157
05/22/2014  06:43:00      113.323       75.893       -4.183       45.687       43.296       27.521     2087.271     1874.532      757.387        1.167        0.236      136.389       13.130        0.009      338.247       10.769      862.167
05/22/2014  06:44:00      123.481       80.330       13.093       27.053       29.669       23.365      731.880      880.221      545.918        1.201        0.108      147.311       12.490        0.007      338.215       10.716      862.162
05/22/2014  06:45:00      120.597       56.234       16.365       38.909       34.547       28.624     1513.879     1193.464      819.312        1.075        0.176      133.064        8.607        0.004      338.214       10.714      862.174
05/22/2014  06:46:00       98.481       67.326       12.773       30.311       31.219       34.799      918.756      974.653     1210.941        0.875        0.155      119.295       21.241        0.032      338.303       10.863      862.178
05/22/2014  06:47:00      118.120       67.074        5.886       55.410       45.136       28.433     3070.264     2037.247      808.417        1.220        0.296      135.836       17.103        0.016      338.243       10.761      862.204
05/22/2014  06:48:00      104.876       65.727       15.868       44.750       35.149       34.604     2002.541     1235.430     1197.420        1.000        0.222      123.770       20.994        0.029      338.341       10.925      862.211
05/22/2014  06:49:00      130.471       76.854        8.007       41.886       36.511       34.523     1754.452     1333.035     1191.833        1.364        0.214      151.424       26.046        0.030      338.390       11.009      862.233
05/22/2014  06:50:00      135.108       98.381       23.769       48.532       41.749       31.645     2355.332     1742.989     1001.387        1.680        0.255      167.132       12.660        0.006      338.271       10.809      862.245
05/22/2014  06:51:00      139.351       86.767       21.816       40.148       32.964       24.586     1611.836     1086.603      604.468        1.536        0.165      164.156       13.119        0.006      338.228       10.737      862.253
05/22/2014  06:52:00      109.102       86.140       15.611       55.009       43.890       39.433     3026.027     1926.365     1554.932        1.304        0.325      139.008       26.351        0.036      338.349       10.939      862.262
05/22/2014  06:53:00       98.465       82.792        7.250       51.454       38.728       45.101     2647.521     1499.872     2034.142        1.139        0.309      128.646       31.309        0.059      338.369       10.974      862.276
05/22/2014  06:54:00      105.168       35.540        2.318       56.334       43.755       30.036     3173.478     1914.521      902.142        0.916        0.300      111.011       24.423        0.048      338.490       11.178      862.296
05/22/2014  06:55:00       58.622       46.030       48.690       69.960       47.561       44.660     4894.354     2262.062     1994.496        0.854        0.458       74.534       33.775        0.205      338.624       11.403      862.308
05/22/2014  06:56:00       55.391       51.459       31.887       68.599       52.665       39.116     4705.787     2773.554     1530.037        0.787        0.450       75.606       40.512        0.287      338.504       11.201      862.319
05/22/2014  06:57:00       79.426       58.291        7.000       52.732       33.557       28.359     2780.669     1126.059      804.224        0.723        0.236       98.520       19.262        0.038      338.517       11.222      862.345
05/22/2014  06:58:00      104.106       64.558       -2.341       45.165       36.102       35.954     2039.870     1303.345     1292.698        0.982        0.232      122.498       21.107        0.030      338.540       11.260      862.357
05/22/2014  06:59:00       76.866       79.097       17.279       63.664       57.132       43.445     4053.102     3264.018     1887.441        1.083        0.460      110.294       32.798        0.088      338.597       11.356      862.383
05/22/2014  07:00:00       96.199       71.738       19.552       50.759       45.146       39.825     2576.441     2038.150     1586.001        1.049        0.310      120.002       31.524        0.069      338.604       11.369      862.395
05/22/2014  07:01:00      106.757       65.016       17.064       53.596       46.252       40.749     2872.575     2139.252     1660.509        1.129        0.334      124.996       28.382        0.052      338.490       11.178      862.420
05/22/2014  07:02:00       91.364       59.173        6.111       63.968       43.982       42.538     4091.959     1934.373     1809.486        0.986        0.392      108.852       24.570        0.051      338.530       11.245      862.425
05/22/2014  07:03:00      179.687      134.758       29.448       61.501       49.675       53.580     3782.411     2467.563     2870.802        3.022        0.456      224.604       34.789        0.024      338.410       11.040      862.434
05/22/2014  07:04:00      149.404       96.652       17.039       57.052       49.840       40.303     3254.967     2483.979     1624.356        1.966        0.368      177.941       28.764        0.026      338.373       10.980      862.439
05/22/2014  07:05:00      100.762       53.420       19.343       43.881       42.397       29.489     1925.519     1797.521      869.620        0.899        0.230      114.047       18.050        0.025      338.497       11.188      862.442
05/22/2014  07:06:00       73.778       71.305       -2.175       40.300       54.051       34.646     1624.130     2921.536     1200.335        0.814        0.287      102.604       30.773        0.090      338.545       11.269      862.452
05/22/2014  07:07:00      139.745       90.863        5.386       65.501       53.839       41.559     4290.425     2898.625     1727.145        1.836        0.446      166.688       12.414        0.006      338.456       11.118      862.463
05/22/2014  07:08:00      105.745       62.020       16.708       65.972       41.048       30.846     4352.301     1684.934      951.463        1.115        0.349      122.591       29.701        0.059      338.576       11.320      862.483
05/22/2014  07:09:00      155.785      118.393       14.665       61.999       50.248       46.650     3843.938     2524.825     2176.188        2.352        0.427      195.668       34.119        0.030      338.448       11.102      862.494
05/22/2014  07:10:00      122.058       81.111       19.013       52.811       50.927       37.182     2789.021     2593.609     1382.467        1.430        0.338      146.551       26.662        0.033      338.479       11.158      862.518
05/22/2014  07:11:00      112.661       80.279       14.826       43.481       32.983       24.281     1890.630     1087.856      589.557        1.146        0.178      138.338       13.005        0.009      338.380       10.992      862.519
05/22/2014  07:12:00       80.923       52.119        6.397       45.738       41.099       29.337     2091.958     1689.156      860.682        0.697        0.232       96.254       23.314        0.059      338.570       11.311      862.536
05/22/2014  07:13:00      115.662       63.689       21.411       52.962       39.774       29.300     2805.000     1581.955      858.495        1.157        0.262      132.038       16.385        0.015      338.600       11.362      862.549
05/22/2014  07:14:00      134.399      100.488       40.102       57.427       40.779       52.565     3297.874     1662.909     2763.060        1.874        0.386      167.812       46.179        0.076      338.548       11.275      862.548
05/22/2014  07:15:00      128.843      102.067        9.922       52.475       44.007       33.669     2753.658     1936.639     1133.617        1.647        0.291      164.372       18.684        0.013      338.476       11.153      862.556
05/22/2014  07:16:00      102.258       72.739       14.872       44.486       40.554       36.768     1978.993     1644.655     1351.904        1.047        0.249      125.490       21.014        0.028      338.703       11.534      862.547
05/22/2014  07:17:00      156.978      109.530       59.389       86.260       54.344       50.654     7440.810     2953.263     2565.804        2.656        0.648      191.412       42.869        0.050      338.549       11.273      862.551
05/22/2014  07:18:00       87.987       -9.426       27.983       54.649       93.944       44.693     2986.546     8825.564     1997.435        1.121        0.690       88.491       54.681        0.382      338.484       11.166      862.539
05/22/2014  07:19:00       33.902      -30.473       13.243       40.843       77.435       36.510     1668.152     5996.129     1332.985        0.562        0.450       45.584       18.893        0.172      338.768       11.643      862.525
05/22/2014  07:20:00       87.766       91.371       54.775       24.916       33.680       46.363      620.829     1134.370     2149.520        1.148        0.195      126.694       13.523        0.011      338.609       11.378      862.523
05/22/2014  07:21:00       95.380       65.438       13.502       26.136       27.551       25.543      683.067      759.038      652.464        0.783        0.105      115.669       16.971        0.022      338.598       11.359      862.538
05/22/2014  07:22:00       98.853       56.840       15.697       53.203       32.007       31.078     2830.528     1024.421      965.846        0.903        0.241      114.029        8.499        0.006      338.719       11.562      862.533
05/22/2014  07:23:00       98.699       72.987       17.518       50.808       48.705       37.208     2581.503     2372.153     1384.446        1.086        0.317      122.754       20.855        0.029      338.688       11.509      862.542
05/22/2014  07:24:00       50.281       21.003       16.003       56.532       35.362       26.142     3195.877     1250.486      683.430        0.418        0.256       54.491       20.409        0.140      339.123       12.240      862.545
05/22/2014  07:25:00      170.340       78.761       58.049       84.945       82.064       50.820     7215.635     6734.562     2582.622        2.756        0.827      187.667       30.648        0.027      338.668       11.474      862.557
05/22/2014  07:26:00      138.153       85.263       56.287       88.663       61.941       58.310     7861.092     3836.717     3400.024        2.231        0.755      162.345       42.109        0.067      338.687       11.506      862.558
05/22/2014  07:27:00       64.463       51.018       88.008       74.670       83.785       51.437     5575.581     7019.951     2645.733        1.487        0.762       82.209       46.535        0.320      338.849       11.780      862.578
05/22/2014  07:28:00      118.943       89.839       33.885      105.787       56.553       52.062    11190.868     3198.223     2710.406        2.023        0.855      149.058       47.884        0.103      338.854       11.787      862.601
05/22/2014  07:29:00      149.410       65.056       38.432       83.921       56.670       50.591     7042.806     3211.506     2559.466        2.042        0.641      162.959       41.124        0.064      338.630       11.411      862.635
05/22/2014  07:30:00      111.363       63.557       19.428       77.295       60.572       49.144     5974.453     3669.027     2415.101        1.444        0.603      128.223       29.631        0.053      338.781       11.666      862.642
05/22/2014  07:31:00      155.806      103.092       43.570       75.209       50.213       61.837     5656.359     2521.340     3823.860        2.440        0.600      186.825       48.909        0.069      338.702       11.531      862.648
05/22/2014  07:32:00       59.178       78.342       74.612       56.604       48.115       45.874     3203.981     2315.052     2104.390        1.141        0.381       98.181       34.600        0.124      338.673       11.484      862.652
05/22/2014  07:33:00       52.716       54.146       47.682       58.176       48.851       33.368     3384.442     2386.432     1113.441        0.743        0.344       75.569       15.449        0.042      338.832       11.753      862.654
05/22/2014  07:34:00       82.854       25.921       17.013       48.861       60.057       38.885     2387.369     3606.807     1512.040        0.766        0.375       86.814       25.242        0.085      338.972       11.987      862.651
05/22/2014  07:35:00      135.005       48.383       27.967       92.627       62.359       54.419     8579.778     3888.590     2961.473        1.839        0.771      143.413       39.637        0.076      338.944       11.938      862.647
05/22/2014  07:36:00       63.429       28.130       49.894       71.031       91.851       51.777     5045.337     8436.567     2680.881        1.173        0.808       69.387       39.817        0.329      338.894       11.856      862.638
05/22/2014  07:37:00      116.394      100.919       73.881       87.162       71.153       48.733     7597.187     5062.717     2374.875        2.211        0.752      154.053       26.767        0.030      338.913       11.885      862.638
05/22/2014  07:38:00      192.698       84.754       17.984       83.786       75.325       65.923     7020.170     5673.822     4345.837        3.084        0.852      210.514       43.291        0.042      338.807       11.704      862.653
05/22/2014  07:39:00       93.354      128.872      124.321       95.366       68.376       64.570     9094.748     4675.342     4169.323        2.936        0.897      159.132       52.749        0.110      338.792       11.682      862.671
05/22/2014  07:40:00       85.200       96.492       97.161       94.029       71.813       56.604     8841.484     5157.133     3204.057        2.160        0.860      128.723       57.775        0.201      338.900       11.864      862.697
05/22/2014  07:41:00       28.565       18.868       55.810       64.958       66.058       43.780     4219.555     4363.666     1916.676        0.739        0.525       34.234       41.546        1.473      338.974       11.991      862.712
05/22/2014  07:42:00       18.034      -22.342       21.679       35.172       52.949       29.766     1237.036     2803.607      886.022        0.311        0.246       28.713       22.564        0.618      339.014       12.057      862.724
05/22/2014  07:43:00       34.950       31.550       56.374       46.194       48.311       40.699     2133.869     2333.936     1656.409        0.576        0.306       47.084       24.759        0.277      339.156       12.296      862.746
05/22/2014  07:44:00       13.857      -11.346       43.517       46.671       56.266       28.455     2178.191     3165.913      809.712        0.418        0.308       17.910       10.736        0.359      339.127       12.248      862.742
05/22/2014  07:45:00      132.590       99.161       34.710       68.311       43.086       51.018     4666.383     1856.436     2602.834        1.887        0.456      165.569       37.514        0.051      338.945       11.939      862.765
05/22/2014  07:46:00      163.711      117.460       57.566       78.284       59.897       60.885     6128.436     3587.689     3706.958        2.866        0.671      201.490       47.533        0.056      338.930       11.914      862.764
05/22/2014  07:47:00       49.458       97.672       96.601       66.768       66.534       73.242     4457.940     4426.716     5364.389        1.778        0.712      109.480       54.075        0.244      339.146       12.280      862.774
05/22/2014  07:48:00      101.105      101.135      113.314       90.088       85.004       61.765     8115.864     7225.671     3814.954        2.622        0.958      143.005       46.908        0.108      339.100       12.202      862.767
05/22/2014  07:49:00      112.036       73.091      107.860      111.218       98.524       75.624    12369.497     9707.046     5719.057        2.866        1.390      133.769       71.865        0.289      338.983       12.004      862.773
05/22/2014  07:50:00       78.427      105.984      125.112      104.027       98.302       68.849    10821.516     9663.286     4740.194        2.913        1.261      131.846       56.564        0.184      338.957       11.960      862.789
05/22/2014  07:51:00       93.359       77.044       70.245       89.005       77.810       68.582     7921.870     6054.401     4703.502        1.913        0.934      121.044       44.307        0.134      339.035       12.092      862.796
05/22/2014  07:52:00      171.451      122.364       52.394      114.847       88.313       80.540    13189.934     7799.165     6486.614        3.729        1.374      210.638       40.504        0.037      339.090       12.183      862.819
05/22/2014  07:53:00      186.927      153.993       66.309       95.362       81.885       75.075     9093.832     6705.186     5636.272        4.224        1.072      242.189       51.980        0.046      338.943       11.936      862.837
05/22/2014  07:54:00      217.897      156.788       36.081       93.035       98.668       76.865     8655.590     9735.282     5908.218        4.883        1.215      268.443       51.408        0.037      338.831       11.748      862.834
05/22/2014  07:55:00      215.617       90.326       24.560       93.762       53.836       48.299     8791.383     2898.287     2332.751        3.463        0.701      233.772       31.148        0.018      338.820       11.729      862.831
05/22/2014  07:56:00      225.948      132.860       46.104       94.614       78.550       64.622     8951.823     6170.052     4176.019        4.506        0.965      262.115       46.840        0.032      338.724       11.566      862.840
05/22/2014  07:57:00      250.427      120.753       26.549      120.102      101.696       77.896    14424.565    10342.072     6067.745        5.441        1.542      278.020       51.226        0.034      338.753       11.616      862.836
05/22/2014  07:58:00      248.354      159.933       53.902       99.571       81.542       64.834     9914.332     6649.055     4203.476        5.546        1.038      295.395       39.758        0.018      338.644       11.432      862.874
05/22/2014  07:59:00      183.539      133.316      105.187      154.105       89.280       82.303    23748.360     7970.903     6773.811        5.050        1.925      226.847       83.384        0.135      338.842       11.766      862.869
05/22/2014  08:00:00      134.986       89.367       88.184      102.709       70.488       58.934    10549.237     4968.556     3473.273        2.648        0.950      161.888       43.913        0.074      338.927       11.910      862.858
05/22/2014  08:01:00       48.377       78.386       84.159       48.998       60.200       57.329     2400.772     3623.998     3286.667        1.244        0.466       92.112       37.444        0.165      339.032       12.088      862.863
05/22/2014  08:02:00       48.818       42.769       66.925       47.380       56.267       26.312     2244.897     3166.026      692.334        0.740        0.305       64.902       23.221        0.128      339.168       12.316      862.868
05/22/2014  08:03:00      126.984       97.819       49.895       52.406       33.373       43.174     2746.396     1113.741     1863.980        1.695        0.286      160.292       23.886        0.022      338.911       11.884      862.857
05/22/2014  08:04:00      120.480       63.698       66.780      117.434      101.384       73.338    13790.795    10278.809     5378.405        2.623        1.472      136.282       42.699        0.098      339.138       12.265      862.854
05/22/2014  08:05:00      171.853      142.425       47.969      117.138       85.375       75.775    13721.396     7288.847     5741.878        3.943        1.338      223.201       67.845        0.092      339.196       12.361      862.881
05/22/2014  08:06:00      188.370       89.643       55.220       90.775       87.685       66.304     8240.172     7688.729     4396.221        3.344        1.016      208.612       45.572        0.048      339.107       12.211      862.877
05/22/2014  08:07:00      155.747      127.672       89.687       94.116       64.664       59.608     8857.892     4181.436     3553.166        3.259        0.830      201.388       57.796        0.082      339.081       12.167      862.898
05/22/2014  08:08:00      164.568      127.328       94.239      109.503       88.405       79.208    11990.921     7815.424     6273.961        3.912        1.304      208.074       70.817        0.116      339.003       12.036      862.909
05/22/2014  08:09:00      218.383      151.300       36.146      105.383       83.366       61.788    11105.515     6949.862     3817.703        4.688        1.094      265.675       42.571        0.026      338.849       11.778      862.900
05/22/2014  08:10:00      225.796      159.444       42.448      109.172       80.372       67.263    11918.524     6459.591     4524.308        5.055        1.145      276.417       26.498        0.009      338.855       11.787      862.913
05/22/2014  08:11:00      129.102       60.033       18.824      112.816       64.059       56.650    12727.362     4103.606     3209.244        2.033        1.002      142.377       23.331        0.027      339.114       12.225      862.917
05/22/2014  08:12:00      163.909      101.601       30.044       96.562       55.988       48.512     9324.183     3134.651     2353.398        2.645        0.741      192.844       44.798        0.054      339.045       12.107      862.919
05/22/2014  08:13:00      231.733      155.724       31.860       96.837       62.803       64.204     9377.499     3944.164     4122.120        4.820        0.872      279.196       25.687        0.008      338.890       11.846      862.931
05/22/2014  08:14:00      267.287      140.561       48.065      133.499       91.311       59.060    17821.976     8337.697     3488.072        6.157        1.482      301.993       63.379        0.044      338.867       11.806      862.941
05/22/2014  08:15:00      159.928      110.518       34.437       87.775       46.987       53.158     7704.425     2207.753     2825.810        2.585        0.637      194.399       30.125        0.024      338.878       11.827      862.947
05/22/2014  08:16:00      189.599      145.774       93.801      117.662       64.556       64.763    13844.407     4167.435     4194.225        4.410        1.110      239.160       54.476        0.052      339.007       12.042      862.960
05/22/2014  08:17:00      148.129       97.256       39.115       74.271       55.652       47.029     5516.159     3097.148     2211.741        2.188        0.541      177.203       22.486        0.016      339.114       12.225      862.969
05/22/2014  08:18:00       80.799       59.463       78.404       70.560       96.585       63.351     4978.772     9328.589     4013.286        1.726        0.916      100.321       52.355        0.272      339.218       12.398      862.980
05/22/2014  08:19:00        2.005       79.449      131.426       49.304       76.935       46.190     2430.839     5918.955     2133.483        1.703        0.524       79.474       46.713        0.345      339.546       12.955      862.987
05/22/2014  08:20:00      109.526       68.008       89.430       89.075       89.484       71.990     7934.378     8007.422     5182.500        2.287        1.056      128.923       50.365        0.153      339.138       12.265      862.997
05/22/2014  08:21:00      129.621      103.217       63.100       86.465       65.248       50.459     7476.199     4257.289     2546.071        2.286        0.714      165.697       41.316        0.062      339.153       12.291      863.001
05/22/2014  08:22:00      184.797      114.094       67.665      130.016       91.579       69.377    16904.262     8386.647     4813.160        4.092        1.505      217.180       52.877        0.059      339.053       12.120      862.999
05/22/2014  08:23:00      211.279      180.457      116.724      119.912       71.174       80.053    14378.964     5065.761     6408.443        5.834        1.293      277.855       67.809        0.060      338.977       11.993      862.980
05/22/2014  08:24:00       99.590       98.325       95.755       67.848       68.149       59.843     4603.298     4644.275     3581.207        2.079        0.641      139.950       33.723        0.058      339.161       12.304      862.967
05/22/2014  08:25:00      185.478      145.000       73.880       74.507       70.476       72.019     5551.270     4966.828     5186.792        3.829        0.785      235.429       46.702        0.039      339.044       12.103      862.968
05/22/2014  08:26:00      191.029      126.565       55.047       71.222       44.885       55.081     5072.613     2014.653     3033.937        3.283        0.506      229.153       30.018        0.017      338.914       11.886      862.952
05/22/2014  08:27:00      130.508       85.428       20.567       97.432       69.417       52.429     9492.930     4818.727     2748.752        2.090        0.853      155.982       29.047        0.035      339.099       12.200      862.944
05/22/2014  08:28:00      128.420       74.379       23.256       62.673       49.330       48.816     3927.866     2433.403     2383.036        1.565        0.437      148.405       28.578        0.037      339.358       12.635      862.947
05/22/2014  08:29:00       75.378       74.337       45.123       70.770       68.840       48.414     5008.394     4738.935     2343.870        1.267        0.605      105.867       33.690        0.101      339.373       12.661      862.949
05/22/2014  08:30:00       21.297      -39.762       48.336       57.218       82.023       51.138     3273.933     6727.820     2615.139        0.849        0.631       45.107       46.514        1.063      339.633       13.101      862.948
05/22/2014  08:31:00      117.720      -92.626       17.306       76.653       87.589       61.385     5875.623     7671.875     3768.075        2.002        0.866      149.792       65.523        0.191      339.539       12.940      862.956
05/22/2014  08:32:00       74.977     -145.501       -7.367       70.034      104.084       65.660     4904.751    10833.549     4311.218        2.344        1.002      163.683       57.498        0.123      339.352       12.625      862.952
05/22/2014  08:33:00       77.409      -25.625       63.332       85.092      122.404       81.075     7240.644    14982.726     6573.187        1.972        1.440       81.540       89.946        1.217      339.491       12.861      862.969
05/22/2014  08:34:00       92.951     -108.049       16.776       62.434      103.799       52.527     3897.999    10774.287     2759.126        1.901        0.872      142.529       54.546        0.146      339.299       12.536      862.968
05/22/2014  08:35:00       12.909      -83.532       18.180       36.419       51.559       34.024     1326.356     2658.325     1157.659        0.631        0.257       84.523       28.975        0.118      339.480       12.842      862.971
05/22/2014  08:36:00       44.170       51.057       70.901       57.747       78.741       41.913     3334.667     6200.218     1756.680        1.044        0.565       67.512       39.532        0.343      339.823       13.421      862.971
05/22/2014  08:37:00       30.284       16.291       64.742       47.953       64.534       48.405     2299.470     4164.604     2343.085        0.709        0.440       34.388       41.238        1.438      339.801       13.383      862.971
05/22/2014  08:38:00       87.427      -32.205       43.061      102.682      102.144       62.796    10543.640    10433.379     3943.306        1.772        1.246       93.170       62.680        0.453      339.615       13.068      862.972
05/22/2014  08:39:00      166.394      -66.632       37.573       89.863      104.342       69.991     8075.401    10887.226     4898.699        2.870        1.193      179.240       56.297        0.099      339.369       12.653      862.987
05/22/2014  08:40:00      144.180     -154.118       21.584      100.311      152.905       73.911    10062.370    23379.975     5462.827        4.195        1.945      211.045       83.767        0.158      339.284       12.510      862.970
05/22/2014  08:41:00      139.986      -47.823       56.148      104.508      120.509       87.591    10921.891    14522.522     7672.180        2.907        1.656      147.930       96.661        0.427      339.706       13.221      862.994
05/22/2014  08:42:00      150.460     -184.361      -18.256       94.553      135.963       75.567     8940.268    18485.819     5710.378        4.504        1.657      237.965       75.351        0.100      339.471       12.826      863.024
05/22/2014  08:43:00      183.713     -250.491      -48.856      107.867       97.362       60.376    11635.223     9479.301     3645.259        6.182        1.238      310.638       56.058        0.033      339.276       12.495      863.024
05/22/2014  08:44:00      116.092     -126.744       22.215       90.442      126.691       77.481     8179.727    16050.594     6003.288        3.013        1.512      171.876       71.742        0.174      339.777       13.340      863.041
05/22/2014  08:45:00       90.918      -31.094       81.708      108.507      124.189       76.057    11773.744    15422.989     5784.646        2.444        1.649       96.088       87.524        0.830      339.547       12.955      863.065
05/22/2014  08:46:00      106.737        6.522       95.324      144.208      133.414      106.548    20796.051    17799.283    11352.377        3.522        2.497      106.936       98.276        0.845      339.406       12.714      863.055
05/22/2014  08:47:00      198.614     -145.427        5.748       81.838       82.048       63.818     6697.423     6731.803     4072.782        3.906        0.875      246.164       52.839        0.046      339.197       12.362      863.056
05/22/2014  08:48:00       58.717       -1.939       69.763       65.987      108.432       56.238     4354.260    11757.516     3162.753        1.379        0.964       58.749       66.084        1.265      339.501       12.878      863.081
05/22/2014  08:49:00       55.874       72.533      120.261       90.283       85.866       63.233     8150.997     7372.969     3998.474        2.118        0.976       91.558       60.419        0.435      339.625       13.086      863.100
05/22/2014  08:50:00      129.814       19.495       58.397      105.990      107.135       62.790    11233.921    11477.868     3942.571        2.364        1.333      131.270       41.879        0.102      339.432       12.760      863.101
05/22/2014  08:51:00      185.585     -169.231       -0.784      135.871      144.976       83.831    18460.868    21018.143     7027.578        5.478        2.325      251.159      110.651        0.194      339.382       12.674      863.116
05/22/2014  08:52:00      221.365     -273.233      -48.347       91.452      111.856       58.774     8363.483    12511.817     3454.328        7.516        1.216      351.652       61.933        0.031      339.215       12.393      863.129
05/22/2014  08:53:00      236.965     -290.083      -72.405       86.567       91.481       45.631     7493.814     8368.795     2082.184        8.174        0.897      374.567       31.273        0.007      339.126       12.242      863.134
05/22/2014  08:54:00      193.954     -273.612      -20.626       79.111       81.897       45.732     6258.608     6707.150     2091.386        6.398        0.753      335.383       40.596        0.015      339.131       12.251      863.157
05/22/2014  08:55:00       28.315     -170.176       -8.291       68.557       73.155       52.557     4700.066     5351.680     2762.217        2.132        0.641      172.515       29.176        0.029      339.419       12.737      863.160
05/22/2014  08:56:00      137.606     -174.901      -15.678       67.453       69.217       39.751     4549.955     4791.035     1580.161        3.034        0.546      222.544       27.436        0.015      339.350       12.621      863.164
05/22/2014  08:57:00      144.715     -173.282      -23.062       81.676       80.069       48.174     6670.926     6411.087     2320.759        3.345        0.770      225.763       59.392        0.069      339.273       12.491      863.167
05/22/2014  08:58:00       33.585      -76.666       27.605       52.788       91.092       44.791     2786.593     8297.704     2006.229        1.043        0.655       83.699       49.591        0.351      339.749       13.295      863.152
05/22/2014  08:59:00       47.423      -77.239       22.362       80.862      127.784       75.630     6538.672    16328.755     5719.846        1.865        1.429       90.635       79.112        0.762      339.847       13.460      863.109
05/22/2014  09:00:00      -24.593       19.952       58.091       52.294       74.169       45.184     2734.697     5501.087     2041.596        0.733        0.514       31.669       43.175        1.859      340.024       13.762      863.098
05/22/2014  09:01:00      102.628      -13.410       67.397      105.619       99.695       63.668    11155.393     9939.145     4053.588        2.020        1.257      103.500       66.102        0.408      339.747       13.292      863.099
05/22/2014  09:02:00      161.788     -102.730       19.655      107.560      150.471       70.812    11569.192    22641.415     5014.349        3.816        1.961      191.647       89.631        0.219      339.621       13.079      863.095
05/22/2014  09:03:00       57.712       93.968      129.030       81.908      117.925       79.310     6708.901    13906.397     6290.009        2.785        1.345      110.275       76.778        0.485      340.011       13.736      863.118
05/22/2014  09:04:00      120.862       51.964      105.715      112.801      106.402       69.334    12724.005    11321.457     4807.212        2.866        1.443      131.559       84.506        0.413      339.638       13.106      863.145
05/22/2014  09:05:00       65.295       33.737       57.869       91.498       55.230       60.327     8371.905     3050.303     3639.301        1.190        0.753       73.496       53.009        0.520      339.640       13.110      863.135
05/22/2014  09:06:00      118.398       -9.262       63.862      107.590      101.481       71.087    11575.600    10298.334     5053.403        2.255        1.346      118.760       81.586        0.472      339.526       12.917      863.124
05/22/2014  09:07:00      158.898       38.196      105.837      119.735      122.524       85.771    14336.541    15012.220     7356.668        3.730        1.835      163.424       85.320        0.273      339.498       12.870      863.117
05/22/2014  09:08:00      126.527       91.280      122.524       83.521       79.312       62.776     6975.811     6290.447     3940.852        2.828        0.860      156.017       49.961        0.103      339.403       12.710      863.131
05/22/2014  09:09:00       76.354       76.575       79.978       84.568       77.669       71.092     7151.701     6032.434     5054.016        1.816        0.912      108.137       63.838        0.349      339.777       13.341      863.124
05/22/2014  09:10:00      110.426       44.279       39.331       66.540       73.155       58.536     4427.545     5351.720     3426.415        1.445        0.660      118.973       32.370        0.074      339.779       13.347      863.122
05/22/2014  09:11:00      150.095      103.727       52.729       64.512       39.713       48.516     4161.757     1577.119     2353.842        2.208        0.405      182.449       42.068        0.053      339.387       12.684      863.102
05/22/2014  09:12:00      107.875       97.581       66.373       68.170       48.155       45.579     4647.100     2318.943     2077.456        1.730        0.452      145.462       40.623        0.078      339.479       12.840      863.062
05/22/2014  09:13:00       13.711      -42.334       32.201       59.085       81.723       55.167     3491.078     6678.633     3043.381        0.811        0.661       44.499       55.436        1.552      339.811       13.400      863.057
05/22/2014  09:14:00       69.043       30.573       81.263       83.228      118.710       79.022     6926.851    14092.009     6244.404        1.978        1.363       75.509       83.951        1.236      339.806       13.391      863.052
05/22/2014  09:15:00        9.113       36.834       87.480       57.987      103.663       67.432     3362.530    10746.114     4547.008        1.387        0.933       37.945       63.821        2.829      339.837       13.444      863.056
05/22/2014  09:16:00       29.870       30.949       70.127       44.913       71.025       47.699     2017.210     5044.609     2275.150        0.805        0.467       43.013       41.317        0.923      340.279       14.191      863.063
05/22/2014  09:17:00       41.509      106.161      118.556       71.339       73.041       53.414     5089.273     5334.985     2853.021        2.016        0.664      113.988       43.609        0.146      339.905       13.557      863.036
05/22/2014  09:18:00      103.263       56.775       74.652      112.962      126.713       87.187    12760.496    16056.249     7601.587        2.793        1.821      117.841       75.191        0.407      339.704       13.217      863.040
05/22/2014  09:19:00       99.006      -67.019       36.777       98.472      104.601       76.293     9696.705    10941.331     5820.685        2.105        1.323      119.556       55.478        0.215      340.011       13.737      863.042
05/22/2014  09:20:00      108.105       16.741       96.666      104.441      104.960       64.303    10907.978    11016.500     4134.836        2.368        1.303      109.394       61.549        0.317      339.931       13.601      863.061
05/22/2014  09:21:00       41.649       60.424       79.308       69.773       65.315       51.475     4868.319     4266.112     2649.671        1.173        0.589       73.387       28.782        0.154      339.892       13.536      863.070
05/22/2014  09:22:00      132.912     -180.518      -15.146      106.353       84.048       43.884    11310.969     7064.007     1925.843        3.539        1.015      224.170       28.904        0.017      339.663       13.149      863.078
05/22/2014  09:23:00       94.687      -47.925       52.877       64.896       81.698       65.679     4211.488     6674.598     4313.763        1.463        0.760      106.124       47.900        0.204      340.058       13.818      863.059
05/22/2014  09:24:00      109.691      137.255      132.498       59.955       71.609       39.645     3594.628     5127.796     1571.712        2.936        0.515      175.702       26.259        0.022      339.732       13.266      863.064
05/22/2014  09:25:00       50.979       94.622       94.167       70.300       68.595       53.897     4942.134     4705.273     2904.870        1.648        0.628      107.481       42.657        0.158      340.076       13.847      863.060
05/22/2014  09:26:00       19.450       35.865       69.128       67.795       69.341       58.351     4596.154     4808.216     3404.857        0.962        0.640       40.799       39.502        0.937      340.159       13.987      863.058
05/22/2014  09:27:00      197.427      121.154       70.604       96.089       78.273       75.825     9233.142     6126.594     5749.375        3.987        1.055      231.637       53.450        0.053      339.553       12.961      863.046
05/22/2014  09:28:00      103.081       98.495       90.481       85.923       63.418       75.288     7382.713     4021.899     5668.347        2.279        0.854      142.573       56.819        0.159      339.621       13.078      863.048
05/22/2014  09:29:00       78.155      116.728      116.313       93.245       71.418       56.970     8694.541     5100.509     3245.638        2.515        0.852      140.476       52.912        0.142      339.555       12.967      863.050
05/22/2014  09:30:00      175.830       95.892       51.634       83.243       87.791       69.657     6929.361     7707.221     4852.116        3.113        0.974      200.279       30.659        0.023      339.682       13.179      863.050
05/22/2014  09:31:00      150.672      114.464       10.133       79.486       68.235       53.244     6318.026     4655.956     2834.922        2.486        0.690      189.220       31.324        0.027      339.883       13.519      863.053
05/22/2014  09:32:00      177.604      134.813       59.553       67.555       57.250       65.725     4563.630     3277.610     4319.821        3.271        0.608      222.974       39.629        0.032      339.886       13.522      863.061
05/22/2014  09:33:00      262.863      136.446       40.529       85.255       67.749       52.968     7268.378     4589.987     2805.559        5.201        0.733      296.166       36.111        0.015      339.601       13.044      863.063
05/22/2014  09:34:00      169.112       87.838       41.838       78.996       84.081       63.992     6240.331     7069.581     4094.935        2.773        0.870      190.564       39.162        0.042      339.953       13.638      863.046
05/22/2014  09:35:00      131.866       67.768       34.423       85.237       72.097       62.607     7265.334     5197.969     3919.610        1.977        0.819      148.260       41.176        0.077      340.121       13.922      863.038
05/22/2014  09:36:00      217.348      130.680       38.945       82.019       70.946       58.553     6727.050     5033.390     3428.411        4.051        0.759      253.609       39.866        0.025      339.696       13.204      863.014
05/22/2014  09:37:00      118.761       78.722       29.609       90.198       60.481       56.421     8135.697     3657.972     3183.372        1.807        0.749      142.483       48.692        0.117      340.275       14.183      863.003
05/22/2014  09:38:00      159.152      114.739       87.419      130.468       63.886       70.741    17021.922     4081.385     5004.232        3.612        1.305      196.200       80.180        0.167      339.959       13.647      862.991
05/22/2014  09:39:00      106.612      166.369      170.573       98.955      108.998       72.034     9792.075    11880.635     5188.907        4.750        1.343      197.597       64.238        0.106      339.690       13.193      862.996
05/22/2014  09:40:00      159.426      122.291       87.222      111.401       93.318       89.224    12410.256     8708.309     7960.980        3.852        1.454      200.927       67.759        0.114      339.591       13.025      863.005
05/22/2014  09:41:00       67.626      137.158      141.551       80.317       64.652       58.096     6450.809     4179.848     3375.141        2.871        0.700      152.923       51.042        0.111      339.850       13.464      862.999
05/22/2014  09:42:00       70.025      -92.897       30.651       94.503      138.113       59.489     8930.779    19075.337     3538.955        2.300        1.577      116.333       73.417        0.398      339.973       13.673      863.008
05/22/2014  09:43:00       53.098       32.096       78.036       73.052       67.867       54.649     5336.561     4605.929     2986.556        1.143        0.646       62.045       50.454        0.661      340.319       14.258      862.998
05/22/2014  09:44:00       79.904      -19.776       50.597       81.827      137.858       73.539     6695.595    19004.801     5407.971        2.022        1.555       82.315       79.438        0.931      340.175       14.013      862.993
05/22/2014  09:45:00       21.233      -71.882       26.078       40.091       86.939       38.821     1607.300     7558.422     1507.061        0.848        0.534       74.952       46.313        0.382      340.249       14.139      862.988
05/22/2014  09:46:00       37.291      -36.129       25.448       32.099       48.444       36.455     1030.359     2346.858     1328.967        0.402        0.235       51.922       34.623        0.445      340.451       14.481      862.974
05/22/2014  09:47:00       67.870      -46.076       15.705       51.560       95.019       47.448     2658.443     9028.555     2251.294        1.045        0.697       82.033       48.070        0.343      340.303       14.232      862.959
05/22/2014  09:48:00      112.427       73.823       20.211       46.567       43.740       35.029     2168.479     1913.213     1227.015        1.190        0.265      134.498       13.727        0.010      339.892       13.536      862.949
05/22/2014  09:49:00       21.130      -23.141       17.302       39.901       91.259       39.056     1592.087     8328.289     1525.359        0.636        0.572       31.337       42.063        1.802      340.131       13.940      862.942
05/22/2014  09:50:00        7.830      -38.842       55.541       43.892       74.479       48.346     1926.476     5547.116     2337.299        0.723        0.491       39.623       43.516        1.206      340.577       14.692      862.944
05/22/2014  09:51:00      161.216       42.997       47.652      106.276       69.622       64.796    11294.594     4847.178     4198.476        2.522        1.017      166.851       61.372        0.135      340.204       14.060      862.952
05/22/2014  09:52:00      112.179       89.877       79.579       88.868       68.058       61.946     7897.433     4631.850     3837.343        2.168        0.818      143.743       52.072        0.131      340.314       14.249      862.978
05/22/2014  09:53:00      169.537       95.066       24.245       58.332       83.784       52.013     3402.589     7019.818     2705.341        2.575        0.656      194.372       20.823        0.011      339.783       13.352      862.988
05/22/2014  09:54:00       63.786       46.820       47.970       72.692       97.127       53.553     5284.192     9433.617     2867.934        1.307        0.879       79.125       57.572        0.529      340.187       14.034      862.994
05/22/2014  09:55:00      103.717       64.173       64.667      111.240      103.571       58.715    12374.241    10726.978     3447.496        2.280        1.327      121.965       50.946        0.174      340.316       14.253      863.002
05/22/2014  09:56:00       59.352       64.355       79.331       78.754       57.511       50.696     6202.152     3307.460     2570.063        1.302        0.604       87.546       43.505        0.247      340.542       14.634      862.999
05/22/2014  09:57:00       65.108      -17.707       51.067       82.267       95.603       59.583     6767.907     9139.952     3550.112        1.331        0.973       67.473       52.158        0.598      340.324       14.267      863.023
05/22/2014  09:58:00      103.949        0.426       28.326      105.489       98.801       50.429    11128.002     9761.582     2543.041        1.752        1.172      103.950       47.526        0.209      340.413       14.416      863.019
05/22/2014  09:59:00       56.622        6.001       34.589       87.511       81.913       37.329     7658.186     6709.758     1393.420        1.010        0.788       56.939       25.724        0.204      340.485       14.537      863.026
05/22/2014  10:00:00       38.735       36.657       50.210       79.662       83.014       40.391     6345.977     6891.263     1631.394        1.011        0.743       53.331       39.562        0.550      340.809       15.087      863.038
05/22/2014  10:01:00      168.538      109.866       40.413       80.624       52.070       46.276     6500.209     2711.256     2141.429        2.673        0.568      201.185       27.718        0.019      339.697       13.207      863.040
05/22/2014  10:02:00      110.615       73.108       21.955       52.363       38.452       38.805     2741.841     1478.526     1505.849        1.189        0.286      132.591       16.571        0.016      339.894       13.540      863.036
05/22/2014  10:03:00       32.533       36.296       23.416       49.266       27.278       35.191     2427.116      744.100     1238.398        0.367        0.220       48.742       20.327        0.174      340.383       14.367      863.021
05/22/2014  10:04:00        2.874       -1.693        9.677       42.127       41.413       34.130     1774.660     1715.012     1164.859        0.238        0.233        3.336       30.831       85.427      340.549       14.647      863.022
05/22/2014  10:05:00       70.208      -25.289        1.058       75.042       78.820       41.268     5631.261     6212.605     1703.044        0.956        0.677       74.624       34.683        0.216      340.384       14.368      863.015
05/22/2014  10:06:00      181.125     -115.019       20.808       75.840      136.740       68.793     5751.745    18697.724     4732.510        3.782        1.459      214.560       84.177        0.154      339.923       13.586      862.994
05/22/2014  10:07:00       91.949      -30.663       66.135      117.445      162.004       88.948    13793.441    26245.365     7911.814        3.085        2.398       96.927      111.988        1.335      340.568       14.677      862.964
05/22/2014  10:08:00       88.837      -13.659       72.201      107.158      129.525       83.049    11482.756    16776.789     6897.074        2.422        1.758       89.881       83.862        0.871      340.494       14.554      862.971
05/22/2014  10:09:00      113.028       12.434       73.899      111.762      137.000       95.604    12490.854    18769.078     9140.088        2.939        2.020      113.710       80.867        0.506      340.263       14.161      862.967
05/22/2014  10:10:00       39.125      -32.934       61.504       85.372      136.068       94.739     7288.315    18514.487     8975.397        2.058        1.739       51.141       99.610        3.794      340.847       15.151      862.975
05/22/2014  10:11:00      167.281     -221.170      -53.186      140.453      145.242       84.691    19727.049    21095.208     7172.505        6.385        2.400      277.307       87.902        0.100      340.086       13.861      862.987
05/22/2014  10:12:00      139.631     -165.677       40.399      124.140      226.094      136.095    15410.825    51118.604    18521.716        6.680        4.253      216.669      154.510        0.509      340.119       13.916      862.996
05/22/2014  10:13:00       61.801       87.727      133.869       88.934      105.844       80.177     7909.197    11203.057     6428.424        2.748        1.277      107.309       82.823        0.596      340.018       13.749      863.058
05/22/2014  10:14:00       72.853     -131.480        7.706       49.511       80.653       48.438     2451.316     6504.853     2346.274        1.698        0.565      150.315       39.078        0.068      340.196       14.049      863.068
05/22/2014  10:15:00       17.268       41.583      103.684       70.716      105.268       72.560     5000.820    11081.371     5264.960        1.706        1.067       45.026       77.337        2.950      340.756       14.995      863.083
05/22/2014  10:16:00       83.995       95.436      117.456      132.093       94.625       79.366    17448.557     8953.850     6298.976        3.132        1.635      127.134       76.029        0.358      340.317       14.252      863.104
05/22/2014  10:17:00       -8.006        5.106       10.072       35.124       31.143       25.405     1233.682      969.896      645.424        0.152        0.142        9.495       16.295        2.945      340.701       14.903      863.151
05/22/2014  10:18:00      -18.569       10.167       35.882       29.166       31.522       39.121      850.657      993.658     1530.428        0.255        0.169       21.170       20.730        0.959      341.244       15.822      863.157
05/22/2014  10:19:00       35.954      -94.096       18.413       42.993       96.602       53.192     1848.360     9331.955     2829.437        1.224        0.700      100.731       40.728        0.163      340.558       14.662      863.164
05/22/2014  10:20:00        5.991      -59.109       14.153       66.516       67.892       45.772     4424.370     4609.375     2095.114        0.743        0.556       59.411       28.692        0.233      340.491       14.548      863.161
05/22/2014  10:21:00       -8.266      -55.116       39.534       43.217       61.141       36.136     1867.713     3738.180     1305.804        0.579        0.346       55.732       29.529        0.281      340.974       15.365      863.173
05/22/2014  10:22:00       93.165     -111.552       14.492       96.045      103.486       75.672     9224.573    10709.423     5726.250        2.349        1.283      145.339       76.259        0.275      340.561       14.664      863.148
05/22/2014  10:23:00      -76.485       20.477        7.316       62.162       58.288       50.042     3864.079     3397.518     2504.216        0.804        0.488       79.178       48.245        0.371      340.464       14.502      863.160
05/22/2014  10:24:00        2.387       54.263       17.148       59.077       41.774       35.009     3490.107     1745.087     1225.629        0.485        0.323       54.315       24.221        0.199      340.767       15.016      863.143
05/22/2014  10:25:00      -19.358       17.388       -0.290       40.695       39.062       22.679     1656.111     1525.828      514.338        0.219        0.185       26.021       17.990        0.478      340.920       15.275      863.135
05/22/2014  10:26:00      -23.471        5.126        4.053       27.794       18.628       20.734      772.487      347.007      429.882        0.107        0.077       24.024       15.634        0.423      341.145       15.655      863.132
05/22/2014  10:27:00      -30.369      -37.851        4.944       30.636       44.559       29.295      938.559     1985.491      858.206        0.308        0.189       48.528       15.724        0.105      340.849       15.153      863.125
05/22/2014  10:28:00       33.080     -147.904       17.566       59.013       86.832       59.297     3482.498     7539.769     3516.159        1.891        0.727      151.558       46.907        0.096      340.676       14.860      863.131
05/22/2014  10:29:00       79.686     -208.309      -11.444       48.079       61.331       40.084     2311.622     3761.488     1606.712        2.878        0.384      223.030       23.932        0.012      340.079       13.849      863.151
05/22/2014  10:30:00       48.927       15.062       36.132       60.112       40.210       42.285     3613.481     1616.826     1787.998        0.547        0.351       51.192       42.083        0.676      340.554       14.654      863.163
05/22/2014  10:31:00       32.802       43.111       69.313       56.511       49.024       35.280     3193.478     2403.360     1244.657        0.729        0.342       54.171       38.671        0.510      340.654       14.823      863.157
05/22/2014  10:32:00       61.683      -52.351       43.201       70.982       82.293       67.281     5038.397     6772.089     4526.735        1.237        0.817       80.904       56.554        0.489      340.866       15.182      863.151
05/22/2014  10:33:00       61.829       15.293       59.438       92.870       72.052       56.975     8624.751     5191.445     3246.189        1.232        0.853       63.692       54.022        0.719      340.635       14.791      863.165
05/22/2014  10:34:00       34.595      -14.312       54.466       80.971      141.994       76.689     6556.372    20162.280     5881.131        1.848        1.630       37.439       96.364        6.625      340.747       14.979      863.183
05/22/2014  10:35:00       98.614      -78.563        1.670       55.773       65.339       39.882     3110.663     4269.180     1590.535        1.243        0.449      126.083       43.204        0.117      340.483       14.536      863.203
05/22/2014  10:36:00      104.782      -48.375       39.323      101.430      110.780       72.374    10288.132    12272.151     5237.989        2.133        1.390      115.410       70.335        0.371      340.686       14.878      863.197
05/22/2014  10:37:00       79.498       15.738       58.222       92.725      113.504       50.787     8597.988    12883.118     2579.300        1.700        1.203       81.041       50.866        0.394      340.620       14.765      863.196
05/22/2014  10:38:00      112.925       88.482       95.218       92.707       87.837       62.238     8594.527     7715.344     3873.566        2.491        1.009      143.461       52.685        0.135      340.703       14.905      863.199
05/22/2014  10:39:00      195.561       77.475       69.460      110.595       97.907       85.304    12231.358     9585.847     7276.849        3.908        1.455      210.348       64.598        0.094      340.479       14.526      863.184
05/22/2014  10:40:00       54.752       73.680      101.397       67.278       68.203       57.344     4526.348     4651.664     3288.344        1.558        0.623       91.796       48.685        0.281      340.718       14.932      863.195
05/22/2014  10:41:00       52.132      -59.541       22.945       52.363      120.553       62.127     2741.851    14533.014     3859.764        1.396        1.057       79.138       78.803        0.992      340.650       14.816      863.192
05/22/2014  10:42:00      -13.086      -76.764       24.168       54.753       73.249       49.752     2997.933     5365.413     2475.279        0.874        0.542       77.871       37.663        0.234      341.218       15.779      863.185
05/22/2014  10:43:00       32.255        5.137       67.433       83.857      100.476       62.725     7031.938    10095.393     3934.459        1.333        1.053       32.661       51.630        2.499      340.765       15.012      863.172
05/22/2014  10:44:00       61.808       88.720      113.100      102.644      106.887       64.746    10535.743    11424.851     4191.998        2.531        1.308      108.127       62.298        0.332      340.644       14.805      863.178
05/22/2014  10:45:00      181.425      144.562       53.175       75.920       53.526       55.592     5763.898     2865.049     3090.499        3.418        0.586      231.977       42.455        0.033      340.260       14.153      863.180
05/22/2014  10:46:00       53.829      -35.997        3.432       78.402      112.162       57.395     6146.915    12580.305     3294.135        1.311        1.101       64.756       45.316        0.490      340.824       15.109      863.184
05/22/2014  10:47:00      123.868      120.836      136.758      103.686      120.146       92.236    10750.861    14435.055     8507.402        4.116        1.685      173.045       87.186        0.254      340.615       14.755      863.194
05/22/2014  10:48:00      200.120      129.641       29.964       82.467       67.972       62.824     6800.815     4620.135     3946.862        3.656        0.768      238.442       35.422        0.022      340.186       14.027      863.207
05/22/2014  10:49:00      122.360       72.208       40.975       68.935       75.514       54.961     4751.981     5702.313     3020.672        1.767        0.674      142.077       26.650        0.035      340.726       14.944      863.188
05/22/2014  10:50:00      162.932      135.564      101.298      127.848       75.397       67.643    16345.074     5684.701     4575.614        4.089        1.330      211.954       73.260        0.119      340.703       14.904      863.166
05/22/2014  10:51:00       43.697       19.938       40.495       66.197       82.337       36.965     4382.060     6779.363     1366.423        0.823        0.626       48.030       39.000        0.659      340.582       14.703      863.167
05/22/2014  10:52:00       21.730      -99.456      -10.883       63.842       51.234       36.368     4075.781     2624.924     1322.642        0.925        0.401      101.802        8.440        0.007      340.451       14.480      863.117
05/22/2014  10:53:00       60.711      -40.056       35.589       64.478      111.467       59.343     4157.409    12424.909     3521.581        1.333        1.005       72.735       59.785        0.676      340.771       15.021      863.075
05/22/2014  10:54:00      176.239      129.308       42.744      103.971       54.231       67.220    10809.955     2940.996     4518.509        3.393        0.913      218.588       58.276        0.071      340.952       15.324      863.067
05/22/2014  10:55:00      124.716      106.992       70.360       70.250       46.989       64.318     4935.053     2207.955     4136.791        2.161        0.564      164.321       38.003        0.053      340.942       15.309      863.090
05/22/2014  10:56:00      184.726      131.444       65.711      159.295      102.837       96.697    25374.905    10575.478     9350.317        5.050        2.265      226.719       69.748        0.095      340.960       15.340      863.075
05/22/2014  10:57:00      300.226      171.422       31.609      168.045       86.153       78.179    28239.063     7422.336     6111.891        8.114        2.089      345.718       56.734        0.027      340.486       14.538      863.080
05/22/2014  10:58:00      224.660      150.884       16.327      111.286       72.084       65.284    12384.524     5196.160     4261.947        4.767        1.092      270.626       29.407        0.012      340.433       14.447      863.112
05/22/2014  10:59:00      175.045       82.667       19.567       73.059       56.445       55.908     5337.593     3185.999     3125.695        2.475        0.582      193.584       50.539        0.068      340.607       14.741      863.119
05/22/2014  11:00:00       99.420      137.013      -10.119       61.799       58.895       43.973     3819.061     3468.581     1933.626        1.899        0.461      169.283       38.274        0.051      340.581       14.698      863.124
05/22/2014  11:01:00      -28.311       57.996        8.128       35.397       35.151       34.474     1252.976     1235.565     1188.461        0.395        0.184       64.537       25.115        0.151      340.889       15.223      863.130
05/22/2014  11:02:00       48.320       32.256       28.875       54.540       78.216       48.885     2974.615     6117.764     2389.723        0.784        0.574       58.097       37.987        0.428      340.999       15.408      863.129
05/22/2014  11:03:00       97.572      -10.766       66.215       97.719      111.382       73.168     9549.032    12405.971     5353.546        2.066        1.365       98.164       62.681        0.408      341.046       15.486      863.102
05/22/2014  11:04:00      -15.727       37.988       31.817       73.747       62.956       40.900     5438.548     3963.498     1672.792        0.689        0.554       41.115       12.531        0.093      340.929       15.289      863.128
05/22/2014  11:05:00       46.880      -28.370       14.370       39.571       83.306       41.409     1565.859     6939.888     1714.695        0.671        0.511       54.796       35.899        0.429      341.344       15.992      863.103
05/22/2014  11:06:00       72.203     -100.682       27.428       60.591       85.249       52.058     3671.250     7267.338     2709.983        1.487        0.682      123.895       38.551        0.097      341.423       16.124      863.089
05/22/2014  11:07:00       17.638       19.180       58.337       53.005      106.958       66.426     2809.501    11440.104     4412.347        1.137        0.933       26.057       67.172        6.646      341.275       15.875      863.098
05/22/2014  11:08:00       -5.133      -13.573       -1.413       32.112       54.970       37.409     1031.157     3021.718     1399.426        0.283        0.273       14.511       30.116        4.307      341.011       15.428      863.078
05/22/2014  11:09:00       33.568       34.356       60.864       48.709       73.436       48.466     2372.576     5392.796     2348.960        0.806        0.506       48.033       46.446        0.935      341.699       16.594      863.076
05/22/2014  11:10:00       15.335      -83.003       15.552       44.559       96.742       54.729     1985.526     9358.931     2995.228        1.085        0.717       84.408       51.279        0.369      341.408       16.098      863.079
05/22/2014  11:11:00      191.099      126.067      112.417      136.023      170.062      104.212    18502.196    28921.072    10860.238        6.165        2.914      228.936      104.068        0.207      341.158       15.675      863.064
05/22/2014  11:12:00      236.165      162.320       68.314      121.943       71.200       52.058    14870.036     5069.417     2710.006        5.471        1.132      286.569       48.365        0.028      340.489       14.542      863.090
05/22/2014  11:13:00      168.169      104.029       54.331       90.639       77.635       61.387     8215.362     6027.233     3768.397        3.003        0.901      197.745       43.563        0.049      341.084       15.550      863.104
05/22/2014  11:14:00       67.631      -25.695       23.499      147.992      143.277       48.689    21901.635    20528.164     2370.618        2.528        2.240       72.348       43.805        0.367      341.233       15.802      863.102
05/22/2014  11:15:00       78.519      -73.781        8.301       45.301       85.052       40.441     2052.212     7233.878     1635.436        1.130        0.546      107.745       43.800        0.165      341.052       15.497      863.113
05/22/2014  11:16:00       21.337       -0.511       53.932       50.961       58.754       42.144     2597.017     3452.024     1776.087        0.559        0.391       21.343       37.288        3.052      341.625       16.467      863.102
05/22/2014  11:17:00       26.635      -78.888       23.301       52.678       92.367       48.176     2774.967     8531.600     2320.975        1.055        0.681       83.263       53.311        0.410      341.495       16.249      863.082
05/22/2014  11:18:00       23.280      -17.301       30.151       51.481       82.853       33.847     2650.319     6864.579     1145.587        0.620        0.533       29.005       43.257        2.224      341.716       16.624      863.075
05/22/2014  11:19:00       95.238     -130.983       38.464      106.199      151.245       92.933    11278.267    22875.162     8636.588        3.524        2.140      161.947      107.957        0.444      341.013       15.428      863.059
05/22/2014  11:20:00       52.714      -33.232       20.366       43.834       68.311       47.404     1921.405     4666.386     2247.150        0.656        0.442       62.315       48.459        0.605      341.137       15.642      863.040
05/22/2014  11:21:00       10.774      -14.263       41.998       41.183       61.889       28.783     1696.070     3830.252      828.457        0.422        0.318       17.875       23.530        1.733      341.313       15.939      863.033
05/22/2014  11:22:00       -4.354       44.384       29.223       25.915       44.306       35.537      671.613     1963.031     1262.914        0.337        0.195       44.597       25.136        0.318      341.953       17.025      863.048
05/22/2014  11:23:00      -30.611      -13.259       20.954       36.458       27.120       17.818     1329.169      735.472      317.490        0.197        0.119       33.359       15.548        0.217      342.048       17.186      863.050
05/22/2014  11:24:00       95.712       73.913       27.212       34.979       34.176       39.541     1223.524     1167.994     1563.467        0.966        0.198      120.929       18.065        0.022      341.523       16.294      863.049
05/22/2014  11:25:00      167.729      126.502       13.972       59.276       52.399       42.955     3513.658     2745.688     1845.098        2.622        0.405      210.085       24.529        0.014      341.343       15.987      863.062
05/22/2014  11:26:00       79.468       64.463       14.541       64.447       55.355       48.099     4153.407     3064.173     2313.484        1.010        0.477      102.326       38.153        0.139      341.391       16.071      863.074
05/22/2014  11:27:00       42.722       21.472        0.072       65.576       96.412       45.738     4300.258     9295.287     2091.968        0.898        0.784       47.815       35.677        0.557      341.558       16.353      863.074
05/22/2014  11:28:00      117.486       76.506       10.328       61.002       40.160       40.840     3721.296     1612.800     1667.917        1.338        0.350      140.200       20.634        0.022      341.239       15.813      863.090
05/22/2014  11:29:00       34.052       52.338       47.830       52.020       34.617       34.338     2706.102     1198.311     1179.110        0.563        0.254       62.441       25.388        0.165      341.432       16.140      863.112
05/22/2014  11:30:00       42.803       35.623       27.215       52.665       33.755       29.549     2773.571     1139.391      873.118        0.431        0.239       55.688       18.523        0.111      341.468       16.202      863.116
05/22/2014  11:31:00       17.004       30.506       23.428       53.137       40.964       29.434     2823.509     1678.054      866.353        0.357        0.268       34.925       25.011        0.513      342.056       17.200      863.117
05/22/2014  11:32:00       74.115      -19.490       42.119      100.847       92.677       56.728    10170.172     8589.058     3218.114        1.481        1.099       76.635       66.220        0.747      341.545       16.331      863.119
05/22/2014  11:33:00      122.634       21.484       64.438       70.079      138.405       81.123     4911.004    19155.914     6580.886        2.514        1.532      124.502       97.461        0.613      341.163       15.684      863.115
05/22/2014  11:34:00       88.956      112.494      109.057       82.585       75.991       54.434     6820.304     5774.558     2963.012        2.401        0.778      143.416       49.989        0.121      341.314       15.938      863.121
05/22/2014  11:35:00      169.589      124.880       55.958       81.979       50.785       65.647     6720.503     2579.140     4309.509        3.055        0.680      210.607       45.881        0.047      341.099       15.573      863.121
05/22/2014  11:36:00       -2.152       -6.734       68.757       61.778       92.045       44.904     3816.509     8472.257     2016.374        0.954        0.715        7.069       49.711       49.449      341.858       16.862      863.133
05/22/2014  11:37:00       84.797      -10.362       79.811       92.279      108.234       91.056     8515.487    11714.565     8291.143        2.109        1.426       85.428       90.585        1.124      341.909       16.948      863.137
05/22/2014  11:38:00      104.149      -45.405       55.103       86.326       95.163       70.460     7452.258     9055.996     4964.613        1.870        1.074      113.616       63.252        0.310      341.390       16.069      863.141
05/22/2014  11:39:00       47.150      -18.383       62.311       78.198      103.383       45.590     6114.851    10687.992     2078.464        1.266        0.944       50.607       42.198        0.695      341.591       16.411      863.130
05/22/2014  11:40:00       15.988     -116.562       -7.823       57.849       75.311       35.695     3346.506     5671.795     1274.140        1.210        0.515      117.653       35.835        0.093      341.415       16.111      863.114
05/22/2014  11:41:00       18.053     -117.536      -15.617       57.826       58.588       55.198     3343.812     3432.519     3046.820        1.210        0.491      118.914       37.957        0.102      341.330       15.968      863.104
05/22/2014  11:42:00       79.404     -105.657       17.421       84.414      114.703       63.503     7125.738    13156.889     4032.657        2.104        1.216      132.168       63.590        0.231      341.767       16.707      863.094
05/22/2014  11:43:00       68.969       32.985       79.530       85.091      144.494       83.967     7240.439    20878.470     7050.469        2.366        1.758       76.451       76.092        0.991      341.795       16.753      863.096
05/22/2014  11:44:00       66.720      -22.607       58.093       90.592      121.532       69.960     8206.883    14770.117     4894.448        1.810        1.394       70.446       74.982        1.133      341.696       16.588      863.095
05/22/2014  11:45:00       87.333      -12.856       45.688       74.616       75.111       65.016     5567.485     5641.682     4227.067        1.265        0.772       88.274       60.142        0.464      341.711       16.613      863.089
05/22/2014  11:46:00       67.052      -34.593       67.484       93.146      128.017       77.740     8676.103    16388.391     6043.520        2.067        1.555       75.450       86.094        1.302      341.861       16.867      863.062
05/22/2014  11:47:00       47.416       -9.332       64.502       73.268       92.873       57.593     5368.136     8625.395     3316.974        1.190        0.866       48.325       51.203        1.123      341.834       16.821      863.079
05/22/2014  11:48:00       90.314        7.012       31.070       89.060       60.257       56.339     7931.721     3630.948     3174.091        1.195        0.737       90.586       43.547        0.231      341.743       16.668      863.085
05/22/2014  11:49:00      144.551       71.131       -3.734      104.522       81.467       50.545    10924.884     6636.889     2554.773        2.304        1.006      161.105       26.963        0.028      341.183       15.717      863.079
05/22/2014  11:50:00       44.496       85.369        7.563       65.720       71.119       42.843     4319.073     5057.959     1835.486        1.027        0.561       96.269       34.880        0.131      341.490       16.239      863.048
05/22/2014  11:51:00      138.247       85.973       54.168      103.269       77.519       67.508    10664.403     6009.148     4557.359        2.533        1.062      162.799       40.102        0.061      341.534       16.313      863.029
05/22/2014  11:52:00      142.323       82.565      109.113      135.700      108.336       75.083    18414.535    11736.765     5637.399        3.738        1.789      164.538       48.233        0.086      341.868       16.879      863.012
05/22/2014  11:53:00      129.062      -17.615       70.717      124.223      113.676       79.683    15431.341    12922.129     6349.397        2.833        1.735      130.258       69.776        0.287      341.948       17.015      863.016
05/22/2014  11:54:00      142.880      -15.073       87.442      121.352      157.211       92.688    14726.192    24715.387     8591.014        3.815        2.402      143.673      116.700        0.660      341.637       16.487      863.065
05/22/2014  11:55:00      120.972     -125.546       24.803       94.730      141.248       76.274     8973.860    19951.060     5817.723        3.287        1.737      174.344       97.514        0.313      341.352       16.003      863.100
05/22/2014  11:56:00      143.795     -109.918        0.412       53.843       48.849       44.623     2899.078     2386.204     1991.220        2.002        0.364      180.994       35.369        0.038      340.977       15.369      863.101
05/22/2014  11:57:00       58.178      -34.897       34.078       39.761       52.215       41.230     1580.944     2726.376     1699.911        0.588        0.300       67.842       34.834        0.264      341.327       15.964      863.099
05/22/2014  11:58:00       38.938       26.676       70.612       55.493       89.143       61.585     3079.432     7946.397     3792.667        1.101        0.741       47.199       60.801        1.659      341.794       16.755      863.085
05/22/2014  11:59:00        4.551       -0.867       43.097       35.274       76.440       65.129     1244.246     5843.126     4241.840        0.660        0.566        4.633       63.374      187.144      341.546       16.334      863.095
05/22/2014  12:00:00      -71.259      -16.449      -14.827       26.175       23.765       20.590      685.124      564.766      423.928        0.362        0.084       73.132       10.320        0.020      341.033       15.466      863.071
05/22/2014  12:01:00      -77.642        3.858      -14.320       31.718       25.492       14.834     1006.033      649.845      220.048        0.406        0.094       77.738       15.871        0.042      340.918       15.270      863.064
05/22/2014  12:02:00      -65.918       45.001       -9.734       27.432       29.814       24.092      752.504      888.871      580.405        0.434        0.111       79.814       19.931        0.062      341.315       15.942      863.052
05/22/2014  12:03:00       11.434       31.425       40.004       35.903       36.808       34.311     1289.059     1354.842     1177.244        0.327        0.191       33.441       17.763        0.282      342.469       17.900      863.031
05/22/2014  12:04:00       80.510       82.164       74.310       70.503       82.733       51.598     4970.729     6844.791     2662.393        1.661        0.724      115.034       53.436        0.216      341.893       16.923      863.027
05/22/2014  12:05:00       31.729       15.479       38.478       41.728       78.083       62.219     1741.231     6096.936     3871.207        0.722        0.585       35.304       63.407        3.226      341.673       16.551      863.009
05/22/2014  12:06:00       72.822      111.932      117.602       74.615       79.642       68.868     5567.386     6342.909     4742.831        2.415        0.833      133.536       58.544        0.192      342.025       17.145      862.994
05/22/2014  12:07:00      107.310       53.997       86.149      122.790      147.683       98.087    15077.489    21810.180     9621.069        3.417        2.325      120.129       98.409        0.671      342.032       17.156      863.007
05/22/2014  12:08:00       87.511      -45.481       49.217       89.107      113.675       71.024     7940.104    12921.929     5044.431        1.902        1.295       98.624       73.835        0.560      341.894       16.922      863.025
05/22/2014  12:09:00      204.246      -87.313       45.903      124.309      114.271       77.850    15452.627    13057.958     6060.682        4.300        1.729      222.127       71.922        0.105      341.682       16.562      863.020
05/22/2014  12:10:00      265.635     -289.658      -22.538      118.845      183.905       90.521    14124.217    33820.871     8193.977       10.554        2.807      393.019      102.503        0.068      341.554       16.345      863.010
05/22/2014  12:11:00      117.552     -109.258       45.914      107.725      190.136      110.382    11604.759    36151.539    12184.246        4.389        2.997      160.486      136.327        0.722      341.861       16.867      863.039
05/22/2014  12:12:00      138.659       -2.775       91.490       87.739      150.344       97.752     7698.160    22603.209     9555.430        3.372        1.993      138.687      107.394        0.600      341.881       16.898      863.073
05/22/2014  12:13:00       68.574     -138.946       30.522       59.043       93.067       49.607     3486.022     8661.412     2460.868        1.977        0.730      154.947       48.592        0.098      341.963       17.039      863.070
05/22/2014  12:14:00       56.177      -91.912       10.666       62.814       88.608       50.790     3945.571     7851.357     2579.655        1.304        0.719      107.721       39.596        0.135      342.058       17.201      863.044
05/22/2014  12:15:00       16.982       19.632       84.687       57.056       73.557       53.680     3255.344     5410.574     2881.591        0.969        0.577       25.957       43.067        2.753      342.276       17.572      863.028
05/22/2014  12:16:00       65.671       93.159      115.180      103.582      117.949       88.790    10729.284    13912.016     7883.682        2.938        1.626      113.979       85.212        0.559      342.369       17.730      863.045
05/22/2014  12:17:00      185.424      133.395      115.361      131.377      115.829       93.469    17260.038    13416.391     8736.374        5.244        1.971      228.421       71.026        0.097      341.696       16.587      863.039
05/22/2014  12:18:00       46.537        2.974       56.152       78.713       99.542       57.870     6195.664     9908.702     3348.944        1.239        0.973       46.632       54.715        1.377      341.941       17.003      863.045
05/22/2014  12:19:00      175.845      111.469       26.858       70.198       72.230       57.505     4927.752     5217.143     3306.816        2.876        0.673      208.199       28.585        0.019      341.915       16.956      863.032
05/22/2014  12:20:00       75.685      133.002        0.822       74.729       67.076       45.806     5584.410     4499.244     2098.193        1.780        0.609      153.029       34.769        0.052      341.870       16.882      863.040
05/22/2014  12:21:00       45.812       92.535       12.482       54.922       60.463       40.997     3016.391     3655.757     1680.769        0.958        0.418      103.255       29.174        0.080      341.883       16.906      863.035
05/22/2014  12:22:00       74.908       53.339       39.093       83.336       84.066       43.400     6944.854     7067.042     1883.587        1.294        0.795       91.958       48.239        0.275      341.829       16.814      863.040
05/22/2014  12:23:00       -0.022       75.350        5.186      124.121       78.645       49.043    15406.143     6185.021     2405.202        1.485        1.200       75.350       60.550        0.646      341.660       16.525      863.035
05/22/2014  12:24:00      -58.693       41.149       -1.985       41.831       62.608       33.976     1749.798     3919.753     1154.377        0.598        0.341       71.681       30.939        0.186      341.866       16.877      863.026
05/22/2014  12:25:00       12.448      136.873        4.152       50.749      109.340       44.851     2575.485    11955.273     2011.605        1.772        0.827      137.438       60.039        0.191      342.112       17.293      863.038
05/22/2014  12:26:00      -33.615      212.805      -26.393       61.061       48.631       35.617     3728.413     2364.931     1268.540        2.724        0.368      215.444       11.573        0.003      341.504       16.260      863.058
05/22/2014  12:27:00       62.712      140.672        0.252       75.617       76.114       59.516     5717.877     5793.289     3542.184        1.938        0.753      154.018       52.940        0.118      341.816       16.792      863.053
05/22/2014  12:28:00       29.406       28.446       23.088       44.526       33.090       33.795     1982.536     1094.928     1142.094        0.321        0.211       40.913       20.575        0.253      342.222       17.481      863.056
05/22/2014  12:29:00      100.905       72.907        9.954       52.914       45.957       39.823     2799.935     2112.041     1585.907        1.105        0.325      124.488       23.538        0.036      341.688       16.575      863.048
05/22/2014  12:30:00       98.345       53.080        2.868       50.406       42.450       39.272     2540.766     1801.990     1542.319        0.919        0.294      111.755       22.144        0.039      341.855       16.858      863.021
05/22/2014  12:31:00       75.632       27.156        1.198       80.929       72.702       35.516     6549.472     5285.546     1261.393        0.978        0.655       80.359       30.117        0.140      341.687       16.572      863.004
05/22/2014  12:32:00       23.859     -125.101      -30.412       45.264       34.642       29.619     2048.790     1200.069      877.271        1.063        0.206      127.356       21.720        0.029      341.662       16.530      862.986
05/22/2014  12:33:00      -16.284       -6.242       -7.401       29.723       37.069       32.061      883.486     1374.096     1027.903        0.182        0.164       17.439       27.627        2.510      342.130       17.325      862.976
05/22/2014  12:34:00       -4.040      -28.053        9.615       32.633       33.598       26.356     1064.904     1128.819      694.656        0.189        0.144       28.342       23.118        0.665      342.127       17.320      862.977
05/22/2014  12:35:00       72.003      -73.616       16.131      102.717       64.041       42.101    10550.751     4101.208     1772.524        1.364        0.821      102.975       53.943        0.274      342.513       17.976      862.977
05/22/2014  12:36:00      139.710     -256.081       -4.351       88.533      140.521       57.820     7838.117    19746.080     3343.167        5.802        1.546      291.713       51.313        0.031      342.138       17.336      862.961
05/22/2014  12:37:00      180.757     -206.363       40.355      105.473      277.183       96.962    11124.626    76830.148     9401.545        8.710        4.868      274.333      131.199        0.229      342.253       17.531      862.916
05/22/2014  12:38:00      132.176     -150.512        0.337      117.528      117.087       74.704    13812.919    13709.383     5580.627        3.661        1.655      200.311       82.225        0.169      342.033       17.157      862.928
05/22/2014  12:39:00      134.183      -39.975       62.896      109.968      155.333       97.588    12093.047    24128.273     9523.482        3.464        2.287      140.011      104.865        0.561      342.186       17.417      862.931
05/22/2014  12:40:00       77.165      -13.719       68.436      129.360      135.872       66.623    16733.888    18461.329     4438.663        2.522        1.982       78.375       79.872        1.039      342.546       18.030      862.939
05/22/2014  12:41:00      129.221     -121.446       35.963      126.708      190.027       92.994    16054.899    36110.147     8647.847        4.676        3.041      177.334      111.020        0.392      342.386       17.757      862.925
05/22/2014  12:42:00       71.992     -169.471       36.110       99.579      145.254       76.238     9916.034    21098.724     5812.243        3.601        1.841      184.129       68.028        0.136      342.324       17.652      862.915
05/22/2014  12:43:00      172.584      120.577       42.021      116.554      100.171       67.076    13584.884    10034.309     4499.170        3.710        1.406      210.533       64.785        0.095      342.682       18.259      862.931
05/22/2014  12:44:00      162.332      151.635       38.008      126.429      114.036       86.541    15984.380    13004.280     7489.301        4.363        1.824      222.137       85.038        0.147      342.493       17.938      862.974
05/22/2014  12:45:00        0.766      -35.868       55.106       52.295      118.269       45.802     2734.745    13987.545     2097.847        1.157        0.941       35.876       51.480        2.059      342.971       18.754      862.989
05/22/2014  12:46:00       36.089     -125.342        6.100       72.213       79.690       59.370     5214.786     6350.487     3524.811        1.607        0.755      130.434       48.043        0.136      342.602       18.124      862.992
05/22/2014  12:47:00       49.120       84.116       39.971       58.604       78.234       47.710     3434.459     6120.567     2276.282        1.146        0.592       97.407       38.063        0.153      342.661       18.227      862.985
05/22/2014  12:48:00       24.788       27.960        1.349       50.489       47.692       31.823     2549.101     2274.515     1012.720        0.362        0.292       37.366       26.397        0.499      342.930       18.684      862.989
05/22/2014  12:49:00       80.717       43.395       54.724       96.405       74.176       55.609     9293.948     5502.073     3092.349        1.464        0.894       91.643       40.086        0.191      342.732       18.347      862.988
05/22/2014  12:50:00       66.475       39.451       42.739       92.484       63.141       68.035     8553.232     3986.785     4628.784        1.248        0.858       77.300       50.755        0.431      342.221       17.479      862.989
05/22/2014  12:51:00       15.189        1.750       41.657       43.933       34.518       22.728     1930.136     1191.518      516.547        0.280        0.182       15.289       18.763        1.506      342.994       18.794      862.985
05/22/2014  12:52:00       40.073       33.874       39.486       30.260       23.536       27.112      915.664      553.932      735.037        0.326        0.110       52.472       16.061        0.094      342.365       17.725      862.991
05/22/2014  12:53:00        5.709      -27.468        6.880       55.537       59.113       40.982     3084.352     3494.310     1679.542        0.454        0.413       28.055       34.774        1.536      342.532       18.007      862.972
05/22/2014  12:54:00       98.396      -21.324       62.514       76.438      111.566       65.465     5842.833    12446.943     4285.705        1.831        1.129      100.680       67.244        0.446      342.729       18.343      862.972
05/22/2014  12:55:00      123.515       86.467       85.695      160.459      131.797       76.296    25747.104    17370.381     5821.048        3.950        2.447      150.773       82.573        0.300      342.808       18.475      862.970
05/22/2014  12:56:00      234.226      112.324       35.652      185.198      132.847      106.983    34298.404    17648.387    11445.303        6.606        3.170      259.766       48.782        0.035      342.394       17.770      862.942
05/22/2014  12:57:00      248.881      130.941       37.988      171.806      119.806      102.058    29517.284    14353.588    10415.758        6.740        2.714      281.225       64.384        0.052      342.406       17.791      862.960
05/22/2014  12:58:00      172.793      217.600      173.692      137.787      102.333      100.460    18985.354    10471.954    10092.220        7.345        1.977      277.862       88.340        0.101      342.002       17.103      863.005
05/22/2014  12:59:00      182.442       98.970       77.508       88.555       75.886       67.965     7841.907     5758.636     4619.278        3.365        0.911      207.558       47.950        0.053      342.148       17.350      863.032
05/22/2014  13:00:00      155.657      129.699       69.811       92.231       50.615       56.615     8506.625     2561.901     3205.235        3.010        0.714      202.610       49.399        0.059      342.260       17.543      863.028
05/22/2014  13:01:00       55.465      -58.368       31.850      131.988      126.082       84.156    17420.927    15896.792     7082.184        2.394        2.020       80.518       95.474        1.406      342.540       18.020      863.026
05/22/2014  13:02:00       62.210      -54.588       48.835       45.496       89.219       58.539     2069.843     7959.961     3426.776        1.134        0.673       82.764       59.745        0.521      342.340       17.683      863.050
05/22/2014  13:03:00       -2.757       -2.191      -26.071       43.500       63.402       32.737     1892.269     4019.868     1071.741        0.384        0.349        3.522       37.241      111.825      341.787       16.741      863.049
05/22/2014  13:04:00       -6.584        4.044      -14.107       29.661       15.900       13.552      879.777      252.814      183.669        0.079        0.066        7.726       15.204        3.872      341.945       17.012      863.009
05/22/2014  13:05:00       -1.280        8.707       16.330       37.214       60.055       37.177     1384.909     3606.636     1382.119        0.336        0.319        8.801       16.337        3.446      342.675       18.251      862.978
05/22/2014  13:06:00       -2.503       29.490       12.486       23.981       50.505       20.465      575.071     2550.733      418.798        0.229        0.177       29.596        6.601        0.050      342.976       18.763      862.946
05/22/2014  13:07:00      -44.844     -105.675        8.221       29.074       23.357       19.904      845.320      545.552      396.185        0.752        0.089      114.796       12.922        0.013      341.883       16.906      862.948
05/22/2014  13:08:00       77.544     -235.747        7.650       79.760      110.435       55.784     6361.618    12195.931     3111.906        4.165        1.083      248.173       53.952        0.047      342.288       17.589      862.938
05/22/2014  13:09:00      113.939      -54.904       42.266      100.930       67.375       63.742    10186.815     4539.428     4062.998        1.828        0.939      126.477       60.170        0.226      342.349       17.695      862.930
05/22/2014  13:10:00       61.794       15.962       65.142       69.874       79.655       60.318     4882.317     6344.883     3638.321        1.159        0.743       63.822       57.529        0.813      342.537       18.016      862.926
05/22/2014  13:11:00       85.673     -106.898        8.224       98.901      140.793       69.955     9781.438    19822.808     4893.716        2.666        1.725      136.993       83.881        0.375      342.697       18.286      862.906
05/22/2014  13:12:00      109.926       67.597       89.223       88.942      103.829       86.314     7910.760    10780.482     7450.070        2.537        1.307      129.047       72.728        0.318      342.307       17.623      862.914
05/22/2014  13:13:00       77.700      -52.343       16.449       54.633      102.338       54.947     2984.753    10473.107     3019.120        1.276        0.824       93.686       43.287        0.213      342.065       17.214      862.905
05/22/2014  13:14:00       35.806      -10.296       48.618       76.386      122.053       65.056     5834.890    14896.864     4232.288        1.435        1.248       37.257       51.291        1.895      342.434       17.841      862.873
05/22/2014  13:15:00      111.898      114.148        7.992       57.587       52.048       51.650     3316.208     2709.037     2667.679        1.715        0.435      159.846       21.443        0.018      342.331       17.666      862.866
05/22/2014  13:16:00      -30.989       71.433       -5.272       35.113       36.375       26.322     1232.900     1323.117      692.836        0.467        0.162       77.865       20.383        0.069      342.538       18.017      862.851
05/22/2014  13:17:00       -1.909       70.140        1.130       26.646       47.761       26.453      709.989     2281.133      699.772        0.431        0.185       70.166       26.650        0.144      342.872       18.587      862.844
05/22/2014  13:18:00       -3.106      -32.721        3.679       23.513       83.348       29.977      552.847     6946.899      898.638        0.474        0.420       32.869       34.328        1.091      343.428       19.533      862.823
05/22/2014  13:19:00       48.668     -161.684      -13.499       55.453       36.583       41.376     3074.993     1338.330     1712.013        1.741        0.306      168.850       20.826        0.015      342.337       17.674      862.836
05/22/2014  13:20:00      -11.790      -10.704        7.293       22.527       34.429       24.406      507.471     1185.390      595.675        0.130        0.114       15.924       14.033        0.777      342.747       18.373      862.830
05/22/2014  13:21:00       46.448      -40.614       26.439       40.449       69.211       31.963     1636.143     4790.160     1021.641        0.598        0.372       61.700       35.231        0.326      342.773       18.418      862.851
05/22/2014  13:22:00      108.333       81.823       30.353      102.886       91.153       64.718    10585.566     8308.889     4188.397        2.121        1.154      135.761       38.748        0.081      342.548       18.034      862.853
05/22/2014  13:23:00      142.926      106.139       17.669       84.741       72.139       63.909     7180.999     5204.079     4084.402        2.423        0.823      178.026       44.300        0.062      342.611       18.141      862.826
05/22/2014  13:24:00      248.756      163.534       46.748      171.737      108.032       84.095    29493.680    11670.969     7071.971        6.951        2.412      297.697       32.002        0.012      342.669       18.240      862.785
05/22/2014  13:25:00      265.929      169.289       32.784      143.719      126.248       87.789    20655.187    15938.565     7706.954        7.237        2.215      315.241       62.302        0.039      342.748       18.373      862.736
05/22/2014  13:26:00      212.227      134.728       94.638      118.689       95.585       94.724    14087.182     9136.524     8972.699        5.217        1.610      251.380       74.647        0.088      342.933       18.685      862.738
05/22/2014  13:27:00       85.988       16.053       87.255      126.682      131.775       79.499    16048.335    17364.766     6320.064        2.749        1.987       87.473       63.717        0.531      343.038       18.865      862.771
05/22/2014  13:28:00       80.049     -143.313      -22.343       74.936      109.873       66.935     5615.399    12072.036     4480.290        2.480        1.108      164.154       79.834        0.237      342.705       18.299      862.794
05/22/2014  13:29:00       64.168      -33.274       46.652       82.132      110.345       67.558     6745.725    12176.014     4564.039        1.544        1.174       72.282       77.551        1.151      342.838       18.527      862.790
05/22/2014  13:30:00      117.677     -165.633        1.195       84.750      110.997       87.061     7182.577    12320.259     7579.596        3.418        1.354      203.180       90.677        0.199      342.439       17.847      862.793
05/22/2014  13:31:00      138.323       -0.076      113.616      149.483      240.950       95.913    22345.037    58057.015     9199.300        6.080        4.480      138.323      114.725        0.688      343.049       18.886      862.758
05/22/2014  13:32:00      334.035      208.044       76.364      111.483       88.576       88.468    12428.454     7845.793     7826.509        9.439        1.405      393.525       73.252        0.035      342.415       17.804      862.805
05/22/2014  13:33:00      289.600      151.750       41.237      153.630      110.991       87.033    23602.198    12318.946     7574.740        7.604        2.175      326.949       62.094        0.036      342.477       17.911      862.791
05/22/2014  13:34:00      110.799      105.280       86.777      124.220       81.375       66.853    15430.487     6621.929     4469.293        2.870        1.326      152.841       47.582        0.097      343.046       18.878      862.807
05/22/2014  13:35:00      164.873      120.991      110.499      136.291       95.062       94.776    18575.289     9036.736     8982.427        4.531        1.830      204.504       76.705        0.141      342.585       18.096      862.832
05/22/2014  13:36:00       57.494       62.556       49.018       79.213       51.655       52.472     6274.654     2668.228     2753.343        1.066        0.585       84.963       42.767        0.253      342.510       17.969      862.843
05/22/2014  13:37:00       23.815       59.162       67.462       50.712       44.100       35.473     2571.665     1944.821     1258.321        0.720        0.289       63.775       31.668        0.247      342.933       18.689      862.821
05/22/2014  13:38:00      118.566       98.329       91.256      112.096       80.790       70.180    12565.577     6527.062     4925.184        2.803        1.201      154.034       62.028        0.162      342.681       18.258      862.815
05/22/2014  13:39:00      107.085      122.062      103.049       99.478       63.975       78.551     9895.858     4092.776     6170.211        2.857        1.008      162.377       71.189        0.192      342.417       17.808      862.807
05/22/2014  13:40:00       77.467       35.398       13.070       85.843       68.098       45.510     7369.013     4637.393     2071.136        1.075        0.704       85.172       22.857        0.072      343.184       19.116      862.805
05/22/2014  13:41:00       19.136      -93.565       17.897       44.608       43.286       50.315     1989.859     1873.641     2531.642        0.792        0.320       95.502       31.506        0.109      342.818       18.494      862.784
05/22/2014  13:42:00       50.988      -84.050       10.504       34.917       63.713       43.800     1219.225     4059.378     1918.411        0.848        0.360       98.307       37.792        0.148      343.198       19.140      862.742
05/22/2014  13:43:00       -6.597       54.142       45.719       58.485       37.543       45.493     3420.533     1409.489     2069.593        0.598        0.345       54.542       21.608        0.157      343.085       18.948      862.724
05/22/2014  13:44:00      -39.692       18.879        1.497       39.768       32.275       26.703     1581.501     1041.687      713.050        0.263        0.167       43.953       11.656        0.070      342.855       18.558      862.722
05/22/2014  13:45:00        8.296        5.657       34.977       34.723       54.184       28.828     1205.692     2935.935      831.078        0.315        0.249       10.042       28.376        7.985      343.164       19.083      862.721
05/22/2014  13:46:00      132.199     -115.168       38.898      129.848      190.824      109.639    16860.470    36413.620    12020.657        4.876        3.265      175.329      131.549        0.563      343.073       18.926      862.693
05/22/2014  13:47:00      122.899      -78.462       34.666      105.526      162.377      106.134    11135.727    26366.189    11264.325        3.560        2.438      145.809      124.533        0.729      342.696       18.284      862.708
05/22/2014  13:48:00       57.252       -0.853       66.200       77.208      102.987       70.471     5961.041    10606.283     4966.221        1.459        1.077       57.259       72.362        1.597      342.861       18.566      862.695
05/22/2014  13:49:00      171.702     -160.858       -4.272      121.983      159.779       62.819    14879.814    25529.212     3946.205        4.986        2.218      235.281       86.543        0.135      342.536       18.013      862.663
05/22/2014  13:50:00      128.221     -180.576      -21.279      101.362      130.217       69.710    10274.169    16956.406     4859.548        4.079        1.605      221.468       71.436        0.104      342.988       18.781      862.643
05/22/2014  13:51:00      107.058      -53.798       34.323      121.898      154.248       81.897    14859.170    23792.528     6707.083        3.044        2.268      119.815       91.063        0.578      343.011       18.821      862.663
05/22/2014  13:52:00      119.141      109.828       23.233       91.835       73.071       53.782     8433.634     5339.378     2892.553        2.173        0.833      162.040       42.421        0.069      342.907       18.644      862.701
05/22/2014  13:53:00       49.869       65.284       14.343       67.299       49.206       47.943     4529.189     2421.220     2298.567        0.810        0.462       82.152       32.897        0.160      342.930       18.683      862.671
05/22/2014  13:54:00       65.989       64.717       17.712      107.836       47.040       38.033    11628.551     2212.784     1446.503        1.207        0.764       92.428       39.749        0.185      342.970       18.752      862.640
05/22/2014  13:55:00      217.912      174.647       27.568      149.577      103.333       68.912    22373.267    10677.633     4748.873        5.827        1.890      279.261       47.367        0.029      343.166       19.085      862.620
05/22/2014  13:56:00      127.933      102.904       20.072      110.905       78.573       75.077    12299.970     6173.718     5636.513        2.573        1.206      164.183       52.628        0.103      343.453       19.571      862.604
05/22/2014  13:57:00       68.800      260.466      -33.660       66.937      108.811       72.735     4480.614    11839.733     5290.443        4.766        1.081      269.399       68.924        0.065      342.863       18.567      862.616
05/22/2014  13:58:00       86.600      147.717       -6.673       89.826       91.555       64.215     8068.623     8382.326     4123.544        2.497        1.029      171.230       57.297        0.112      343.114       18.996      862.618
05/22/2014  13:59:00      101.590       73.178        7.117       68.448       77.822       40.359     4685.073     6056.263     1628.881        1.405        0.619      125.202       31.957        0.065      343.055       18.896      862.611
05/22/2014  14:00:00       47.433       -3.304       31.710       46.542       74.892       42.477     2166.149     5608.853     1804.293        0.642        0.479       47.548       19.871        0.175      343.244       19.220      862.599
05/22/2014  14:01:00      230.305      153.762       42.173      105.284       59.803       59.161    11084.762     3576.386     3500.025        4.831        0.908      276.917       45.011        0.026      343.001       18.801      862.582
05/22/2014  14:02:00      195.999      144.197      133.722      161.237      119.108      120.192    25997.381    14186.824    14446.118        6.585        2.732      243.328      109.572        0.203      342.863       18.566      862.579
05/22/2014  14:03:00      180.261       40.194       60.176      140.010      114.939       75.898    19602.829    13210.995     5760.488        3.814        1.929      184.687       64.519        0.122      343.028       18.849      862.570
05/22/2014  14:04:00       75.061     -119.773       32.389      116.391      103.502       76.629    13546.808    10712.764     5871.960        2.557        1.507      141.349       73.079        0.267      343.418       19.514      862.583
05/22/2014  14:05:00       96.589     -134.244      -18.318      108.019      139.063       50.195    11668.025    19338.489     2519.508        3.060        1.676      165.381       70.456        0.181      343.265       19.255      862.585
05/22/2014  14:06:00      145.552     -200.666       -5.318       67.958       90.791       60.800     4618.277     8243.064     3696.630        3.902        0.828      247.895       50.393        0.041      342.848       18.543      862.548
05/22/2014  14:07:00       75.094      -72.622       14.154       49.064       68.562       45.018     2407.299     4700.709     2026.603        1.012        0.457      104.466       37.796        0.131      343.292       19.300      862.544
05/22/2014  14:08:00       30.886      -37.520       38.765       49.828       73.412       41.498     2482.836     5389.351     1722.125        0.673        0.480       48.597       39.815        0.671      343.487       19.634      862.518
05/22/2014  14:09:00      145.216     -218.608      -24.688       73.491      103.903       56.600     5400.880    10795.910     3203.590        4.444        0.970      262.445       49.040        0.035      342.937       18.692      862.519
05/22/2014  14:10:00       90.074       -2.390       52.620       80.476      113.135       59.651     6476.450    12799.470     3558.224        1.686        1.142       90.105       64.422        0.511      343.178       19.105      862.508
05/22/2014  14:11:00       58.312      -23.224       57.982       65.738       97.255       55.710     4321.502     9458.593     3103.549        1.209        0.844       62.767       61.453        0.959      343.149       19.057      862.517
05/22/2014  14:12:00       64.267      -33.888       35.917       61.870       67.421       47.031     3827.889     4545.568     2211.936        0.857        0.529       72.654       35.017        0.232      343.084       18.948      862.523
05/22/2014  14:13:00       33.933       40.178       42.621       62.613       54.383       40.263     3920.434     2957.532     1621.146        0.654        0.425       52.590       29.029        0.305      343.478       19.618      862.534
05/22/2014  14:14:00       64.539      138.103      -13.479       72.781       97.894       55.865     5297.063     9583.177     3120.893        2.071        0.900      152.439       53.490        0.123      343.127       19.018      862.541
05/22/2014  14:15:00      110.972       80.511       40.365      124.387       65.674       64.824    15472.034     4313.038     4202.109        2.220        1.199      137.101       40.242        0.086      343.528       19.701      862.517
05/22/2014  14:16:00      226.029      156.156       35.095      137.948      112.747       64.347    19029.554    12711.834     4140.492        5.629        1.794      274.725       59.450        0.047      342.923       18.670      862.505
05/22/2014  14:17:00      -37.280       49.041       -8.338       36.377       41.218       40.166     1323.276     1698.908     1613.284        0.425        0.232       61.602       12.916        0.044      342.957       18.731      862.490
05/22/2014  14:18:00        4.443      150.701      -25.574       41.777       79.954       32.858     1745.327     6392.718     1079.680        1.630        0.461      150.767       30.643        0.041      342.785       18.436      862.458
05/22/2014  14:19:00        1.538      102.616       -2.230       53.305       67.593       50.588     2841.462     4568.781     2559.141        1.025        0.498      102.627       48.467        0.223      342.991       18.788      862.431
05/22/2014  14:20:00       44.508      113.633        2.838       69.457       86.430       48.489     4824.256     7470.106     2351.141        1.477        0.732      122.039       53.936        0.195      343.027       18.850      862.416
05/22/2014  14:21:00       79.847       74.498       -1.230       52.311       39.106       37.481     2736.421     1529.251     1404.791        0.880        0.284      109.204       17.662        0.026      342.941       18.705      862.414
05/22/2014  14:22:00       34.387      -68.573       -3.959       64.328       56.500       34.367     4138.094     3192.254     1181.087        0.720        0.426       76.712       31.214        0.166      343.168       19.090      862.411
05/22/2014  14:23:00       68.894      -18.774       58.153       85.559      117.611       81.097     7320.268    13832.416     6576.656        1.810        1.386       71.406       89.203        1.561      343.447       19.565      862.407
05/22/2014  14:24:00      111.833     -135.854       11.711      104.388       85.762       61.316    10896.934     7355.118     3759.603        2.655        1.101      175.963       57.190        0.106      343.552       19.742      862.403
05/22/2014  14:25:00       15.237      -37.573        6.938       57.198       75.719       33.458     3271.579     5733.363     1119.445        0.591        0.506       40.545       35.048        0.747      343.449       19.568      862.377
05/22/2014  14:26:00       32.140       63.532       51.158       89.059       86.723       74.743     7931.560     7520.928     5586.464        1.436        1.052       71.199       48.300        0.460      343.643       19.899      862.387
05/22/2014  14:27:00      235.269      236.199      168.691      142.208      133.016      108.210    20223.179    17693.255    11709.412        9.460        2.481      333.379       80.556        0.058      343.344       19.386      862.329
05/22/2014  14:28:00      174.054       94.180      151.535      134.327      205.434      133.708    18043.734    42203.285    17877.923        7.011        3.906      197.900      141.579        0.512      343.635       19.882      862.313
05/22/2014  14:29:00      145.662      -31.048      133.162      128.625      227.625      121.412    16544.310    51813.004    14740.822        6.149        4.155      148.934      147.663        0.983      343.526       19.697      862.341
05/22/2014  14:30:00      204.430      164.989      209.767      156.215      181.906      142.370    24403.265    33089.678    20269.163        9.537        3.888      262.703      134.722        0.263      343.491       19.637      862.344
05/22/2014  14:31:00      173.815      154.795      148.493      115.705      133.936       92.896    13387.636    17938.913     8629.656        5.808        1.998      232.752       85.807        0.136      343.254       19.233      862.399
05/22/2014  14:32:00       39.498       76.497       92.511       85.274       95.759       79.325     7271.676     9169.831     6292.463        1.935        1.137       86.093       71.948        0.698      343.638       19.888      862.397
05/22/2014  14:33:00       99.147        5.707       49.004       91.643      156.693       61.198     8398.410    24552.846     3745.183        2.447        1.835       99.311       52.020        0.274      343.679       19.960      862.414
05/22/2014  14:34:00       84.160       59.901      111.121      118.720      148.118       96.883    14094.340    21939.026     9386.237        3.421        2.271      103.301      108.465        1.102      343.416       19.510      862.417
05/22/2014  14:35:00      105.829     -119.716       17.761       94.455      161.112       82.005     8921.745    25957.112     6724.902        3.372        2.080      159.787      101.241        0.401      343.312       19.334      862.378
05/22/2014  14:36:00      188.484      120.631       48.365      142.057       98.182       72.615    20180.329     9639.642     5272.993        4.375        1.755      223.781       59.850        0.072      343.432       19.538      862.389
05/22/2014  14:37:00      219.819      130.226       13.530      124.287       98.410       51.365    15447.354     9684.542     2638.348        4.661        1.389      255.498       36.455        0.020      342.888       18.609      862.396
05/22/2014  14:38:00      -77.990       72.213      -38.197       50.817      116.743       34.495     2582.377    13628.919     1189.872        1.508        0.870      106.288       41.435        0.152      342.968       18.748      862.339
05/22/2014  14:39:00      -43.429       29.560       48.540       89.412       63.359       59.122     7994.429     4014.333     3495.451        1.031        0.775       52.535       62.922        1.435      343.582       19.795      862.275
05/22/2014  14:40:00      262.741      145.183       54.786      132.086       78.661       74.411    17446.599     6187.479     5537.050        6.114        1.459      300.185       72.011        0.058      343.300       19.310      862.311
05/22/2014  14:41:00      197.639      113.430       50.597      114.025       93.476       73.840    13001.597     8737.728     5452.404        4.083        1.360      227.876       30.963        0.018      343.644       19.898      862.304
05/22/2014  14:42:00      102.946      128.253       15.676      130.894       88.931       69.170    17133.227     7908.721     4784.435        2.855        1.491      164.459       44.653        0.074      343.298       19.308      862.299
05/22/2014  14:43:00      204.307      164.792       25.672      145.651       86.477       62.927    21214.150     7478.296     3959.833        5.110        1.633      262.484       46.845        0.032      343.103       18.975      862.292
05/22/2014  14:44:00       46.724       53.368       23.740       77.263       65.104       44.720     5969.569     4238.498     1999.885        0.890        0.610       70.931       34.815        0.241      343.482       19.625      862.278
05/22/2014  14:45:00      115.151       72.781       49.582       81.529       68.516       63.268     6647.046     4694.422     4002.863        1.818        0.767      136.223       47.929        0.124      343.911       20.354      862.264
05/22/2014  14:46:00       61.337       -4.422        2.115       76.262      109.702       53.130     5815.918    12034.630     2822.774        1.223        1.034       61.496       34.323        0.312      343.789       20.147      862.263
05/22/2014  14:47:00      171.583     -178.366      -11.007       87.019      101.473       60.813     7572.282    10296.823     3698.217        4.147        1.078      247.498       61.059        0.061      343.136       19.032      862.247
05/22/2014  14:48:00      101.451     -132.325       10.385       88.831      176.758      100.192     7890.893    31243.505    10038.367        3.853        2.459      166.740      106.733        0.410      343.433       19.538      862.214
05/22/2014  14:49:00      140.179     -201.865      -33.499      103.914      109.476       55.726    10798.220    11984.979     3105.432        4.370        1.294      245.763       72.842        0.088      343.075       18.928      862.232
05/22/2014  14:50:00       54.402     -132.633      -21.502       59.696       80.709       39.305     3563.560     6513.920     1544.886        1.632        0.581      143.356       14.736        0.011      343.515       19.680      862.218
05/22/2014  14:51:00       46.845      -67.120        1.539       64.212       51.793       37.598     4123.126     2682.483     1413.640        0.746        0.411       81.851       34.668        0.179      343.354       19.406      862.194
05/22/2014  14:52:00     -118.491       47.221      -16.359       60.049       41.914       47.723     3605.829     1756.811     2277.446        1.209        0.382      127.554       12.034        0.009      343.244       19.218      862.151
05/22/2014  14:53:00       28.570       43.413       59.230       44.535       55.893       46.458     1983.347     3124.022     2158.337        0.674        0.363       51.970       42.456        0.667      343.688       19.976      862.134
05/22/2014  14:54:00      113.622       70.801       73.745       78.442       40.449       64.999     6153.180     1636.081     4224.904        1.769        0.601      133.876       61.738        0.213      343.356       19.411      862.147
05/22/2014  14:55:00      131.957        5.789       72.245      122.124      139.338       80.800    14914.340    19414.959     6528.565        3.175        2.043      132.084       80.870        0.375      343.855       20.259      862.136
05/22/2014  14:56:00      195.119      116.683      107.322      168.279      138.868      117.221    28317.732    19284.453    13740.855        6.226        3.067      227.346       99.435        0.191      343.804       20.170      862.100
05/22/2014  14:57:00      241.481      183.941      166.188      162.506      137.778      127.189    26408.251    18982.684    16177.041        9.065        3.078      303.557      105.048        0.120      343.566       19.765      862.099
05/22/2014  14:58:00      250.002      151.846       35.997       90.013       65.847       56.356     8102.266     4335.793     3176.038        5.123        0.781      292.503       33.269        0.013      343.092       18.955      862.122
05/22/2014  14:59:00      155.945       62.984       23.752       87.166       97.035       52.707     7597.913     9415.712     2777.989        2.432        0.990      168.184       39.666        0.056      343.407       19.496      862.087
05/22/2014  15:00:00      124.322       82.341       99.190      128.391      140.304       97.304    16484.376    19685.090     9468.002        3.885        2.282      149.117       93.655        0.394      343.765       20.105      862.047
05/22/2014  15:01:00      136.344       44.368       93.991       92.228      123.750       93.435     8506.057    15314.025     8730.190        3.096        1.628      143.381       90.561        0.399      343.490       19.637      862.087
05/22/2014  15:02:00       13.830       24.887       14.474       37.461       44.374       29.613     1403.307     1969.042      876.952        0.263        0.212       28.472       13.944        0.240      343.776       20.128      862.095
05/22/2014  15:03:00        5.258      -11.658       29.836       46.852       45.953       25.155     2195.068     2111.684      632.786        0.300        0.247       12.789       14.167        1.227      344.012       20.530      862.073
05/22/2014  15:04:00       28.548       38.702       28.732       51.744       38.497       40.218     2677.432     1481.997     1617.508        0.446        0.289       48.092       19.049        0.157      343.616       19.853      862.026
05/22/2014  15:05:00       54.334      -27.048       47.411       52.324       76.535       42.938     2737.824     5857.671     1843.678        0.818        0.522       60.694       42.910        0.500      343.946       20.416      862.004
05/22/2014  15:06:00      118.578     -172.176      -19.505       66.495       57.574       38.797     4421.643     3314.800     1505.235        2.666        0.462      209.058       26.043        0.016      343.690       19.975      862.008
05/22/2014  15:07:00      125.419      131.902      115.990      107.014       91.691       81.034    11451.909     8407.239     6566.454        3.650        1.321      182.012       84.078        0.213      343.629       19.872      862.004
05/22/2014  15:08:00      144.088      106.196       76.647      102.979       66.604       56.783    10604.697     4436.108     3224.303        2.809        0.913      178.994       47.857        0.071      343.812       20.183      861.981
05/22/2014  15:09:00      124.264     -176.026      -24.494       93.319      126.481       63.455     8708.407    15997.342     4026.480        3.787        1.437      215.468       79.372        0.136      344.098       20.673      861.989
05/22/2014  15:10:00      154.702      -78.542       90.508      118.379      204.881      105.910    14013.617    41976.203    11216.863        5.274        3.360      173.498      130.427        0.565      343.932       20.389      862.011
05/22/2014  15:11:00      158.465       91.940      166.947      139.232      166.303      118.111    19385.518    27656.810    13950.100        6.120        3.050      183.205      125.853        0.472      343.884       20.308      862.010
05/22/2014  15:12:00      140.744       29.187      106.667      125.880      156.044       82.921    15845.677    24349.588     6875.880        3.955        2.354      143.739       82.803        0.332      343.888       20.315      861.995
05/22/2014  15:13:00      153.011      117.494      108.266      125.642       94.664       86.584    15785.999     8961.324     7496.848        4.058        1.612      192.918       81.202        0.177      343.718       20.024      862.009
05/22/2014  15:14:00      113.970      -11.779       68.558      127.101       89.329       54.148    16154.643     7979.685     2931.964        2.244        1.353      114.577       60.833        0.282      343.729       20.044      861.990
05/22/2014  15:15:00       16.016       40.748      102.386       56.930      108.669       75.461     3241.020    11808.949     5694.327        1.657        1.037       43.783       78.233        3.193      344.229       20.899      861.985
05/22/2014  15:16:00      130.339      114.100      114.095      130.340       90.720       93.640    16988.594     8230.070     8768.372        3.850        1.699      173.225       57.304        0.109      344.286       20.995      861.982
05/22/2014  15:17:00      229.531      142.982      117.052      141.068      124.147      128.317    19900.292    15412.564    16465.179        6.929        2.589      270.423       99.850        0.136      343.554       19.744      861.974
05/22/2014  15:18:00      121.234       70.166       75.919      130.410      116.995       63.084    17006.784    13687.910     3979.611        3.002        1.734      140.075       50.744        0.131      344.121       20.712      861.961
05/22/2014  15:19:00      148.988       23.034       78.333       86.560      120.660       80.003     7492.582    14558.885     6400.496        2.865        1.423      150.758       85.731        0.323      344.048       20.587      861.954
05/22/2014  15:20:00      239.834       85.740       41.103      184.959       94.038       83.226    34209.985     8843.102     6926.536        5.826        2.499      254.699       58.835        0.053      343.824       20.207      861.929
05/22/2014  15:21:00      107.300       76.938      114.165       94.919      120.829       87.342     9009.666    14599.745     7628.694        3.085        1.562      132.033       76.675        0.337      343.948       20.416      861.926
05/22/2014  15:22:00      124.586     -115.474       10.896       96.415      107.227       62.721     9295.870    11497.617     3933.930        2.685        1.236      169.870       70.710        0.173      343.710       20.010      861.908
05/22/2014  15:23:00       77.921       35.542       72.911       81.141      101.249       68.862     6583.865    10251.326     4742.006        1.711        1.079       85.644       58.307        0.463      343.881       20.304      861.885
05/22/2014  15:24:00      184.451      190.238      151.780      146.189      141.038      117.689    21371.292    19891.740    13850.637        7.417        2.756      264.977      107.125        0.163      343.656       19.918      861.881
05/22/2014  15:25:00      127.550      108.696      108.604       80.444       92.126       74.174     6471.294     8487.153     5501.839        3.017        1.023      167.582       62.686        0.140      343.366       19.425      861.868
05/22/2014  15:26:00      136.402       58.626        8.304       73.255       58.009       46.695     5366.347     3365.058     2180.465        1.651        0.546      148.467       18.342        0.015      343.613       19.848      861.823
05/22/2014  15:27:00       58.341       92.996       92.037      101.414       85.896       65.798    10284.716     7378.115     4329.375        2.125        1.100      109.782       55.381        0.254      344.278       20.982      861.794
05/22/2014  15:28:00      128.233       93.099        7.487       85.220       72.257       53.200     7262.384     5221.063     2830.229        2.024        0.766      158.465       32.678        0.043      344.389       21.172      861.806
05/22/2014  15:29:00        5.810      156.117       -8.138       83.245      111.466       53.037     6929.767    12424.580     2812.936        2.332        1.108      156.225       55.574        0.127      343.730       20.046      861.817
05/22/2014  15:30:00       34.526      146.607       -6.406       63.754       85.617       49.040     4064.511     7330.353     2404.926        1.826        0.690      150.617       61.908        0.169      343.457       19.581      861.818
05/22/2014  15:31:00       33.865       30.360       35.603       34.279       32.704       30.225     1175.070     1069.558      913.547        0.325        0.158       45.482       11.685        0.066      344.108       20.693      861.807
05/22/2014  15:32:00       71.399      112.149      123.414       98.454       92.131       66.647     9693.166     8488.156     4441.795        2.776        1.131      132.948       64.463        0.235      343.806       20.176      861.791
05/22/2014  15:33:00       55.203     -101.943       30.520       79.476      147.532       60.988     6316.475    21765.630     3719.518        2.308        1.590      115.929       77.142        0.443      343.840       20.235      861.792
05/22/2014  15:34:00       71.465     -185.666       -9.319       75.936       83.330       51.549     5766.211     6943.839     2657.317        2.751        0.768      198.945       38.973        0.038      343.598       19.820      861.759
05/22/2014  15:35:00      160.523       84.130      131.193      178.203      171.057      117.302    31756.369    29260.350    13759.808        6.240        3.739      181.233      130.176        0.516      343.960       20.438      861.761
05/22/2014  15:36:00      260.544      208.387      171.178      181.199      133.036      135.687    32833.215    17698.708    18410.872       10.476        3.447      333.629      107.946        0.105      343.683       19.965      861.742
05/22/2014  15:37:00      207.244      130.602      122.788      202.618      169.494      118.813    41054.061    28728.268    14116.602        7.947        4.195      244.963       90.612        0.137      343.799       20.163      861.746
05/22/2014  15:38:00      338.737      204.873       64.805      154.388      108.593      111.275    23835.693    11792.522    12382.132       10.445        2.401      395.873       77.078        0.038      343.561       19.755      861.806
05/22/2014  15:39:00      262.555      138.582       61.311      121.386       91.990       66.416    14734.450     8462.182     4411.059        5.975        1.380      296.884       59.313        0.040      343.630       19.873      861.829
05/22/2014  15:40:00       55.547       40.333       84.327       68.731       81.255       61.149     4723.995     6602.416     3739.251        1.344        0.753       68.646       61.713        0.808      343.797       20.161      861.804
05/22/2014  15:41:00      120.294      111.503       86.942      101.404       80.391       72.767    10282.786     6462.668     5295.026        2.825        1.102      164.024       60.050        0.134      343.575       19.781      861.812
05/22/2014  15:42:00      241.452      112.104       23.658      128.278       93.402       91.942    16455.280     8723.866     8453.423        5.252        1.682      266.208       74.701        0.079      343.480       19.618      861.818
05/22/2014  15:43:00      136.131       60.325       25.751       94.510       73.381       65.327     8932.173     5384.804     4267.583        2.071        0.929      148.898       43.948        0.087      343.606       19.836      861.795
05/22/2014  15:44:00       95.862       50.816       60.921       82.980       51.568       56.579     6885.754     2659.223     3201.157        1.411        0.637      108.498       37.567        0.120      343.999       20.506      861.778
05/22/2014  15:45:00      184.177      121.399      165.807      170.156      128.649       98.504    28952.903    16550.570     9703.012        6.567        2.760      220.588       95.127        0.186      343.957       20.432      861.734
05/22/2014  15:46:00      281.138      194.135       97.908      202.266      142.185      117.543    40911.354    20216.450    13816.327       10.061        3.747      341.653       95.187        0.078      343.858       20.264      861.765
05/22/2014  15:47:00      181.771       85.652       47.914      116.380       87.239       79.641    13544.418     7610.638     6342.617        3.508        1.375      200.940       49.876        0.062      343.775       20.120      861.784
05/22/2014  15:48:00      242.512      135.857       34.026      114.053      127.317       77.106    13008.177    16209.674     5945.343        5.679        1.758      277.973       68.329        0.060      343.691       19.978      861.767
05/22/2014  15:49:00      212.240      128.520      119.852      176.974      139.508      126.130    31319.781    19462.586    15908.897        7.130        3.335      248.119      109.496        0.195      343.991       20.491      861.748
05/22/2014  15:50:00      299.006      147.861       59.899      125.267      117.865       98.828    15691.729    13892.252     9766.931        7.710        1.968      333.568       79.625        0.057      343.752       20.081      861.764
05/22/2014  15:51:00      212.246      123.432      108.554       97.732       95.325       69.471     9551.570     9086.793     4826.190        4.776        1.173      245.528       64.585        0.069      343.783       20.135      861.783
05/22/2014  15:52:00      112.658     -152.729       13.028       88.533      123.626       57.946     7838.043    15283.394     3357.785        3.133        1.324      189.785       72.222        0.145      343.792       20.149      861.705
05/22/2014  15:53:00      185.962      117.821       71.203      169.515       86.923       78.177    28735.263     7555.570     6111.672        4.796        2.120      220.144       90.738        0.170      343.964       20.443      861.716
05/22/2014  15:54:00      301.868      144.135       58.520      139.151       87.913       80.586    19363.020     7728.670     6494.150        7.445        1.679      334.514       56.617        0.029      343.823       20.203      861.763
05/22/2014  15:55:00      171.806       84.250       19.476      110.228       94.211       55.559    12150.119     8875.726     3086.757        3.055        1.206      191.351       45.913        0.058      343.552       19.743      861.791
05/22/2014  15:56:00      134.989       79.960       15.954       77.365       82.796       56.134     5985.321     6855.144     3151.049        2.043        0.800      156.894       46.681        0.089      343.777       20.127      861.777
05/22/2014  15:57:00      241.802      137.076        8.958       90.295       67.120       60.715     8153.097     4505.062     3686.323        4.684        0.817      277.953       38.399        0.019      343.520       19.687      861.787
05/22/2014  15:58:00      191.725      139.311       12.677       55.765       45.552       36.664     3109.732     2074.992     1344.218        3.143        0.326      236.993       28.729        0.015      343.232       19.195      861.790
05/22/2014  15:59:00      133.573       70.011       29.065       47.322       51.048       43.679     2239.410     2605.926     1907.841        1.517        0.338      150.809       23.972        0.025      343.448       19.566      861.766
05/22/2014  16:00:00      140.346       62.965       12.637       68.041       59.077       53.463     4629.622     3490.086     2858.328        1.740        0.549      153.823       19.481        0.016      343.461       19.588      861.738
05/22/2014  16:01:00        9.708       19.690        1.948       58.359       52.707       21.296     3405.721     2778.066      453.541        0.356        0.332       21.953       19.843        0.817      343.626       19.871      861.719
05/22/2014  16:02:00       21.181       27.407        3.908       51.359       69.131       30.584     2637.777     4779.069      935.360        0.478        0.418       34.638       25.951        0.561      343.788       20.147      861.695
05/22/2014  16:03:00       26.882      -41.603       -0.802       60.346       43.447       30.789     3641.592     1887.630      947.956        0.446        0.324       49.533       36.014        0.529      343.898       20.335      861.669
05/22/2014  16:04:00       56.209     -112.227      -19.829       69.949       84.079       37.745     4892.902     7069.287     1424.710        1.476        0.669      125.517       51.794        0.170      344.056       20.603      861.648
05/22/2014  16:05:00      117.656     -128.562       -7.584       39.409       56.538       27.805     1553.039     3196.590      773.115        1.797        0.276      174.274       31.762        0.033      343.620       19.859      861.652
05/22/2014  16:06:00      107.980       83.465       56.395       55.815       35.945       40.210     3115.293     1292.034     1616.854        1.391        0.301      136.477       28.024        0.042      343.793       20.155      861.673
05/22/2014  16:07:00      156.147      118.365       11.124       78.876       76.142       55.867     6221.483     5797.677     3121.091        2.683        0.757      195.939       21.537        0.012      343.772       20.116      861.682
05/22/2014  16:08:00      245.317      154.140       41.957      122.473       90.477       57.432    14999.676     8186.103     3298.478        5.609        1.324      289.723       36.047        0.015      343.726       20.037      861.658
05/22/2014  16:09:00      212.527      182.153       11.074       98.460       68.607       51.495     9694.313     4706.921     2651.720        4.776        0.853      279.906       19.230        0.005      343.718       20.022      861.654
05/22/2014  16:10:00      172.129      100.574       22.203      105.123       85.916       52.029    11050.809     7381.562     2707.035        3.068        1.057      199.358       29.954        0.023      343.670       19.942      861.642
05/22/2014  16:11:00      178.433       98.265       21.249      117.589       84.777       58.387    13827.112     7187.128     3409.093        3.318        1.221      203.702       26.786        0.017      343.902       20.339      861.629
05/22/2014  16:12:00       84.330       58.005       26.825       70.308       59.759       44.591     4943.205     3571.109     1988.383        1.085        0.525      102.353       41.509        0.164      343.811       20.186      861.615
05/22/2014  16:13:00       88.075      163.236        6.576      106.624      113.993       61.744    11368.768    12994.348     3812.302        3.131        1.409      185.481       64.910        0.122      344.020       20.540      861.624
05/22/2014  16:14:00      165.491       75.741        9.107       77.957       60.003       54.555     6077.285     3600.372     2976.195        2.293        0.633      182.000       29.972        0.027      343.845       20.242      861.632
05/22/2014  16:15:00       99.125       45.097       22.853       73.629       79.043       40.732     5421.215     6247.843     1659.131        1.285        0.666      108.901       24.490        0.051      343.798       20.162      861.621
05/22/2014  16:16:00      136.656      126.362      142.925       84.783       77.199       65.077     7188.099     5959.689     4234.971        3.622        0.869      186.125       44.932        0.058      343.807       20.176      861.601
05/22/2014  16:17:00       54.221       90.706      109.400       82.937       65.119       55.692     6878.504     4240.480     3101.616        1.868        0.711      105.676       53.482        0.256      343.754       20.088      861.582
05/22/2014  16:18:00       79.144       65.384       75.232       75.873       54.262       47.436     5756.772     2944.396     2250.163        1.357        0.548      102.659       45.931        0.200      343.937       20.401      861.573
05/22/2014  16:19:00      145.153       72.994       18.327       93.836       67.450       59.143     8805.133     4549.439     3497.921        2.179        0.843      162.473       36.950        0.052      344.196       20.844      861.582
05/22/2014  16:20:00      252.773      178.204       14.590      153.609       97.162       89.243    23595.846     9440.490     7964.339        6.842        2.050      309.275       65.095        0.044      343.891       20.319      861.567
05/22/2014  16:21:00      265.960      183.093       34.675      111.545       95.810       64.962    12442.237     9179.461     4220.087        6.565        1.292      322.890       44.448        0.019      343.661       19.925      861.558
05/22/2014  16:22:00      296.793      203.957       30.926      119.970       94.324       83.054    14392.741     8896.933     6897.957        8.041        1.509      360.118       60.791        0.028      343.870       20.283      861.544
05/22/2014  16:23:00      146.366      155.420       -2.482      141.886       81.765       58.794    20131.573     6685.555     3456.773        3.792        1.514      213.491       45.689        0.046      344.141       20.747      861.563
05/22/2014  16:24:00      128.720      186.831        4.549      102.369      120.249       89.346    10479.406    14459.843     7982.697        4.220        1.646      226.880       74.695        0.108      343.753       20.083      861.582
05/22/2014  16:25:00      100.994      193.532        0.045      107.415      117.154       86.802    11538.032    13725.138     7534.601        4.022        1.640      218.299       82.039        0.141      343.781       20.130      861.582
05/22/2014  16:26:00       35.565      259.270      -32.684       69.591      138.214       59.164     4842.948    19103.126     3500.412        4.849        1.372      261.698       58.125        0.049      343.932       20.389      861.592
05/22/2014  16:27:00      192.934      182.093       20.939      142.420      127.058       89.928    20283.496    16143.663     8087.109        5.766        2.226      265.294       72.744        0.075      343.953       20.427      861.588
05/22/2014  16:28:00      162.862       83.377       66.819      116.177       92.409       67.068    13497.091     8539.380     4498.153        3.223        1.327      182.963       50.740        0.077      344.071       20.628      861.595
05/22/2014  16:29:00      151.613      143.143        8.386      117.450       96.349       59.542    13794.550     9283.062     3545.196        3.508        1.331      208.510       57.474        0.076      343.841       20.234      861.626
05/22/2014  16:30:00       66.810      149.932      -29.271       56.047       80.233       34.927     3141.248     6437.305     1219.924        1.930        0.540      164.144       34.072        0.043      343.695       19.986      861.640
05/22/2014  16:31:00      -32.774       95.658        0.653       48.979       77.115       35.626     2398.961     5946.730     1269.180        0.992        0.481      101.117       40.667        0.162      343.965       20.448      861.635
05/22/2014  16:32:00      -82.930       92.256       -8.692       42.734       58.564       35.797     1826.196     3429.781     1281.403        1.100        0.327      124.051       30.566        0.061      343.991       20.493      861.619
05/22/2014  16:33:00     -129.258       41.304      -32.759       43.479       51.847       32.175     1890.396     2688.100     1035.234        1.255        0.281      135.697       19.536        0.021      344.093       20.666      861.593
05/22/2014  16:34:00     -114.165       76.019      -27.438       44.431       37.333       25.471     1974.130     1393.744      648.781        1.179        0.201      137.158       23.673        0.030      344.000       20.508      861.561
05/22/2014  16:35:00     -129.070        0.712      -15.778       88.483       95.356       32.725     7829.239     9092.736     1070.920        1.745        0.900      129.072       25.793        0.040      344.327       21.066      861.515
05/22/2014  16:36:00     -113.673      217.257      -33.273       63.690       66.200       39.967     4056.420     4382.404     1597.353        3.563        0.502      245.198       37.026        0.023      344.079       20.639      861.506
05/22/2014  16:37:00      -94.751      152.627      -27.451       49.913       66.660       37.719     2491.266     4443.552     1422.688        2.069        0.418      179.646       40.376        0.051      343.949       20.419      861.510
05/22/2014  16:38:00     -112.039       20.774      -17.949       46.317       68.994       27.375     2145.233     4760.157      749.392        1.048        0.383      113.949       24.913        0.048      344.004       20.515      861.507
05/22/2014  16:39:00      -27.692      107.653       -0.117       59.575       87.589       34.680     3549.181     7671.774     1202.721        1.239        0.621      111.158       30.077        0.073      343.986       20.485      861.501
05/22/2014  16:40:00       98.963      129.122       -2.936       38.420       45.523       34.821     1476.112     2072.334     1212.506        1.562        0.238      162.684       28.596        0.031      343.609       19.841      861.486
05/22/2014  16:41:00       35.232       90.525       -7.250       46.148       70.642       23.664     2129.601     4990.265      559.978        0.858        0.384       97.139       35.856        0.136      343.695       19.988      861.489
05/22/2014  16:42:00      -28.350      162.613      -12.497       35.882       43.513       32.233     1287.542     1893.372     1038.975        1.581        0.211      165.066       26.951        0.027      343.865       20.277      861.502
05/22/2014  16:43:00      -38.430       98.831      -11.236       99.611       54.220       50.221     9922.382     2939.808     2522.184        1.337        0.769      106.040       35.458        0.112      344.107       20.690      861.498
05/22/2014  16:44:00      -11.066      273.704      -37.801       96.128       77.193       48.098     9240.528     5958.828     2313.411        4.699        0.876      273.927       35.205        0.017      344.058       20.603      861.485
05/22/2014  16:45:00      -58.883      293.124      -42.874       48.095       90.707       37.196     2313.164     8227.787     1383.562        5.157        0.596      298.980       40.676        0.019      343.816       20.191      861.489
05/22/2014  16:46:00      -53.546      221.774      -45.662       44.796       93.911       25.441     2006.642     8819.234      647.250        3.280        0.574      228.146       20.969        0.008      343.766       20.107      861.481
05/22/2014  16:47:00       -2.493      116.257      -22.106       43.225       53.394       24.534     1868.436     2850.964      601.921        0.966        0.266      116.284       16.692        0.021      343.797       20.160      861.470
05/22/2014  16:48:00      -54.968      101.237      -35.763       31.157       54.146       26.839      970.789     2931.841      720.357        0.959        0.231      115.197       24.138        0.044      343.855       20.261      861.458
05/22/2014  16:49:00      -50.851      122.909       -0.785       39.670       65.569       35.864     1573.693     4299.317     1286.207        1.242        0.358      133.013       32.965        0.061      344.123       20.719      861.441
05/22/2014  16:50:00       45.446       45.828       -6.941       49.620       38.172       39.621     2462.188     1457.130     1569.834        0.485        0.274       64.541       22.754        0.124      344.140       20.747      861.434
05/22/2014  16:51:00        5.871      164.395      -25.320       46.568       72.291       34.943     2168.591     5225.917     1221.047        1.816        0.431      164.500       41.779        0.065      344.051       20.594      861.429
05/22/2014  16:52:00      -59.920      267.581      -34.771       53.845       82.451       32.561     2899.245     6798.244     1060.209        4.358        0.538      274.208       35.528        0.017      344.086       20.652      861.413
05/22/2014  16:53:00       36.246      232.817      -22.914       79.512      108.414       67.352     6322.140    11753.563     4536.326        3.932        1.131      235.622       68.750        0.085      344.029       20.555      861.421
05/22/2014  16:54:00       46.917      180.299       -3.358       65.297      136.615       63.250     4263.636    18663.687     4000.507        3.082        1.346      186.304       71.655        0.148      344.153       20.769      861.413
05/22/2014  16:55:00        1.308      180.871      -27.327       56.665      114.027       45.208     3210.907    13002.053     2043.776        2.586        0.913      180.875       58.021        0.103      344.171       20.797      861.409
05/22/2014  16:56:00       69.504      190.801      -28.016       77.678      165.882       64.593     6033.804    27516.751     4172.256        3.986        1.886      203.066       85.098        0.176      344.040       20.575      861.394
05/22/2014  16:57:00       -5.800      171.866      -16.561       43.511       80.756       37.444     1893.166     6521.476     1402.061        1.983        0.491      171.963       43.465        0.064      344.351       21.106      861.379
05/22/2014  16:58:00      114.041      148.461        5.628      103.806       89.136       56.524    10775.590     7945.242     3194.961        2.849        1.096      187.206       48.172        0.066      344.016       20.532      861.385
05/22/2014  16:59:00      178.987      121.720       28.874      119.989       82.714       72.521    14397.286     6841.566     5259.335        3.709        1.325      216.454       45.604        0.044      344.162       20.783      861.354
05/22/2014  17:00:00       52.110       58.086       31.389       54.223       45.954       49.798     2940.162     2111.795     2479.817        0.730        0.377       78.035       21.669        0.077      344.160       20.783      861.352
05/22/2014  17:01:00      111.595      126.017        5.071       80.094       66.075       54.014     6415.018     4365.856     2917.562        2.103        0.685      168.327       28.130        0.028      344.088       20.655      861.356
05/22/2014  17:02:00       87.219       90.483        3.723       57.448       52.338       44.262     3300.318     2739.293     1959.093        1.190        0.400      125.675       31.128        0.061      343.945       20.415      861.347
05/22/2014  17:03:00       -6.122      122.126       -8.501       63.367       54.598       36.129     4015.392     2980.918     1305.324        1.166        0.415      122.279       33.803        0.076      344.163       20.787      861.320
05/22/2014  17:04:00      -13.058       90.518        0.353       41.894       60.197       34.797     1755.106     3623.659     1210.845        0.748        0.329       91.455       29.524        0.104      344.436       21.252      861.319
05/22/2014  17:05:00       16.382      128.240        3.773       58.236      121.465       37.747     3391.444    14753.851     1424.807        1.815        0.979      129.282       37.963        0.086      344.515       21.387      861.324
05/22/2014  17:06:00       96.410       61.149       26.498       52.802       45.556       40.517     2788.009     2075.328     1641.617        1.012        0.325      114.167       30.558        0.072      344.644       21.610      861.311
05/22/2014  17:07:00      199.163       71.929       72.922      100.760       71.247       71.507    10152.658     5076.119     5113.230        3.525        1.017      211.753       49.523        0.055      344.361       21.121      861.307
05/22/2014  17:08:00       78.185       -8.093       36.601       74.377       69.452       45.755     5531.892     4823.553     2093.560        0.998        0.622       78.603       40.215        0.262      344.493       21.350      861.294
05/22/2014  17:09:00      108.006       61.258       45.829       77.690       78.729       56.927     6035.683     6198.267     3240.632        1.649        0.774      124.169       43.973        0.125      344.239       20.916      861.284
05/22/2014  17:10:00      163.102      104.951       41.476      111.232       77.172       55.636    12372.657     5955.582     3095.325        3.038        1.071      193.951       48.287        0.062      344.352       21.109      861.311
05/22/2014  17:11:00      197.435      167.381       30.035       92.611       72.735       61.174     8576.868     5290.385     3742.249        4.275        0.880      258.838       43.841        0.029      344.068       20.620      861.329
05/22/2014  17:12:00      206.261      114.615       37.298      102.430       77.172       60.387    10491.858     5955.485     3646.644        3.858        1.005      235.967       28.870        0.015      344.259       20.948      861.329
05/22/2014  17:13:00      136.060       99.472       66.653      102.908       87.006       74.144    10590.139     7570.037     5497.313        2.825        1.183      168.544       63.275        0.141      344.269       20.965      861.322
05/22/2014  17:14:00      199.257      135.179       33.119       70.699       64.244       63.954     4998.350     4127.335     4090.058        3.614        0.661      240.784       47.023        0.038      344.151       20.762      861.324
05/22/2014  17:15:00       97.625       96.585        2.118       76.500       54.298       45.658     5852.274     2948.219     2084.693        1.487        0.544      137.330       24.565        0.032      343.993       20.495      861.319
05/22/2014  17:16:00      102.376       36.463       11.579       78.188      115.290       53.303     6113.312    13291.837     2841.259        1.709        1.112      108.676       24.104        0.049      344.146       20.757      861.314
05/22/2014  17:17:00      116.777       30.632       58.828       76.945       99.053       61.460     5920.479     9811.476     3777.339        1.877        0.975      120.727       54.017        0.200      344.376       21.150      861.314
05/22/2014  17:18:00       82.667       64.286       94.546       63.959       70.651       56.001     4090.763     4991.504     3136.151        1.606        0.611      104.722       43.614        0.173      344.222       20.888      861.320
05/22/2014  17:19:00       73.169      -28.255       31.326       81.735       73.097       51.657     6680.645     5343.147     2668.442        1.091        0.735       78.435       50.808        0.420      344.318       21.050      861.316
05/22/2014  17:20:00       85.558     -119.782        5.622       71.369      111.871       43.288     5093.482    12515.135     1873.842        2.059        0.974      147.200       60.390        0.168      344.271       20.968      861.309
05/22/2014  17:21:00       47.839      -55.365       13.440       47.606       76.549       44.992     2266.361     5859.788     2024.244        0.784        0.508       73.170       39.098        0.286      344.109       20.695      861.307
05/22/2014  17:22:00      123.507     -143.373       17.274      104.831       90.107       53.473    10989.455     8119.330     2859.396        2.903        1.098      189.235       67.127        0.126      344.359       21.119      861.303
05/22/2014  17:23:00      122.775      -74.392       24.318       85.353       77.291       55.019     7285.163     5973.944     3027.113        1.874        0.814      143.555       42.497        0.088      344.302       21.022      861.303
05/22/2014  17:24:00       49.581        1.081       43.743       81.699       37.246       32.284     6674.663     1387.254     1042.284        0.674        0.455       49.593       18.442        0.138      344.406       21.201      861.312
05/22/2014  17:25:00       12.518        5.756       29.043       27.175       40.354       23.326      738.457     1628.437      544.103        0.197        0.146       13.778       22.231        2.603      344.619       21.567      861.306
05/22/2014  17:26:00       31.452     -113.710      -13.810       33.109       39.320       24.779     1096.199     1546.095      614.015        0.868        0.163      117.980       22.646        0.037      344.552       21.453      861.305
05/22/2014  17:27:00       52.960      -20.286       41.356       57.206       93.478       65.546     3272.570     8738.066     4296.342        1.061        0.815       56.713       73.534        1.681      344.314       21.045      861.306
05/22/2014  17:28:00       36.980       75.535       99.218       47.802       54.219       34.023     2285.047     2939.715     1157.563        1.165        0.319       84.101       23.762        0.080      344.375       21.148      861.316
05/22/2014  17:29:00      136.498     -187.306      -10.981       92.023      137.513       53.421     8468.244    18909.841     2853.800        4.203        1.512      231.766       81.892        0.125      344.054       20.595      861.307
05/22/2014  17:30:00      120.029     -181.023      -30.308       49.382       80.066       32.307     2438.600     6410.500     1043.742        2.899        0.495      217.201       25.232        0.013      344.015       20.532      861.280
05/22/2014  17:31:00       41.705      -87.025       -4.123       37.430       83.419       40.215     1401.013     6958.695     1617.210        0.965        0.499       96.502       45.174        0.219      344.175       20.807      861.264
05/22/2014  17:32:00        1.986       15.544       30.361       40.897       34.326       29.419     1672.548     1178.291      865.492        0.244        0.186       15.670       22.977        2.150      344.380       21.157      861.258
05/22/2014  17:33:00       39.867        9.516       57.843       43.695       74.824       43.900     1909.241     5598.568     1927.207        0.723        0.472       40.987       34.613        0.713      344.408       21.207      861.274
05/22/2014  17:34:00      135.892      147.100      152.363      111.305       89.816       75.742    12388.793     8066.898     5736.877        4.475        1.310      200.262       62.070        0.096      344.218       20.877      861.272
05/22/2014  17:35:00      154.596       86.329      107.580      119.062      124.863       78.793    14175.821    15590.819     6208.375        3.944        1.799      177.066       75.339        0.181      344.174       20.802      861.285
05/22/2014  17:36:00       87.921      110.746      116.474      114.709       96.853       89.018    13158.180     9380.536     7924.269        3.201        1.523      141.403       83.752        0.351      344.272       20.968      861.302
05/22/2014  17:37:00      101.767       30.129       60.267       77.611       71.826       61.136     6023.524     5158.989     3737.606        1.491        0.746      106.133       50.664        0.228      344.105       20.686      861.328
05/22/2014  17:38:00       79.974      130.836      106.235       81.740       70.350       81.887     6681.427     4949.144     6705.498        2.656        0.917      153.343       61.526        0.161      344.163       20.784      861.325
05/22/2014  17:39:00      121.401      110.281       85.728       62.561       64.331       51.742     3913.887     4138.534     2677.264        2.249        0.536      164.013       43.025        0.069      344.063       20.614      861.326
05/22/2014  17:40:00       91.017       73.497       57.046       86.400       58.778       71.370     7464.938     3454.821     5093.731        1.647        0.801      116.987       57.588        0.242      344.144       20.754      861.315
05/22/2014  17:41:00       50.747      -50.219       42.312       87.545      106.294       53.849     7664.111    11298.496     2899.699        1.437        1.093       71.395       61.669        0.746      344.505       21.372      861.304
05/22/2014  17:42:00       62.244       -9.515       62.846       84.672      119.584       70.459     7169.386    14300.452     4964.463        1.717        1.322       62.967       79.921        1.611      344.484       21.335      861.286
05/22/2014  17:43:00      128.726      -79.762       33.286       93.283       77.099       49.100     8701.625     5944.253     2410.838        2.055        0.853      151.434       36.801        0.059      344.545       21.438      861.276
05/22/2014  17:44:00      127.589       19.228       90.311      103.429      134.194       75.228    10697.534    18007.957     5659.229        2.958        1.718      129.029       95.487        0.548      344.211       20.866      861.267
05/22/2014  17:45:00       53.443       49.988       75.767       53.778       73.974       47.431     2892.106     5472.155     2249.667        1.085        0.531       73.178       46.606        0.406      344.331       21.072      861.257
05/22/2014  17:46:00       44.581      -34.461       18.167       54.009       77.112       42.887     2916.935     5946.232     1839.293        0.710        0.535       56.347       50.680        0.809      344.562       21.469      861.243
05/22/2014  17:47:00       66.370      -60.885       35.116      103.331      137.507       67.881    10677.255    18908.170     4607.898        2.176        1.710       90.066       93.844        1.086      344.469       21.310      861.242
05/22/2014  17:48:00      140.072     -215.437      -26.442      111.082       91.867       56.757    12339.138     8439.521     3221.395        4.536        1.200      256.970       66.393        0.067      344.176       20.807      861.236
05/22/2014  17:49:00      126.101     -155.619        8.942       78.269       81.523       58.664     6126.076     6646.009     3441.447        2.820        0.811      200.297       54.006        0.073      344.144       20.752      861.241
05/22/2014  17:50:00      108.055     -164.810        5.390       47.047       69.052       41.798     2213.430     4768.131     1747.037        2.380        0.436      197.074       38.023        0.037      344.084       20.650      861.246
05/22/2014  17:51:00        4.170       43.692       39.836       30.915       25.812       27.677      955.757      666.236      766.012        0.295        0.119       43.890       21.138        0.232      344.144       20.754      861.216
05/22/2014  17:52:00        6.488       23.370       12.077       24.360       39.014       31.506      593.410     1522.103      992.629        0.192        0.155       24.254       17.168        0.501      344.509       21.378      861.205
05/22/2014  17:53:00       31.495      -50.406       14.192       46.748       59.379       25.585     2185.351     3525.862      654.596        0.505        0.318       59.436       14.393        0.059      344.593       21.523      861.196
05/22/2014  17:54:00       70.580      -90.133        6.047       60.906       63.790       38.072     3709.548     4069.191     1449.449        1.118        0.461      114.479       31.792        0.077      344.556       21.458      861.195
05/22/2014  17:55:00       22.696       -0.656       54.058       38.968      111.012       49.583     1518.487    12323.557     2458.476        0.987        0.815       22.705       62.983        7.695      344.556       21.459      861.199
05/22/2014  17:56:00       56.473       15.767       67.852       79.108       96.203       64.709     6258.005     9254.921     4187.206        1.387        0.985       58.632       59.854        1.042      344.423       21.230      861.223
05/22/2014  17:57:00      163.239       87.491      113.232      137.086      168.129       94.038    18792.492    28267.351     8843.192        5.150        2.795      185.207      104.639        0.319      344.300       21.016      861.231
05/22/2014  17:58:00      259.087      180.107       22.319      102.134       67.569       59.797    10431.267     4565.599     3575.630        5.931        0.929      315.538       37.658        0.014      344.078       20.638      861.258
05/22/2014  17:59:00      172.400       91.477       18.245      112.369       77.919       56.550    12626.883     6071.402     3197.954        3.016        1.095      195.167       37.206        0.036      344.074       20.633      861.258
05/22/2014  18:00:00      170.884      124.954       68.647      101.461       78.470       66.303    10294.429     6157.578     4396.127        3.518        1.042      211.695       57.226        0.073      344.258       20.947      861.245
05/22/2014  18:01:00      102.488       83.476       82.105      100.845       69.732       67.881    10169.767     4862.581     4607.833        2.192        0.982      132.182       72.771        0.303      344.249       20.932      861.270
05/22/2014  18:02:00      151.243       51.748       41.030      114.742       58.320       62.543    13165.626     3401.236     3911.595        2.385        1.024      159.851       61.747        0.149      344.369       21.137      861.275
05/22/2014  18:03:00      131.646      107.020      126.646      100.897       92.578       67.206    10180.211     8570.679     4516.581        3.404        1.163      169.658       64.371        0.144      344.377       21.150      861.285
05/22/2014  18:04:00      121.412       61.105       41.670       85.904       63.529       57.428     7379.567     4035.985     3298.012        1.746        0.736      135.921       25.648        0.036      344.320       21.053      861.306
05/22/2014  18:05:00       71.090       60.708       30.690       66.091       38.549       36.768     4367.981     1486.016     1351.890        0.844        0.360       93.484        8.678        0.009      344.479       21.326      861.313
05/22/2014  18:06:00       86.163       37.756       10.078       44.914       40.983       34.234     2017.291     1679.605     1171.966        0.691        0.243       94.073       22.207        0.056      344.251       20.938      861.328
05/22/2014  18:07:00       60.198       50.664        9.554       44.123       45.391       32.528     1946.814     2060.365     1058.040        0.567        0.253       78.680       21.920        0.078      344.251       20.935      861.339
05/22/2014  18:08:00       46.776       48.179       57.584       46.681       53.298       41.668     2179.076     2840.692     1736.252        0.729        0.338       67.150       43.834        0.426      344.457       21.290      861.342
05/22/2014  18:09:00      162.034      100.565       50.963      116.995       99.741       72.059    13687.863     9948.314     5192.457        3.389        1.441      190.705       54.427        0.081      344.325       21.062      861.348
05/22/2014  18:10:00       93.392       60.103       87.552       77.758       76.942       53.009     6046.270     5920.015     2809.964        1.739        0.739      111.060       41.890        0.142      344.473       21.315      861.338
05/22/2014  18:11:00       83.265      -40.646       46.477       78.458       96.339       53.136     6155.709     9281.214     2823.389        1.450        0.913       92.656       45.242        0.238      344.558       21.462      861.341
05/22/2014  18:12:00      145.488      105.189       95.639      109.180       97.357       86.065    11920.344     9478.291     7407.180        3.509        1.440      179.532       70.206        0.153      344.348       21.100      861.357
05/22/2014  18:13:00       72.773       96.552      131.418       87.813       92.800       76.558     7711.143     8611.759     5861.126        2.703        1.109      120.906       73.207        0.367      344.419       21.224      861.369
05/22/2014  18:14:00      149.513       45.171       28.897       75.058       39.671       46.678     5633.630     1573.827     2178.828        1.731        0.469      156.188       42.135        0.073      344.395       21.183      861.384
05/22/2014  18:15:00       79.588       17.124        3.892       50.997       41.528       29.217     2600.687     1724.548      853.607        0.591        0.259       81.410       27.673        0.116      344.372       21.145      861.390
05/22/2014  18:16:00       68.008      -92.405       19.739       55.202       75.928       50.868     3047.225     5764.998     2587.602        1.247        0.570      114.733       39.021        0.116      344.550       21.447      861.381
05/22/2014  18:17:00       54.013     -120.415       17.082       58.797      135.045       53.392     3457.038    18237.180     2850.654        2.112        1.227      131.974       67.467        0.261      344.414       21.213      861.371
05/22/2014  18:18:00      114.901     -200.599      -14.772       70.256       57.277       39.341     4935.894     3280.705     1547.679        3.171        0.488      231.176       28.576        0.015      344.465       21.299      861.361
05/22/2014  18:19:00       77.660      -33.192       45.072       72.594      105.683       76.749     5269.932    11168.964     5890.472        1.574        1.116       84.456       57.828        0.469      344.534       21.420      861.355
05/22/2014  18:20:00       60.941        0.359       46.602       69.909       81.174       60.740     4887.245     6589.170     3689.347        1.052        0.758       60.942       49.897        0.670      344.601       21.536      861.358
05/22/2014  18:21:00      110.685      -10.640       72.280       98.410      171.017       96.902     9684.452    29246.722     9390.052        3.295        2.416      111.195      117.923        1.125      344.407       21.203      861.350
05/22/2014  18:22:00      218.041      109.406       66.494      131.124       82.461       79.150    17193.603     6799.748     6264.743        4.709        1.513      243.950       68.981        0.080      344.226       20.892      861.370
05/22/2014  18:23:00      122.885       40.290       20.395       90.289       58.565       44.953     8152.106     3429.883     2020.747        1.537        0.680      129.321       41.693        0.104      344.317       21.050      861.370
05/22/2014  18:24:00       33.765      -20.965       24.589       49.597       71.037       31.846     2459.848     5046.313     1014.186        0.535        0.426       39.744       28.508        0.514      344.590       21.516      861.371
05/22/2014  18:25:00      151.504     -241.475      -27.643       89.863       77.538       40.181     8075.287     6012.133     1614.548        4.886        0.785      285.068       36.880        0.017      344.411       21.208      861.377
05/22/2014  18:26:00       70.663      -29.533       52.417      103.192      131.975       74.435    10648.602    17417.348     5540.621        2.110        1.680       76.587       95.480        1.554      344.322       21.058      861.386
05/22/2014  18:27:00      105.608       17.660       67.603       53.850       89.431       45.397     2899.808     7997.836     2060.864        1.449        0.648      107.074       53.146        0.246      344.343       21.093      861.398
05/22/2014  18:28:00      162.692      120.417       76.865      106.576       88.085       81.543    11358.522     7758.950     6649.341        3.632        1.288      202.408       47.355        0.055      344.447       21.271      861.399
05/22/2014  18:29:00      159.314       91.775      101.343      134.202       93.865      101.045    18010.286     8810.692    10210.013        4.055        1.852      183.857       73.091        0.158      344.333       21.074      861.374
05/22/2014  18:30:00       39.484       -5.540       61.331      100.410       76.375       54.691    10082.208     5833.157     2991.086        1.212        0.945       39.871       48.349        1.471      344.477       21.323      861.368
05/22/2014  18:31:00      116.872      -57.915       55.537       80.176      100.638       52.021     6428.156    10127.983     2706.162        1.968        0.963      130.435       58.688        0.202      344.426       21.235      861.356
05/22/2014  18:32:00       80.575       27.353       61.779      112.663       75.014       51.260    12692.860     5627.136     2627.617        1.600        1.047       85.091       32.523        0.146      344.527       21.408      861.350
05/22/2014  18:33:00      140.431       57.842       72.169       98.554       88.173       75.835     9712.974     7774.439     5750.998        2.575        1.162      151.877       61.388        0.163      344.433       21.246      861.362
05/22/2014  18:34:00      175.030       81.135       23.286       94.586      101.719       64.456     8946.601    10346.818     4154.547        3.060        1.172      192.920       38.598        0.040      344.423       21.229      861.363
05/22/2014  18:35:00      176.670       91.767       75.313       95.113       96.322       78.028     9046.549     9277.990     6088.439        3.485        1.221      199.082       52.720        0.070      344.419       21.220      861.367
05/22/2014  18:36:00       94.975       81.632       55.836       78.099       66.511       46.877     6099.390     4423.775     2197.451        1.576        0.636      125.236       37.842        0.091      344.413       21.213      861.373
05/22/2014  18:37:00      143.621       68.492       20.904       74.685       57.288       44.099     5577.827     3281.882     1944.746        1.828        0.540      159.117       25.091        0.025      344.315       21.044      861.359
05/22/2014  18:38:00      147.897       99.676       45.064       61.533       53.919       46.179     3786.347     2907.289     2132.542        2.133        0.441      178.351       25.992        0.021      344.319       21.051      861.357
05/22/2014  18:39:00      121.182       90.472       27.879      125.856      114.121       69.271    15839.741    13023.688     4798.462        2.865        1.683      151.229       49.369        0.107      344.318       21.047      861.358
05/22/2014  18:40:00      133.880       53.367      116.094      117.997      132.210       80.167    13923.318    17479.493     6426.753        3.603        1.891      144.125       93.030        0.417      344.355       21.112      861.329
05/22/2014  18:41:00      137.742       48.689       69.837       81.603      113.824       71.589     6659.098    12955.932     5124.927        2.548        1.237      146.094       73.110        0.250      344.337       21.081      861.349
05/22/2014  18:42:00       42.703       21.962       48.705       53.996       66.484       43.814     2915.592     4420.090     1919.634        0.696        0.463       48.019       38.020        0.627      344.504       21.370      861.362
05/22/2014  18:43:00      135.506       44.510       55.788       92.485       96.808       58.993     8553.454     9371.769     3480.188        2.243        1.070      142.629       44.760        0.098      344.385       21.165      861.376
05/22/2014  18:44:00       34.541       39.740       74.637       58.568       55.323       39.154     3430.223     3060.689     1533.014        0.818        0.401       52.653       37.522        0.508      344.468       21.307      861.386
05/22/2014  18:45:00       19.719      -22.572       34.633       34.616       61.197       39.397     1198.258     3745.127     1552.088        0.430        0.325       29.972       33.257        1.231      344.524       21.403      861.406
05/22/2014  18:46:00       25.789       -1.583       33.176       33.384       34.837       21.560     1114.473     1213.585      464.843        0.228        0.140       25.838       20.782        0.647      344.585       21.508      861.425
05/22/2014  18:47:00       21.464      -46.061       29.831       38.259       37.134       22.219     1463.738     1378.912      493.664        0.340        0.167       50.817        9.929        0.038      344.498       21.359      861.441
05/22/2014  18:48:00        7.026       16.549        7.144       29.643       29.666       22.710      878.692      880.095      515.759        0.132        0.114       17.978       11.773        0.429      344.497       21.359      861.445
05/22/2014  18:49:00      161.247       59.695       34.911       78.454       56.335       40.946     6154.991     3173.614     1676.572        2.089        0.550      171.942       22.800        0.018      344.381       21.157      861.463
05/22/2014  18:50:00      116.195       68.428       68.542       75.099       45.645       41.129     5639.920     2083.499     1691.567        1.615        0.471      134.847       33.754        0.063      344.401       21.194      861.472
05/22/2014  18:51:00      119.790       64.437       85.835       87.671       69.008       55.943     7686.194     4762.052     3129.653        2.072        0.779      136.021       45.868        0.114      344.431       21.243      861.474
05/22/2014  18:52:00       86.913      106.254      105.375       99.221       73.452       64.299     9844.765     5395.266     4134.364        2.466        0.969      137.272       67.757        0.244      344.290       21.002      861.482
05/22/2014  18:53:00       62.189       42.391       54.790       61.066       53.747       41.899     3729.084     2888.780     1755.539        0.852        0.419       75.263       24.038        0.102      344.396       21.184      861.489
05/22/2014  18:54:00      151.824      113.818        6.725       81.505       58.631       49.296     6643.061     3437.551     2430.123        2.428        0.626      189.749       24.273        0.016      344.189       20.830      861.494
05/22/2014  18:55:00      103.793       75.334       42.905       52.126       49.724       38.813     2717.091     2472.457     1506.453        1.249        0.335      128.251       24.686        0.037      344.239       20.916      861.493
05/22/2014  18:56:00      153.628       99.247       11.064       82.816       58.719       42.409     6858.418     3447.974     1798.563        2.284        0.605      182.898       15.793        0.007      344.295       21.010      861.503
05/22/2014  18:57:00      184.529      110.524       33.795       94.836       68.647       58.906     8993.895     4712.394     3469.944        3.229        0.859      215.096       44.205        0.042      344.196       20.840      861.510
05/22/2014  18:58:00      228.664      132.515       82.291       90.262       81.651       71.164     8147.150     6666.859     5064.284        4.824        0.994      264.286       42.902        0.026      344.169       20.793      861.532
05/22/2014  18:59:00      216.621      124.695       57.767      110.818       93.109       82.886    12280.554     8669.315     6870.012        4.681        1.391      249.947       58.495        0.055      344.139       20.743      861.548
05/22/2014  19:00:00      211.020       75.158       24.556       94.853       69.452       68.378     8997.034     4823.621     4675.536        3.463        0.925      224.005       55.642        0.062      344.099       20.674      861.576
05/22/2014  19:01:00      133.316       96.638        6.547       51.932       37.488       36.606     2696.890     1405.348     1340.018        1.630        0.272      164.657       24.430        0.022      344.064       20.617      861.601
05/22/2014  19:02:00      129.895       84.692       24.503       50.104       38.063       28.389     2510.365     1448.765      805.940        1.470        0.238      155.066       19.517        0.016      344.086       20.655      861.603
05/22/2014  19:03:00      147.440      111.015       27.223       94.982       53.415       47.793     9021.529     2853.167     2284.135        2.448        0.708      184.561       51.091        0.077      344.099       20.675      861.614
05/22/2014  19:04:00      143.116       67.922       30.725       50.137       46.665       45.195     2513.753     2177.655     2042.588        1.639        0.337      158.415       25.758        0.026      344.133       20.734      861.631
05/22/2014  19:05:00       88.917       37.577       22.570       47.238       33.040       28.334     2231.450     1091.646      802.808        0.698        0.206       96.531       26.158        0.073      344.188       20.829      861.639
05/22/2014  19:06:00       97.902       53.249       16.892       45.072       34.082       31.924     2031.486     1161.586     1019.167        0.846        0.211      111.446       24.998        0.050      344.055       20.603      861.646
05/22/2014  19:07:00       74.966       62.138       10.161       28.123       26.244       22.959      790.922      688.729      527.133        0.580        0.100       97.370       12.742        0.017      344.073       20.634      861.655
05/22/2014  19:08:00       81.941       52.130       17.149       32.526       18.794       18.520     1057.930      353.215      342.999        0.574        0.088       97.117       12.996        0.018      344.087       20.657      861.672
05/22/2014  19:09:00       78.685       38.769       51.721       59.573       50.522       40.594     3548.915     2552.484     1647.899        0.906        0.387       87.717       26.270        0.090      344.140       20.749      861.705
05/22/2014  19:10:00       94.431       80.188       79.558       82.910       73.543       67.107     6874.028     5408.545     4503.349        1.923        0.839      123.884       60.829        0.241      344.171       20.800      861.740
05/22/2014  19:11:00       99.243       51.052       27.539       76.332       62.155       44.044     5826.631     3863.202     1939.851        1.242        0.581      111.604       35.361        0.100      344.153       20.768      861.778
05/22/2014  19:12:00      118.158       45.214       30.080       58.268       42.509       30.498     3395.211     1807.039      930.153        1.152        0.307      126.513       28.730        0.052      344.227       20.897      861.824
05/22/2014  19:13:00      119.322       75.582       55.114       95.375       71.126       52.016     9096.408     5058.936     2705.642        1.992        0.843      141.246       28.768        0.041      344.153       20.767      861.857
05/22/2014  19:14:00      137.499       84.797       89.304       90.729       56.416       59.320     8231.733     3182.818     3518.859        2.450        0.747      161.544       44.900        0.077      344.178       20.812      861.894
05/22/2014  19:15:00       88.046      100.755      127.224       85.592       66.158       52.402     7325.998     4376.909     2745.979        2.427        0.722      133.805       50.724        0.144      344.234       20.906      861.929
05/22/2014  19:16:00       95.089      102.380      100.189       59.869       60.863       54.536     3584.265     3704.363     2974.213        1.991        0.513      139.727       33.398        0.057      344.221       20.884      861.964
05/22/2014  19:17:00      222.757      114.880       73.985      150.811      118.574       69.186    22743.999    14059.707     4786.692        5.493        2.080      250.636       53.542        0.046      344.119       20.708      861.983
05/22/2014  19:18:00      231.701      108.673       58.944       92.969       84.391       62.450     8643.153     7121.837     3900.054        4.431        0.983      255.921       47.944        0.035      344.094       20.666      862.023
05/22/2014  19:19:00      106.858       61.413       36.464       74.367       62.909       48.026     5530.410     3957.561     2306.471        1.415        0.590      123.249       37.900        0.095      344.132       20.732      862.036
05/22/2014  19:20:00      172.398      133.180       95.573      113.163       80.806       71.268    12805.783     6529.657     5079.084        4.050        1.221      217.848       38.190        0.031      344.101       20.678      862.042
05/22/2014  19:21:00      192.852      127.505      114.994      104.171       80.731       88.265    10851.631     6517.571     7790.779        4.591        1.258      231.191       59.972        0.067      344.087       20.654      862.053
05/22/2014  19:22:00      176.740      139.735      123.238      114.883       97.641       78.525    13198.019     9533.816     6166.152        4.742        1.445      225.306       74.674        0.110      344.106       20.685      862.073
05/22/2014  19:23:00      159.031       80.650       92.416      113.119      113.006       95.451    12795.956    12770.321     9110.811        3.750        1.734      178.312       79.690        0.200      344.078       20.640      862.097
05/22/2014  19:24:00      210.369       94.125       36.441      100.214       81.808       69.124    10042.848     6692.585     4778.101        3.797        1.076      230.466       36.562        0.025      344.041       20.576      862.112
05/22/2014  19:25:00      217.759       96.062       33.277      131.249       99.517       72.133    17226.371     9903.637     5203.129        4.504        1.617      238.006       66.814        0.079      344.013       20.528      862.126
05/22/2014  19:26:00      184.415       85.099       36.202      150.398      106.096       62.585    22619.655    11256.382     3916.906        4.017        1.890      203.103       52.415        0.067      344.013       20.528      862.142
05/22/2014  19:27:00      135.934       77.822       38.651       96.075       67.720       69.801     9230.497     4585.991     4872.129        2.235        0.934      156.634       47.147        0.091      344.001       20.508      862.172
05/22/2014  19:28:00      245.591      130.092       49.511      100.886       62.747       55.334    10177.893     3937.185     3061.816        4.843        0.859      277.918       26.321        0.009      343.985       20.478      862.187
05/22/2014  19:29:00      205.645       92.669       25.763       86.461       75.271       54.481     7475.457     5665.731     2968.219        3.382        0.805      225.560       33.495        0.022      343.996       20.499      862.205
05/22/2014  19:30:00      167.537       71.886       27.330       73.719       59.579       45.494     5434.465     3549.618     2069.717        2.252        0.553      182.308       17.892        0.010      343.975       20.464      862.223
05/22/2014  19:31:00      160.924       37.245       34.848      120.198       81.065       70.366    14447.662     6571.537     4951.416        2.723        1.299      165.178       51.309        0.096      343.996       20.499      862.243
05/22/2014  19:32:00      139.177       89.156       72.823      136.151      105.820       61.950    18537.191    11197.950     3837.791        3.309        1.679      165.285       59.480        0.130      344.000       20.507      862.253
05/22/2014  19:33:00      170.003       72.798       34.297       79.489       67.686       47.191     6318.574     4581.376     2226.992        2.425        0.656      184.934       42.106        0.052      343.986       20.481      862.270
05/22/2014  19:34:00       49.099       34.071       75.456       83.925       92.606       51.990     7043.340     8575.896     2702.947        1.379        0.916       59.763       51.064        0.730      344.100       20.679      862.267
05/22/2014  19:35:00       86.592      111.852      104.055       99.055       95.315       67.368     9811.988     9084.869     4538.482        2.713        1.172      141.453       68.314        0.233      344.019       20.538      862.273
05/22/2014  19:36:00      139.110       51.193       72.350      106.006       86.625       68.294    11237.186     7503.828     4664.025        2.530        1.170      148.231       60.040        0.164      343.963       20.443      862.290
05/22/2014  19:37:00      162.011       48.309       17.536       95.405       89.106       57.122     9102.030     7939.966     3262.929        2.459        1.015      169.060       39.223        0.054      343.922       20.372      862.295
05/22/2014  19:38:00      125.717       78.439       86.311       86.100       73.295       67.091     7413.186     5372.085     4501.243        2.334        0.864      148.181       54.354        0.135      343.967       20.450      862.300
05/22/2014  19:39:00      202.424       98.133       55.808      104.863       85.787       61.539    10996.216     7359.376     3786.992        3.793        1.107      224.957       44.264        0.039      343.922       20.372      862.293
05/22/2014  19:40:00      206.281      126.887      105.689      133.483      107.310       95.309    17817.673    11515.340     9083.860        5.411        1.921      242.182       89.977        0.138      343.923       20.374      862.293
05/22/2014  19:41:00      209.755       89.596       91.778      103.238       94.843       92.714    10658.032     8995.191     8595.836        4.434        1.412      228.089       75.292        0.109      343.902       20.337      862.299
05/22/2014  19:42:00      102.943       90.895      111.370      110.578       81.987       52.911    12227.529     6721.811     2799.599        2.650        1.087      137.329       45.374        0.109      343.905       20.344      862.305
05/22/2014  19:43:00      204.897      142.723      114.566      133.466      105.763       99.394    17813.107    11185.818     9879.193        5.717        1.944      249.705       76.246        0.093      343.846       20.243      862.303
05/22/2014  19:44:00      184.470      103.727      117.403      143.748      101.163       91.396    20663.429    10234.012     8353.319        4.890        1.963      211.633       73.127        0.119      343.872       20.286      862.310
05/22/2014  19:45:00       83.146       43.872       73.827       93.375      104.861       65.137     8718.828    10995.872     4242.834        1.912        1.198       94.010       62.463        0.441      343.848       20.248      862.335
05/22/2014  19:46:00       63.297       19.475       70.566       62.988       82.935       41.528     3967.470     6878.285     1724.540        1.097        0.629       66.226       40.494        0.374      343.861       20.271      862.346
05/22/2014  19:47:00       92.156       77.008       87.350       78.889       58.172       53.871     6223.474     3383.974     2902.134        1.728        0.625      120.096       29.265        0.059      343.818       20.195      862.342
05/22/2014  19:48:00      207.733      105.458       90.035      111.110       88.624       73.761    12345.538     7854.235     5440.633        4.401        1.282      232.969       54.689        0.055      343.843       20.237      862.344
05/22/2014  19:49:00      214.772       77.976       97.769       93.139      144.283       83.578     8674.910    20817.574     6985.214        4.911        1.824      228.489       67.895        0.088      343.874       20.289      862.334
05/22/2014  19:50:00      124.107       84.941      102.216      126.292      100.865       75.601    15949.646    10173.748     5715.526        3.245        1.592      150.391       52.871        0.124      343.891       20.321      862.319
05/22/2014  19:51:00       33.825       38.811       44.265       72.995       57.071       44.456     5328.211     3257.081     1976.350        0.758        0.528       51.482       36.367        0.499      343.830       20.219      862.341
05/22/2014  19:52:00      118.267        6.952       46.520       75.573       55.179       45.491     5711.233     3044.733     2069.394        1.351        0.541      118.471       43.029        0.132      343.834       20.224      862.340
05/22/2014  19:53:00      142.386       84.348       50.040       74.969       78.592       63.803     5620.385     6176.761     4070.793        2.288        0.793      165.495       40.280        0.059      343.822       20.204      862.342
05/22/2014  19:54:00      213.217       91.605       83.128      101.030       90.746       80.538    10207.146     8234.755     6486.353        4.284        1.246      232.062       64.036        0.076      343.786       20.140      862.352
05/22/2014  19:55:00      209.921      122.927       79.343      131.866      100.493       85.522    17388.605    10098.915     7314.082        5.013        1.740      243.265       72.604        0.089      343.787       20.141      862.342
05/22/2014  19:56:00      139.721       69.553       44.429       82.576       76.300       72.105     6818.788     5821.658     5199.126        2.208        0.892      156.075       39.267        0.063      343.755       20.087      862.368
05/22/2014  19:57:00      115.653       82.916       79.725       82.985       63.383       53.153     6886.523     4017.391     2825.192        2.017        0.686      142.305       47.774        0.113      343.801       20.167      862.368
05/22/2014  19:58:00      135.061       94.174       57.319       78.023       50.704       45.565     6087.629     2570.874     2076.184        2.056        0.537      164.652       22.719        0.019      343.729       20.045      862.384
05/22/2014  19:59:00      102.767      105.609      107.266       76.745       57.899       56.139     5889.807     3352.237     3151.567        2.280        0.620      147.357       46.955        0.102      343.686       19.971      862.374
05/22/2014  20:00:00       22.576       23.111       45.222       42.260       49.595       28.407     1785.921     2459.654      806.946        0.407        0.253       32.308       19.268        0.356      343.491       19.639      862.368
05/22/2014  20:01:00      131.198       99.157       57.520       70.867       35.019       34.842     5022.160     1226.346     1213.940        1.891        0.373      164.454       21.734        0.017      343.550       19.739      862.363
05/22/2014  20:02:00       52.451       41.342       49.796       54.510       58.443       37.590     2971.361     3415.586     1412.981        0.737        0.390       66.786       33.380        0.250      343.301       19.316      862.378
05/22/2014  20:03:00      133.594      108.043       78.246       71.414       56.993       47.379     5100.017     3248.215     2244.755        2.312        0.530      171.816       34.923        0.041      343.573       19.776      862.385
05/22/2014  20:04:00       12.154       64.224       80.739       39.919       50.850       49.206     1593.560     2585.699     2421.223        0.869        0.330       65.364       41.371        0.401      343.373       19.439      862.381
05/22/2014  20:05:00       50.486       30.251       81.830       59.202      114.086       48.254     3504.832    13015.574     2328.430        1.450        0.942       58.856       41.365        0.494      343.395       19.475      862.381
05/22/2014  20:06:00      142.534      101.940       67.260       86.123       81.727       61.219     7417.255     6679.262     3747.771        2.653        0.892      175.236       45.828        0.068      343.455       19.575      862.369
05/22/2014  20:07:00       95.667       44.218       85.081       79.361       72.161       52.373     6298.242     5207.281     2742.954        1.629        0.712      105.392       45.569        0.187      343.391       19.468      862.374
05/22/2014  20:08:00      129.245       67.650       66.940       91.414       82.596       56.016     8356.480     6822.043     3137.737        2.204        0.916      145.879       49.666        0.116      343.378       19.445      862.384
05/22/2014  20:09:00      118.267       73.350       62.500       76.351       55.031       62.076     5829.492     3028.426     3853.396        1.799        0.636      139.167       45.221        0.106      343.316       19.341      862.387
05/22/2014  20:10:00      115.118       31.679       45.688       88.729       75.118       52.218     7872.854     5642.639     2726.671        1.629        0.812      119.397       49.823        0.174      343.384       19.457      862.399
05/22/2014  20:11:00       86.321       51.019       71.766       58.929       65.960       40.437     3472.604     4350.707     1635.169        1.233        0.473      100.271       37.577        0.140      343.169       19.091      862.414
05/22/2014  20:12:00       21.298       54.812       71.781       61.208       70.214       40.954     3746.447     4929.949     1677.219        0.948        0.518       58.804       42.513        0.523      343.212       19.165      862.440
05/22/2014  20:13:00       69.241       53.537       66.802       54.687       65.262       37.620     2990.666     4259.067     1415.299        1.039        0.433       87.525       35.731        0.167      343.296       19.308      862.449
05/22/2014  20:14:00      130.413       39.969       41.203       84.674       63.940       46.648     7169.677     4088.345     2176.044        1.687        0.672      136.400       43.316        0.101      343.183       19.114      862.463
05/22/2014  20:15:00       38.936       47.791       62.656       50.095       52.135       36.014     2509.505     2718.053     1297.035        0.712        0.326       61.645       32.351        0.275      343.046       18.881      862.472
05/22/2014  20:16:00       79.360       63.064       42.010       64.467       39.616       33.140     4156.047     1569.411     1098.243        0.943        0.341      101.366       26.641        0.069      343.313       19.337      862.478
05/22/2014  20:17:00       60.584       27.991       15.500       37.922       38.330       33.230     1438.061     1469.198     1104.200        0.435        0.201       66.738       24.843        0.139      343.167       19.088      862.484
05/22/2014  20:18:00       36.454       11.131       23.882       43.150       41.643       22.924     1861.948     1734.114      525.490        0.307        0.206       38.116       12.829        0.113      343.229       19.193      862.488
05/22/2014  20:19:00       86.473       51.490        5.656       29.104       25.812       29.072      847.068      666.262      845.168        0.626        0.118      100.643       16.209        0.026      343.244       19.220      862.486
05/22/2014  20:20:00       99.937       54.103       32.219       35.862       34.373       25.367     1286.054     1181.535      643.467        0.853        0.156      113.642       11.319        0.010      343.183       19.116      862.476
05/22/2014  20:21:00       55.343       18.035       18.601       43.999       29.960       33.225     1935.920      897.602     1103.904        0.384        0.197       58.208       22.078        0.144      342.977       18.764      862.465
05/22/2014  20:22:00       77.719       51.689        8.283       24.835       20.673       29.066      616.786      427.394      844.860        0.533        0.094       93.338       13.439        0.021      343.017       18.833      862.465
05/22/2014  20:23:00       14.978        7.323        3.396       25.985       26.888       26.522      675.237      722.956      703.407        0.120        0.105       16.672       15.897        0.909      342.975       18.760      862.460
05/22/2014  20:24:00       28.883       38.755        7.488       24.170       36.613       23.407      584.208     1340.488      547.909        0.243        0.124       48.334        4.212        0.008      342.949       18.716      862.456
05/22/2014  20:25:00       42.265       29.830       29.723       29.116       22.895       26.260      847.752      524.159      689.591        0.281        0.103       51.732       10.985        0.045      342.853       18.555      862.445
05/22/2014  20:26:00       28.648       -8.516       13.976       22.802       25.519       29.102      519.922      651.234      846.911        0.155        0.101       29.887       12.326        0.170      342.671       18.244      862.433
05/22/2014  20:27:00        3.956        5.549       12.059       24.528       32.102       19.270      601.633     1030.544      371.325        0.110        0.100        6.815       11.122        2.664      342.705       18.301      862.433
05/22/2014  20:28:00       15.088       11.497        7.141       24.580       24.018       18.595      604.172      576.858      345.767        0.097        0.076       18.969       12.545        0.437      342.869       18.581      862.436
05/22/2014  20:29:00       -2.114      -33.463       20.132       38.032       60.668       33.805     1446.436     3680.562     1142.791        0.390        0.313       33.530       28.201        0.707      342.833       18.518      862.441
05/22/2014  20:30:00       22.254       32.083       22.830       18.355       21.559       23.675      336.924      464.793      560.513        0.170        0.068       39.046       14.227        0.133      343.006       18.815      862.446
05/22/2014  20:31:00       35.242      -16.212      -12.402       42.240       31.014       23.158     1784.177      961.854      536.293        0.247        0.164       38.792       19.796        0.260      343.078       18.937      862.456
05/22/2014  20:32:00       56.956      -29.800       -7.553       54.539       39.617       23.168     2974.489     1569.497      536.770        0.463        0.254       64.281       14.239        0.049      342.702       18.295      862.462
05/22/2014  20:33:00       24.662      -25.909      -15.188       53.043       31.674       21.226     2813.536     1003.270      450.533        0.289        0.213       35.770       21.399        0.358      342.759       18.394      862.471
05/22/2014  20:34:00       -8.873       -8.855      -11.675       31.802       30.209       14.278     1011.379      912.564      203.872        0.121        0.106       12.536       11.468        0.837      342.861       18.567      862.485
05/22/2014  20:35:00        3.704       34.749        2.139       29.689       33.304       26.582      881.442     1109.181      706.588        0.196        0.135       34.946        4.387        0.016      342.753       18.383      862.505
05/22/2014  20:36:00       20.889       21.442        9.099       30.084       29.724       27.751      905.020      883.516      770.121        0.177        0.128       29.935       16.088        0.289      342.943       18.707      862.521
05/22/2014  20:37:00       -4.332        6.758        6.837       13.521       14.876       11.628      182.820      221.282      135.219        0.033        0.027        8.028        6.738        0.705      342.901       18.635      862.538
05/22/2014  20:38:00       22.070       30.599        2.494       25.366       19.135       20.214      643.441      366.148      408.605        0.142        0.071       37.728        9.223        0.060      342.910       18.649      862.562
05/22/2014  20:39:00       69.610       46.745       10.019       28.304       23.737       24.330      801.112      563.456      591.932        0.454        0.098       83.849       14.019        0.028      342.920       18.668      862.582
05/22/2014  20:40:00       56.379       31.121       -0.423       23.558       20.893       22.022      554.972      436.517      484.947        0.281        0.074       64.398       10.351        0.026      342.955       18.728      862.612
05/22/2014  20:41:00       85.377       51.800       27.309       42.370       35.665       24.739     1795.224     1272.003      612.022        0.720        0.184       99.863       22.120        0.049      343.135       19.033      862.641
05/22/2014  20:42:00      126.676       68.196       24.122       23.704       22.508       24.761      561.881      506.618      613.108        1.148        0.084      143.866       14.338        0.010      343.112       18.995      862.660
05/22/2014  20:43:00      104.727       52.148        7.519       21.534       16.684       27.305      463.698      278.347      745.587        0.762        0.074      116.992       14.119        0.015      342.993       18.792      862.678
05/22/2014  20:44:00       38.640       32.023       -6.018       25.653       16.793       15.836      658.062      281.988      250.772        0.187        0.060       50.185       10.401        0.043      342.995       18.795      862.697
05/22/2014  20:45:00       26.878       39.797        3.222       19.354       25.005       13.773      374.558      625.246      189.687        0.175        0.059       48.024       12.287        0.065      343.063       18.912      862.709
05/22/2014  20:46:00       36.212       33.937        2.755       26.901       21.665       18.737      723.683      469.377      351.075        0.201        0.077       49.629       13.137        0.070      342.890       18.617      862.729
05/22/2014  20:47:00       38.811       53.230        6.518       26.385       20.142       18.899      696.162      405.690      357.169        0.292        0.073       65.877       11.510        0.031      343.097       18.969      862.750
05/22/2014  20:48:00       44.057       50.999        5.987       25.037       24.010       19.480      626.869      576.492      379.458        0.308        0.079       67.394       14.204        0.044      343.158       19.073      862.760
05/22/2014  20:49:00       48.139       56.330        2.281       32.596       25.676       23.345     1062.512      659.268      544.969        0.388        0.113       74.097       16.054        0.047      343.131       19.028      862.779
05/22/2014  20:50:00       66.219       47.576       14.022       28.758       20.744       19.439      827.045      430.325      377.871        0.424        0.082       81.538        8.976        0.012      343.194       19.135      862.786
05/22/2014  20:51:00       36.777       41.520        5.123       21.468       20.649       19.470      460.891      426.394      379.074        0.218        0.063       55.465       10.172        0.034      343.093       18.963      862.795
05/22/2014  20:52:00        4.980       60.220       -7.470       27.063       14.241        9.711      732.403      202.803       94.305        0.237        0.051       60.426        8.199        0.018      343.224       19.184      862.780
05/22/2014  20:53:00      -17.459       10.554        0.369       19.697       32.068       13.502      387.962     1028.340      182.310        0.101        0.080       20.401       12.807        0.394      343.059       18.906      862.779
05/22/2014  20:54:00        4.431        8.002        7.282       15.616       16.126       16.832      243.872      260.063      283.313        0.046        0.039        9.147       10.208        1.245      342.531       18.006      862.768
05/22/2014  20:55:00      -13.565       -5.410       -4.210       23.041        9.638        9.303      530.870       92.885       86.551        0.047        0.036       14.604       11.656        0.637      342.786       18.440      862.764
05/22/2014  20:56:00      -19.279       -8.296        3.884       13.007       10.566        7.950      169.181      111.644       63.201        0.040        0.017       20.988        6.839        0.106      343.018       18.834      862.760
05/22/2014  20:57:00      -29.560        6.774       -1.580       13.271       12.173       10.269      176.108      148.179      105.447        0.068        0.021       30.327        8.701        0.082      342.785       18.437      862.769
05/22/2014  20:58:00      -25.941       -0.602       -2.325       11.370       10.708       10.250      129.284      114.656      105.061        0.051        0.017       25.948        4.742        0.033      342.952       18.723      862.776
05/22/2014  20:59:00      -18.335        3.165        0.750       10.439        7.981        7.373      108.979       63.703       54.355        0.029        0.011       18.606        4.278        0.053      342.979       18.768      862.787
05/22/2014  21:00:00        4.055        3.255        5.143       13.698        7.664        7.059      187.637       58.734       49.829        0.017        0.015        5.200        5.294        1.037      342.625       18.165      862.819
05/22/2014  21:01:00       -1.019       15.050       17.831       10.845       13.326       11.437      117.614      177.572      130.810        0.049        0.021       15.085       10.088        0.447      342.274       17.568      862.834
05/22/2014  21:02:00       12.056      -16.606       -0.504       12.561       20.274       16.985      157.767      411.024      288.476        0.064        0.043       20.521       13.655        0.443      342.644       18.199      862.870
05/22/2014  21:03:00       12.418       -4.360        2.231       11.993       21.071       17.762      143.832      444.003      315.488        0.054        0.045       13.161       15.816        1.444      342.546       18.032      862.893
05/22/2014  21:04:00       23.194        5.203        4.335       16.481       13.946       19.861      271.623      194.488      394.444        0.072        0.043       23.771       11.168        0.221      342.731       18.345      862.937
05/22/2014  21:05:00       54.146       32.126        9.113       20.123       18.584       22.632      404.950      345.350      512.209        0.265        0.063       62.959        9.966        0.025      342.547       18.034      862.993
05/22/2014  21:06:00       66.708       43.999       18.937       23.400       21.235       24.685      547.559      450.919      609.353        0.418        0.080       79.911        9.922        0.015      342.765       18.405      863.052
05/22/2014  21:07:00      106.632       67.069       20.662       19.994       15.196       17.063      399.768      230.911      291.132        0.861        0.046      125.971       11.966        0.009      342.796       18.459      863.137
05/22/2014  21:08:00      131.422       56.242        1.345       37.661       34.495       27.269     1418.320     1189.922      743.593        1.189        0.168      142.951       17.188        0.014      342.675       18.250      863.237
05/22/2014  21:09:00      133.199       53.497        9.897       69.472       48.999       39.028     4826.339     2400.867     1523.188        1.472        0.438      143.541       33.732        0.055      342.505       17.960      863.365
05/22/2014  21:10:00      218.862      100.002       29.180       59.644       51.610       39.236     3557.404     2663.557     1539.451        3.326        0.388      240.627       33.458        0.019      342.386       17.755      863.505
05/22/2014  21:11:00      190.236      157.491      100.258       83.992       61.196       74.523     7054.727     3744.974     5553.647        4.370        0.818      246.968       63.592        0.066      342.085       17.244      863.704
05/22/2014  21:12:00      197.864      149.652      187.240      230.686      160.719      112.617    53216.116    25830.484    12682.554        9.415        4.586      248.084       90.373        0.133      342.102       17.274      863.816
05/22/2014  21:13:00      434.810      222.750      144.376      335.544      236.977      175.763   112589.591    56157.934    30892.569       22.954        9.982      488.546      155.469        0.101      342.234       17.499      863.822
05/22/2014  21:14:00      390.837      215.610       87.425      275.097      215.072      116.682    75678.106    46255.900    13614.646       17.119        6.777      446.365       46.048        0.011      342.155       17.363      864.023
05/22/2014  21:15:00      457.191      240.220       38.850      223.554      157.573      125.683    49976.513    24829.316    15796.210       17.940        4.530      516.458       83.587        0.026      342.084       17.241      864.039
05/22/2014  21:16:00      472.026      337.837       47.054      239.985      162.172      120.565    57592.789    26299.862    14535.912       21.877        4.921      580.467       61.689        0.011      342.019       17.132      864.124
05/22/2014  21:17:00      422.395      296.008       47.753      246.136      160.962      126.433    60582.838    25908.648    15985.369       18.538        5.124      515.789       85.264        0.027      341.976       17.059      864.136
05/22/2014  21:18:00      383.268      227.177      145.768      249.086      196.255      141.752    62043.905    38516.216    20093.686       17.018        6.033      445.537       93.425        0.044      341.931       16.984      864.175
05/22/2014  21:19:00      324.560      193.021       66.018      171.371      187.663      126.454    29367.979    35217.282    15990.739       11.375        4.029      377.620       57.510        0.023      341.881       16.899      864.204
05/22/2014  21:20:00      622.081      274.747      170.645      350.011      252.122      198.496   122507.427    63565.568    39400.742       35.849       11.274      680.051      152.139        0.050      341.675       16.549      864.084
05/22/2014  21:21:00      358.766      203.946       77.636      228.738      171.759      123.988    52321.119    29501.179    15372.999       13.675        4.860      412.682      100.846        0.060      341.649       16.505      864.180
05/22/2014  21:22:00      551.512      294.328      127.075      282.645      236.049      162.922    79888.186    55719.348    26543.531       28.451        8.108      625.136      101.952        0.027      341.564       16.359      864.191
05/22/2014  21:23:00      375.240      228.498       43.970      294.306      197.988      153.998    86615.775    39199.117    23715.365       17.221        7.477      439.337      106.568        0.059      341.547       16.332      864.226
05/22/2014  21:24:00      386.144      244.494       58.253      249.087      221.441      128.577    62044.162    49036.004    16532.075       16.992        6.381      457.039       58.698        0.016      341.521       16.286      864.242
05/22/2014  21:25:00      515.442      271.328      171.159      380.747      292.490      165.185   144968.457    85550.584    27286.064       31.315       12.890      582.494      139.255        0.057      341.435       16.142      864.196
05/22/2014  21:26:00      418.618      194.954      102.298      327.146      201.735      156.321   107024.569    40697.020    24436.226       19.790        8.608      461.788       94.526        0.042      341.408       16.097      864.183
05/22/2014  21:27:00      454.315      250.538      152.078      261.382      235.752      185.381    68320.520    55578.890    34365.943       22.525        7.913      518.818      119.249        0.053      341.319       15.947      864.199
05/22/2014  21:28:00      466.107      267.098      134.000      314.702      228.834      168.117    99037.132    52364.821    28263.455       24.307        8.983      537.213      117.545        0.048      341.308       15.928      864.164
05/22/2014  21:29:00      429.199      254.012      145.290      244.194      197.170      152.483    59630.536    38876.190    23250.959       19.578        6.088      498.732      104.357        0.044      341.304       15.919      864.251
05/22/2014  21:30:00      444.508      245.094       51.744      245.235      179.867      139.904    60140.041    32352.191    19573.121       18.618        5.603      507.601       77.847        0.024      341.309       15.930      864.243
05/22/2014  21:31:00      239.550      166.535       60.297      197.836      169.073      133.608    39139.085    28585.638    17851.185        8.715        4.279      291.750       66.701        0.052      341.283       15.886      864.330
05/22/2014  21:32:00      335.204      192.657      156.491      308.315      204.881      186.948    95058.090    41976.072    34949.521       17.294        8.599      386.624      158.238        0.168      341.257       15.842      864.301
05/22/2014  21:33:00      251.335      136.831       71.397      177.753      125.776      111.380    31596.014    15819.571    12405.503        7.339        2.991      286.168       92.896        0.105      341.244       15.820      864.356
05/22/2014  21:34:00      227.017      164.238       99.871      183.112      121.024      101.807    33529.933    14646.895    10364.655        7.350        2.927      280.198       92.105        0.108      341.258       15.841      864.419
05/22/2014  21:35:00      455.312      242.169      107.605      236.428      185.199      131.698    55898.312    34298.826    17344.429       19.252        5.377      515.708       78.659        0.023      341.235       15.804      864.396
05/22/2014  21:36:00      416.236      238.092      120.421      280.049      215.619      130.321    78427.408    46491.548    16983.494       19.314        7.095      479.521       98.982        0.043      341.227       15.790      864.403
05/22/2014  21:37:00      260.876      136.758       69.536      227.596      162.518      106.288    51799.763    26411.959    11297.050        9.053        4.475      294.549       82.989        0.079      341.201       15.748      864.410
05/22/2014  21:38:00      378.703      223.209       90.269      201.965      146.203      109.772    40789.860    21375.270    12049.788       13.779        3.711      439.589       92.937        0.045      341.234       15.802      864.464
05/22/2014  21:39:00      381.773      231.287      119.628      254.018      209.700      122.425    64525.068    43974.152    14987.976       16.850        6.174      446.367       81.433        0.033      341.237       15.806      864.404
05/22/2014  21:40:00      200.323      189.947      165.873      179.654      147.458      133.378    32275.700    21744.002    17789.690        8.775        3.590      276.060      116.029        0.177      341.236       15.805      864.435
05/22/2014  21:41:00      274.649      111.597       45.139      188.304      142.726      118.524    35458.317    20370.718    14047.966        7.989        3.494      296.456       81.958        0.076      341.243       15.817      864.414
05/22/2014  21:42:00      396.815      224.542       62.851      209.640      163.171      130.070    43948.967    26624.902    16918.225       14.964        4.375      455.940       47.164        0.011      341.226       15.787      864.424
05/22/2014  21:43:00      417.394      216.421       80.883      213.918      134.551      119.167    45760.991    18104.040    14200.892       15.282        3.903      470.166       94.717        0.041      341.205       15.753      864.455
05/22/2014  21:44:00      298.881      152.703       45.141      228.262      184.559      141.838    52103.768    34062.042    20117.891       11.046        5.314      335.631      111.949        0.111      341.211       15.764      864.424
05/22/2014  21:45:00      253.486      146.870      121.309      175.810      182.051      107.328    30909.144    33142.744    11519.225        8.804        3.779      292.961       84.799        0.084      341.202       15.746      864.463
05/22/2014  21:46:00      398.392      175.380      109.931      231.767      202.362      140.178    53716.064    40950.420    19649.959       15.792        5.716      435.287      124.996        0.082      341.186       15.721      864.442
05/22/2014  21:47:00      364.377      133.975      118.555      247.792      195.950      151.043    61400.719    38396.590    22813.982       14.367        6.131      388.227      118.972        0.094      341.199       15.742      864.438
05/22/2014  21:48:00      264.983      186.464       67.369      165.600      123.768       98.070    27423.404    15318.629     9617.796        8.093        2.618      324.014       50.199        0.024      341.215       15.769      864.468
05/22/2014  21:49:00      231.563      124.851       80.708      171.249      114.204       95.950    29326.223    13042.569     9206.393        6.364        2.579      263.077       73.328        0.078      341.200       15.745      864.459
05/22/2014  21:50:00      131.394       98.598      117.174      103.845      163.771       85.997    10783.844    26820.821     7395.466        4.285        2.250      164.274       95.683        0.339      341.120       15.609      864.473
05/22/2014  21:51:00       71.563       36.539       60.916       93.070      104.692       75.209     8662.025    10960.390     5656.420        1.772        1.264       80.352       59.418        0.547      341.182       15.715      864.468
05/22/2014  21:52:00      223.368       99.380      119.261      172.470      154.530      109.452    29746.044    23879.534    11979.673        6.979        3.280      244.479       80.915        0.110      341.170       15.694      864.432
05/22/2014  21:53:00      167.888       66.774       91.209      156.151      152.318      110.199    24383.046    23200.677    12143.787        5.033        2.986      180.680       93.233        0.266      341.157       15.672      864.437
05/22/2014  21:54:00      168.126      110.289       66.317      106.205       95.897       89.089    11279.578     9196.258     7936.838        3.661        1.421      201.072       46.530        0.054      341.102       15.580      864.397
05/22/2014  21:55:00      176.267       37.031       86.156      140.616      191.525      114.780    19772.986    36681.973    13174.555        5.473        3.481      180.115      119.906        0.443      341.023       15.446      864.382
05/22/2014  21:56:00      324.233      255.841      178.012      209.919      165.693      145.956    44066.181    27454.073    21303.134       14.753        4.641      413.015      107.805        0.068      340.990       15.387      864.299
05/22/2014  21:57:00      148.121      102.179      118.869      131.462      147.191      104.318    17282.200    21665.187    10882.145        4.816        2.491      179.945       99.312        0.305      340.949       15.321      864.223
05/22/2014  21:58:00      100.537     -100.331       50.760      106.819      170.140       91.168    11410.355    28947.721     8311.599        3.570        2.433      142.036      118.625        0.698      341.008       15.420      864.121
05/22/2014  21:59:00      181.876     -112.332       49.684      154.608      158.304       99.369    23903.498    25060.057     9874.126        5.349        2.942      213.770       87.830        0.169      341.063       15.512      864.031
05/22/2014  22:00:00      101.541     -112.399       63.883      123.637      124.747       96.607    15286.079    15561.860     9332.862        3.359        2.009      151.473       83.497        0.304      341.089       15.558      863.935
05/22/2014  22:01:00       62.602     -128.227       30.464       94.098      139.683       89.841     8854.445    19511.408     8071.332        2.886        1.822      142.693       92.948        0.424      341.152       15.665      863.891
05/22/2014  22:02:00       91.747      -96.452       22.712      124.532      110.461       76.187    15508.197    12201.625     5804.401        2.587        1.676      133.119       78.732        0.350      341.238       15.810      863.834
05/22/2014  22:03:00       13.612      -33.971       44.002       57.854      110.024       80.020     3347.040    12105.221     6403.176        1.256        1.093       36.597       77.251        4.456      341.191       15.732      863.825
05/22/2014  22:04:00      161.000     -213.915      -17.259      145.129      121.616       57.132    21062.301    14790.449     3264.118        5.554        1.956      267.733       68.798        0.066      341.147       15.656      863.851
05/22/2014  22:05:00      -56.591       -8.455       -5.245       87.772       71.161       49.712     7703.853     5063.889     2471.281        0.927        0.762       57.219       42.481        0.551      341.205       15.757      863.859
05/22/2014  22:06:00       18.137      -84.714        6.096       92.252       87.440       44.356     8510.376     7645.830     1967.419        1.283        0.906       86.634       48.446        0.313      341.166       15.689      863.912
05/22/2014  22:07:00      -68.716      -25.114        1.941       97.638       51.379       36.264     9533.154     2639.800     1315.047        0.942        0.674       73.162       40.653        0.309      341.258       15.845      863.994
05/22/2014  22:08:00      -74.202      -47.093        6.905       63.143       74.059       39.939     3986.980     5484.779     1595.099        0.942        0.553       87.885       43.261        0.242      341.183       15.719      864.047
05/22/2014  22:09:00      -37.166      -19.962       14.582       46.222       42.430       28.677     2136.484     1800.269      822.348        0.337        0.238       42.188       24.828        0.346      341.197       15.744      864.132
05/22/2014  22:10:00      -70.267      -33.947       18.838       64.345       42.381       31.856     4140.297     1796.125     1014.781        0.670        0.348       78.037       33.497        0.184      341.150       15.662      864.213
05/22/2014  22:11:00       -8.389      -45.121      -12.973       37.385       43.182       22.839     1397.668     1864.664      521.638        0.303        0.189       45.894        9.402        0.042      341.104       15.586      864.307
05/22/2014  22:12:00       38.747       70.794       -1.639       38.662       28.142       30.256     1494.742      791.998      915.422        0.486        0.160       80.704       16.153        0.040      340.970       15.357      864.371
05/22/2014  22:13:00       16.652       12.194       15.915       57.989       42.521       24.563     3362.695     1808.033      603.318        0.323        0.289       20.639       23.395        1.285      340.924       15.281      864.425
05/22/2014  22:14:00       -3.549      -15.353       32.807       35.096       31.303       22.392     1231.721      979.902      501.395        0.202        0.136       15.758       17.183        1.189      340.817       15.099      864.457
05/22/2014  22:15:00      -20.265      -63.607      -10.100       26.963       27.306       19.881      727.013      745.643      395.247        0.321        0.093       66.758        8.262        0.015      340.826       15.115      864.466
05/22/2014  22:16:00      -78.978      -60.306        0.111       87.292       48.783       33.452     7619.873     2379.793     1119.039        1.049        0.556       99.370       23.703        0.057      341.114       15.601      864.439
05/22/2014  22:17:00     -181.317     -135.361       12.136      118.787       76.711       46.024    14110.380     5884.572     2118.164        3.672        1.106      226.270       56.759        0.063      340.966       15.349      864.393
05/22/2014  22:18:00     -295.595     -203.558       -9.751       97.990       85.069       51.722     9602.027     7236.796     2675.176        7.421        0.976      358.905       50.379        0.020      340.980       15.373      864.351
05/22/2014  22:19:00      -91.293     -200.427       10.363       74.644       98.763       35.954     5571.771     9754.125     1292.665        3.261        0.831      220.240       35.421        0.026      341.000       15.407      864.326
05/22/2014  22:20:00     -273.881     -181.748       -7.227      110.213       90.098       57.299    12146.807     8117.615     3283.136        6.582        1.177      328.699       51.771        0.025      340.953       15.326      864.300
05/22/2014  22:21:00     -230.766      -95.585        1.806      136.010       93.238       55.307    18498.611     8693.384     3058.829        4.632        1.513      249.779       70.601        0.080      340.907       15.249      864.289
05/22/2014  22:22:00     -265.820      -90.050      -14.326       92.165       64.043       38.118     8494.408     4101.548     1452.966        4.651        0.702      280.659       37.281        0.018      340.896       15.231      864.276
05/22/2014  22:23:00     -182.691     -114.241      -12.162       64.181       65.464       36.790     4119.187     4285.578     1353.505        2.816        0.488      215.469       36.212        0.028      340.881       15.204      864.261
05/22/2014  22:24:00     -167.109      -59.143      -11.215       86.314       54.180       36.314     7450.127     2935.496     1318.697        2.162        0.585      177.266       44.448        0.063      340.898       15.233      864.243
05/22/2014  22:25:00     -194.572      -68.353       -7.596       49.332       52.579       28.513     2433.637     2764.527      812.979        2.430        0.301      206.229       24.890        0.015      340.909       15.253      864.217
05/22/2014  22:26:00     -185.971      -53.471      -12.367       44.283       47.292       27.532     1960.959     2236.487      758.022        2.128        0.248      193.506       24.768        0.016      340.968       15.354      864.176
05/22/2014  22:27:00     -133.343      -57.987        1.702       47.220       48.385       30.538     2229.730     2341.147      932.542        1.332        0.275      145.406       27.655        0.036      340.908       15.252      864.149
05/22/2014  22:28:00     -176.832      -43.068       -7.845       64.720       72.181       35.262     4188.655     5210.044     1243.420        2.191        0.532      182.001       37.070        0.041      340.963       15.344      864.129
05/22/2014  22:29:00     -102.925      -32.686       -0.839       75.955       55.542       42.338     5769.132     3084.861     1792.521        1.115        0.532      107.991       40.589        0.141      340.887       15.217      864.128
05/22/2014  22:30:00     -136.678      -30.363        7.868       96.195       67.415       40.815     9253.482     4544.716     1665.841        1.756        0.773      140.010       51.044        0.133      340.864       15.178      864.125
05/22/2014  22:31:00     -168.271      -37.219       -4.939       74.197       62.797       31.017     5505.256     3943.414      962.042        2.007        0.521      172.338       31.497        0.033      340.798       15.065      864.128
05/22/2014  22:32:00     -232.006      -73.453       -7.270       68.341       66.405       35.670     4670.462     4409.682     1272.377        3.481        0.518      243.356       34.841        0.020      340.783       15.038      864.132
05/22/2014  22:33:00     -178.403      -76.911       -9.226       52.756       42.747       34.418     2783.191     1827.317     1184.632        2.181        0.290      194.276       29.763        0.023      340.808       15.083      864.142
05/22/2014  22:34:00     -130.330      -26.683        4.620       63.396       57.049       40.354     4019.043     3254.554     1628.462        1.331        0.445      133.034       39.836        0.090      340.780       15.036      864.139
05/22/2014  22:35:00     -161.002      -15.293       10.174       80.459       64.718       50.528     6473.630     4188.440     2553.065        1.973        0.661      161.727       48.997        0.092      340.792       15.056      864.156
05/22/2014  22:36:00     -213.732      -37.659       -5.843       78.556       57.127       35.416     6170.999     3263.545     1254.303        2.891        0.534      217.024       39.253        0.033      340.757       14.994      864.166
05/22/2014  22:37:00     -161.521      -53.167       -8.372       81.885       38.293       28.002     6705.085     1466.333      784.101        1.897        0.448      170.047       34.103        0.040      340.740       14.967      864.182
05/22/2014  22:38:00     -129.896        2.250       -0.078       71.055       66.357       38.142     5048.851     4403.299     1454.812        1.389        0.545      129.915       35.433        0.074      340.843       15.144      864.191
05/22/2014  22:39:00     -178.212      -22.562      -10.136       89.310       62.320       36.974     7976.314     3883.823     1367.042        2.280        0.661      179.634       46.927        0.068      340.784       15.041      864.191
05/22/2014  22:40:00     -136.205      -10.155        2.693       52.998       59.977       34.823     2808.798     3597.296     1212.661        1.314        0.381      136.583       35.707        0.068      340.857       15.167      864.189
05/22/2014  22:41:00     -119.875      -74.000       -2.038       48.238       52.994       25.353     2326.873     2808.379      642.758        1.281        0.289      140.876       14.179        0.010      340.794       15.058      864.202
05/22/2014  22:42:00     -140.455        6.816       -3.368       66.602       55.226       32.632     4435.875     3049.883     1064.856        1.417        0.428      140.621       30.736        0.048      340.907       15.251      864.216
05/22/2014  22:43:00     -176.652       -9.714      -13.940       54.906       53.189       28.699     3014.639     2829.063      823.655        1.908        0.333      176.919       27.923        0.025      340.955       15.330      864.210
05/22/2014  22:44:00     -189.053      -52.474       -5.605       58.764       43.165       26.077     3453.150     1863.232      680.023        2.226        0.300      196.201       22.723        0.013      340.891       15.222      864.211
05/22/2014  22:45:00     -178.287      -13.158      -18.729       51.734       43.672       36.548     2676.424     1907.255     1335.724        1.911        0.296      178.772       33.639        0.035      340.948       15.318      864.203
05/22/2014  22:46:00     -145.951      -63.097       -6.257       41.571       40.206       20.943     1728.140     1616.485      438.603        1.455        0.189      159.006        8.852        0.003      340.895       15.231      864.198
05/22/2014  22:47:00     -137.957      -24.680      -11.933       41.820       41.999       22.857     1748.941     1763.917      522.438        1.191        0.202      140.147       20.193        0.021      340.976       15.369      864.197
05/22/2014  22:48:00     -144.865      -39.920       -4.818       56.317       37.486       29.312     3171.596     1405.172      859.203        1.402        0.272      150.265       31.695        0.044      340.781       15.037      864.206
05/22/2014  22:49:00     -125.193      -13.583        3.714       73.661       59.007       35.322     5426.004     3481.842     1247.658        1.301        0.508      125.928       36.148        0.082      340.795       15.062      864.214
05/22/2014  22:50:00     -173.386      -42.702       -4.856       70.208       44.861       29.656     4929.156     2012.495      879.480        1.986        0.391      178.567       33.470        0.035      340.837       15.131      864.224
05/22/2014  22:51:00     -160.863      -25.563       -9.118       51.664       49.440       29.442     2669.161     2444.283      866.856        1.630        0.299      162.881       27.678        0.029      340.847       15.149      864.223
05/22/2014  22:52:00     -133.472      -35.214       -2.381       65.458       50.241       26.012     4284.695     2524.110      676.605        1.327        0.374      138.039       27.304        0.039      340.826       15.114      864.222
05/22/2014  22:53:00     -154.758      -25.434       -2.718       58.805       49.439       26.881     3458.037     2444.185      722.595        1.561        0.331      156.834       24.585        0.025      340.810       15.087      864.233
05/22/2014  22:54:00     -222.629      -12.949      -11.426       65.795       50.642       30.984     4328.993     2564.644      960.000        2.886        0.393      223.005       27.812        0.016      340.918       15.268      864.221
05/22/2014  22:55:00     -137.048      -28.871       -8.181       53.373       37.001       32.165     2848.662     1369.094     1034.574        1.247        0.263      140.056       31.050        0.049      340.871       15.191      864.218
05/22/2014  22:56:00     -123.646      -45.710       -2.555       35.585       42.553       21.752     1266.263     1810.718      473.162        1.047        0.178      131.824       19.527        0.022      340.836       15.132      864.228
05/22/2014  22:57:00      -49.987      -26.347       16.723       57.676       43.405       30.216     3326.577     1884.033      913.005        0.480        0.306       56.506       34.409        0.371      340.917       15.269      864.226
05/22/2014  22:58:00       33.120      -58.560      -10.476       54.350       50.810       32.309     2953.875     2581.635     1043.878        0.561        0.329       67.277       26.155        0.151      341.061       15.513      864.199
05/22/2014  22:59:00      -14.540      -11.575       -2.415       28.209       25.947       18.612      795.733      673.243      346.397        0.108        0.091       18.584       17.438        0.880      341.010       15.424      864.192
05/22/2014  23:00:00      -48.712      -24.364        6.030       37.779       29.613       24.541     1427.274      876.934      602.240        0.295        0.145       54.465       25.524        0.220      341.056       15.505      864.182
05/22/2014  23:01:00      -12.043      -48.431        2.573       52.514       30.872       17.443     2757.759      953.071      304.265        0.326        0.201       49.906       20.657        0.171      341.113       15.600      864.175
05/22/2014  23:02:00     -140.372      -73.874        3.940       61.714       35.947       29.699     3808.627     1292.206      882.057        1.558        0.299      158.624       31.011        0.038      341.107       15.589      864.176
05/22/2014  23:03:00      -47.530     -131.973        0.720      110.768       57.801       38.288    12269.504     3340.969     1465.988        1.837        0.854      140.271       44.266        0.100      341.185       15.722      864.180
05/22/2014  23:04:00      -52.970        1.235        8.958       28.160       35.943       28.075      792.982     1291.886      788.207        0.288        0.144       52.984       25.908        0.239      341.117       15.606      864.192
05/22/2014  23:05:00      -26.833        3.955        6.988       30.531       18.145       22.125      932.155      329.245      489.500        0.127        0.088       27.123       22.095        0.664      341.084       15.552      864.199
05/22/2014  23:06:00      -58.681      -25.949        5.650       27.472       29.566       21.239      754.708      874.169      451.111        0.311        0.104       64.163       16.726        0.068      341.162       15.684      864.197
05/22/2014  23:07:00      -77.872      -19.825       -6.129       38.376       30.246       16.588     1472.706      914.833      275.148        0.458        0.133       80.356       13.267        0.027      341.140       15.647      864.179
05/22/2014  23:08:00      -95.359      -27.992       -3.384       39.012       25.552       14.562     1521.963      652.886      212.054        0.614        0.119       99.383       13.700        0.019      341.064       15.518      864.155
05/22/2014  23:09:00     -108.254      -47.247       -5.682       36.626       28.356       17.086     1341.474      804.047      291.939        0.821        0.122      118.115       14.011        0.014      340.992       15.397      864.138
05/22/2014  23:10:00     -115.682      -47.781        0.343       52.247       31.022       22.270     2729.781      962.360      495.968        0.993        0.209      125.161       26.438        0.045      340.948       15.320      864.114
05/22/2014  23:11:00     -106.429      -56.621       -0.496       50.884       34.040       21.312     2589.179     1158.706      454.187        0.937        0.210      120.553       20.451        0.029      340.963       15.347      864.107
05/22/2014  23:12:00     -120.164      -13.723       -6.407       42.293       35.822       24.338     1788.739     1283.246      592.362        0.917        0.183      120.945       21.972        0.033      340.952       15.328      864.100
05/22/2014  23:13:00      -84.464      -12.510       -5.990       28.403       32.598       23.091      806.721     1062.613      533.193        0.486        0.120       85.385       18.370        0.046      340.997       15.405      864.092
05/22/2014  23:14:00      -72.829      -27.167       -8.538       38.010       25.959       16.425     1444.772      673.882      269.781        0.425        0.119       77.731       12.723        0.027      340.980       15.375      864.094
05/22/2014  23:15:00      -68.066      -16.333       -0.623       32.467       23.925       20.604     1054.089      572.429      424.509        0.348        0.103       69.998       17.784        0.065      340.947       15.318      864.099
05/22/2014  23:16:00      -78.329      -29.580      -13.014       20.310       14.081        8.425      412.506      198.282       70.983        0.393        0.034       83.728        5.891        0.005      340.972       15.362      864.102
05/22/2014  23:17:00      -75.461      -28.969       -7.006       22.819       26.380       10.081      520.719      695.922      101.634        0.395        0.066       80.830        9.735        0.015      340.924       15.281      864.097
05/22/2014  23:18:00      -71.095       -8.043       -8.323       19.492       13.880       10.460      379.948      192.652      109.420        0.294        0.034       71.549        7.127        0.010      340.944       15.315      864.077
05/22/2014  23:19:00      -83.337      -22.781       -7.025       22.945       17.699       11.042      526.470      313.262      121.926        0.424        0.048       86.394        6.918        0.006      340.954       15.332      864.053
05/22/2014  23:20:00     -108.388      -30.052       -8.059       22.903       15.786       12.502      524.536      249.185      156.307        0.682        0.047      112.477        6.646        0.003      340.920       15.274      864.025
05/22/2014  23:21:00     -112.408      -26.984       -5.971       12.894       12.498       11.961      166.261      156.195      143.056        0.693        0.023      115.601        7.036        0.004      340.865       15.180      864.002
05/22/2014  23:22:00      -98.585      -19.729       -8.013       25.813       16.813       12.457      666.336      282.691      155.179        0.564        0.055      100.539        9.118        0.008      340.876       15.199      863.988
05/22/2014  23:23:00      -92.712      -21.286       -9.692       19.288       16.449       11.053      372.029      270.579      122.178        0.495        0.038       95.124       10.700        0.013      340.850       15.153      863.978
05/22/2014  23:24:00     -106.307      -28.539      -11.761       14.418       16.255       10.003      207.888      264.225      100.055        0.641        0.029      110.072        8.366        0.006      340.901       15.241      863.968
05/22/2014  23:25:00     -108.461      -21.059      -13.591       21.472       23.101       16.097      461.064      533.638      259.127        0.682        0.063      110.486       12.123        0.012      340.820       15.105      863.955
05/22/2014  23:26:00     -130.010      -36.898      -10.687       18.886       20.630       14.166      356.692      425.606      200.674        0.968        0.049      135.145        8.780        0.004      340.737       14.966      863.940
05/22/2014  23:27:00      -98.234      -34.039       -7.508       29.683       22.577       17.424      881.060      509.739      303.602        0.628        0.085      103.964       16.323        0.025      340.679       14.868      863.927
05/22/2014  23:28:00     -126.023      -22.782       -3.277       48.887       18.557       15.186     2389.942      344.378      230.608        0.969        0.148      128.066       18.591        0.021      340.636       14.795      863.915
05/22/2014  23:29:00     -131.127      -29.740       -7.507       30.686       31.960       16.465      941.624     1021.424      271.095        1.018        0.112      134.457       11.439        0.007      340.625       14.775      863.907
05/22/2014  23:30:00     -110.481      -13.944       -2.328       36.490       43.006       20.873     1331.547     1849.481      435.699        0.801        0.181      111.358       18.306        0.027      340.663       14.839      863.901
05/22/2014  23:31:00      -98.278       -2.568        4.040       53.542       33.045       25.786     2866.789     1091.980      664.919        0.715        0.231       98.312       30.911        0.099      340.533       14.619      863.905
05/22/2014  23:32:00     -105.851       -0.291        2.320       39.815       35.680       28.266     1585.207     1273.073      798.960        0.743        0.183      105.852       26.549        0.063      340.667       14.845      863.900
05/22/2014  23:33:00     -103.111        7.459       -4.096       36.031       28.765       21.278     1298.214      827.429      452.739        0.664        0.129      103.380       18.632        0.032      340.708       14.917      863.897
05/22/2014  23:34:00      -73.596       13.433       -2.406       46.949       24.955       22.741     2204.250      622.737      517.143        0.447        0.167       74.812       27.070        0.131      340.813       15.093      863.890
05/22/2014  23:35:00      -40.501      -21.420        5.311       21.892       32.065       17.917      479.257     1028.177      321.005        0.198        0.091       45.817       14.543        0.101      340.779       15.036      863.875
05/22/2014  23:36:00      -64.837      -34.111       -2.580       23.147       22.717       12.037      535.798      516.042      144.890        0.329        0.060       73.263        9.502        0.017      340.723       14.941      863.861
05/22/2014  23:37:00      -54.866      -46.554       -3.975       20.099       21.516       14.717      403.966      462.948      216.596        0.314        0.054       71.955       12.261        0.029      340.709       14.918      863.844
05/22/2014  23:38:00      -19.137      -28.924        1.197       19.830        9.520       10.914      393.221       90.625      119.108        0.090        0.030       34.682       12.110        0.122      340.717       14.930      863.822
05/22/2014  23:39:00      -28.020      -10.570       -0.495        9.555        6.497        8.792       91.300       42.216       77.308        0.055        0.011       29.948        6.716        0.050      340.756       14.993      863.801
05/22/2014  23:40:00        7.308      -28.171        0.983       13.598       27.510       21.729      184.902      756.820      472.164        0.113        0.071       29.103        8.944        0.094      340.582       14.702      863.783
05/22/2014  23:41:00       27.568       -4.990       15.485       15.244       27.243       16.395      232.379      742.157      268.805        0.113        0.062       28.016        7.397        0.070      340.436       14.455      863.780
05/22/2014  23:42:00       31.444      -12.158        2.488       15.712       20.461       18.193      246.879      418.672      330.996        0.107        0.050       33.713       11.405        0.114      340.351       14.311      863.786
05/22/2014  23:43:00       24.734       18.438       -5.999       15.995       17.675       11.873      255.836      312.423      140.972        0.085        0.035       30.851        8.102        0.069      340.520       14.597      863.789
05/22/2014  23:44:00       40.876       37.246       17.062       14.280       15.143       20.450      203.914      229.301      418.184        0.210        0.043       55.300       11.305        0.042      340.637       14.795      863.794
05/22/2014  23:45:00       30.185        6.442        2.148       12.227       21.868       15.001      149.512      478.216      225.035        0.090        0.043       30.865        8.192        0.070      340.743       14.975      863.794
05/22/2014  23:46:00      -20.178      -22.985       -0.121       41.940       24.021       24.637     1758.965      577.028      606.994        0.194        0.147       30.586       16.899        0.305      340.513       14.585      863.793
05/22/2014  23:47:00      -61.054     -115.758        4.258       34.653       32.696       24.230     1200.833     1069.060      587.099        1.000        0.143      130.872       14.042        0.012      340.592       14.720      863.796
05/22/2014  23:48:00      -87.340      -84.521        3.413       45.448       29.612       26.064     2065.537      876.864      679.336        0.920        0.181      121.540       26.721        0.048      340.577       14.694      863.791
05/22/2014  23:49:00      -69.217      -49.056        2.797       31.899       27.357       22.144     1017.557      748.420      490.343        0.473        0.113       84.838       15.599        0.034      340.509       14.578      863.795
05/22/2014  23:50:00      -52.866     -109.052       -2.260       31.313       42.278       15.869      980.483     1787.407      251.821        0.886        0.151      121.190       18.771        0.024      340.574       14.687      863.794
05/22/2014  23:51:00      -53.194     -102.597       -3.210       23.474       20.538       15.614      551.025      421.825      243.783        0.729        0.061      115.567       12.725        0.012      340.604       14.740      863.783
05/22/2014  23:52:00      -15.774      -70.138       -5.268       33.230       27.093       16.823     1104.231      734.036      283.024        0.366        0.106       71.890       14.374        0.040      340.627       14.779      863.775
05/22/2014  23:53:00        8.066      -45.238      -11.245       24.363       25.860       28.892      593.572      668.738      834.740        0.217        0.105       45.952       17.396        0.143      340.452       14.482      863.774
05/22/2014  23:54:00       42.364       -9.207       17.542       37.848       27.882       23.917     1432.499      777.423      572.003        0.248        0.139       43.353       23.657        0.298      340.323       14.265      863.771
05/22/2014  23:55:00       19.038        5.594       34.016       26.163       25.806       21.000      684.483      665.965      440.999        0.167        0.090       19.843       14.536        0.537      340.254       14.147      863.772
05/22/2014  23:56:00       59.809      -45.139       11.935       36.594       38.555       29.517     1339.102     1486.450      871.242        0.473        0.185       74.931       27.311        0.133      340.384       14.368      863.780
05/22/2014  23:57:00       76.330      -67.481      -14.840       23.067       23.168       16.650      532.080      536.772      277.219        0.597        0.067      101.882       11.082        0.012      340.461       14.498      863.789
05/22/2014  23:58:00       51.104      -54.992       -1.367       29.903       20.847       14.445      894.198      434.608      208.649        0.359        0.077       75.071       10.828        0.021      340.521       14.600      863.793
05/22/2014  23:59:00      -14.760      -24.242       -3.337       33.763       20.133       15.051     1139.962      405.339      226.537        0.129        0.089       28.382       12.631        0.198      340.552       14.651      863.793
